| time (UTC) | temp F | wind direction | speed MPH | gust MPH | rain 1hr in | rain 24hr in | rain mn in | humidity % | barometer mb |
| 20260906044530 | 70 | 72 | 4.0 | 9.0 | 0.00 | 0.06 | 0.00 | 91 | 1017.2 |
| 20260906044427 | 70 | 86 | 4.0 | 9.0 | 0.00 | 0.06 | 0.00 | 91 | 1017.2 |
| 20260906044319 | 70 | 75 | 4.0 | 9.0 | 0.00 | 0.06 | 0.00 | 91 | 1017.2 |
| 20260906044232 | 70 | 101 | 5.0 | 9.0 | 0.00 | 0.06 | 0.00 | 91 | 1017.2 |
| 20260906044125 | 70 | 87 | 5.0 | 9.0 | 0.00 | 0.06 | 0.00 | 91 | 1017.2 |
| 20260906044037 | 70 | 86 | 4.0 | 10.0 | 0.00 | 0.06 | 0.00 | 91 | 1017.2 |
| 20260906043930 | 70 | 82 | 5.0 | 10.0 | 0.00 | 0.06 | 0.00 | 91 | 1017.2 |
| 20260906043823 | 70 | 80 | 6.0 | 10.0 | 0.00 | 0.06 | 0.00 | 91 | 1017.3 |
| 20260906043735 | 70 | 82 | 5.0 | 10.0 | 0.00 | 0.06 | 0.00 | 91 | 1017.2 |
| 20260906043652 | 70 | 109 | 5.0 | 10.0 | 0.00 | 0.06 | 0.00 | 91 | 1017.2 |
| 20260906043604 | 70 | 78 | 3.0 | 10.0 | 0.00 | 0.06 | 0.00 | 92 | 1017.1 |
| 20260906043517 | 70 | 80 | 5.0 | 10.0 | 0.00 | 0.06 | 0.00 | 92 | 1017.2 |
| 20260906043407 | 70 | 87 | 6.0 | 10.0 | 0.00 | 0.06 | 0.00 | 92 | 1017.1 |
| 20260906043259 | 70 | 66 | 5.0 | 10.0 | 0.00 | 0.06 | 0.00 | 92 | 1017.1 |
| 20260906043156 | 70 | 84 | 4.0 | 10.0 | 0.00 | 0.06 | 0.00 | 92 | 1017.1 |
| 20260906043028 | 70 | 101 | 4.0 | 10.0 | 0.00 | 0.06 | 0.00 | 92 | 1017.1 |
| 20260906042920 | 70 | 108 | 5.0 | 10.0 | 0.00 | 0.06 | 0.00 | 92 | 1017.0 |
| 20260906042832 | 70 | 83 | 5.0 | 10.0 | 0.00 | 0.06 | 0.00 | 92 | 1017.1 |
| 20260906042725 | 70 | 93 | 5.0 | 10.0 | 0.00 | 0.06 | 0.00 | 92 | 1017.0 |
| 20260906042641 | 70 | 86 | 4.0 | 9.0 | 0.00 | 0.06 | 0.00 | 92 | 1017.1 |
| 20260906042533 | 70 | 90 | 3.0 | 9.0 | 0.00 | 0.06 | 0.00 | 92 | 1017.0 |
| 20260906042425 | 70 | 93 | 3.0 | 9.0 | 0.00 | 0.06 | 0.00 | 93 | 1017.1 |
| 20260906042336 | 70 | 77 | 4.0 | 9.0 | 0.00 | 0.06 | 0.00 | 93 | 1017.1 |
| 20260906042249 | 70 | 71 | 6.0 | 9.0 | 0.00 | 0.06 | 0.00 | 93 | 1017.1 |
| 20260906042140 | 70 | 69 | 6.0 | 9.0 | 0.00 | 0.06 | 0.00 | 93 | 1017.0 |
| 20260906042051 | 70 | 82 | 5.0 | 8.0 | 0.00 | 0.06 | 0.00 | 93 | 1017.1 |
| 20260906041922 | 70 | 80 | 5.0 | 8.0 | 0.00 | 0.06 | 0.00 | 93 | 1017.1 |
| 20260906041835 | 70 | 70 | 5.0 | 8.0 | 0.00 | 0.06 | 0.00 | 93 | 1017.0 |
| 20260906041728 | 70 | 64 | 4.0 | 8.0 | 0.00 | 0.06 | 0.00 | 93 | 1017.1 |
| 20260906041654 | 70 | 76 | 4.0 | 8.0 | 0.00 | 0.06 | 0.00 | 93 | 1017.1 |
| 20260906041544 | 70 | 82 | 4.0 | 8.0 | 0.00 | 0.06 | 0.00 | 93 | 1017.1 |
| 20260906041457 | 70 | 71 | 4.0 | 8.0 | 0.00 | 0.06 | 0.00 | 93 | 1017.1 |
| 20260906041347 | 70 | 77 | 4.0 | 8.0 | 0.00 | 0.06 | 0.00 | 93 | 1017.1 |
| 20260906041237 | 70 | 44 | 4.0 | 8.0 | 0.00 | 0.06 | 0.00 | 94 | 1017.1 |
| 20260906041129 | 70 | 64 | 4.0 | 8.0 | 0.00 | 0.06 | 0.00 | 94 | 1017.2 |
| 20260906041041 | 70 | 78 | 3.0 | 8.0 | 0.00 | 0.06 | 0.00 | 94 | 1017.2 |
| 20260906040930 | 70 | 49 | 3.0 | 8.0 | 0.00 | 0.06 | 0.00 | 94 | 1017.1 |
| 20260906040822 | 71 | 57 | 4.0 | 8.0 | 0.00 | 0.06 | 0.00 | 94 | 1017.2 |
| 20260906040734 | 71 | 51 | 4.0 | 8.0 | 0.00 | 0.06 | 0.00 | 94 | 1017.2 |
| 20260906040630 | 71 | 59 | 4.0 | 8.0 | 0.00 | 0.06 | 0.00 | 94 | 1017.2 |
| 20260906040522 | 71 | 70 | 3.0 | 8.0 | 0.00 | 0.06 | 0.00 | 94 | 1017.2 |
| 20260906040434 | 71 | 52 | 2.0 | 8.0 | 0.00 | 0.06 | 0.00 | 94 | 1017.2 |
| 20260906040346 | 71 | 71 | 3.0 | 8.0 | 0.00 | 0.06 | 0.00 | 94 | 1017.1 |
| 20260906040257 | 71 | 35 | 4.0 | 8.0 | 0.00 | 0.06 | 0.00 | 94 | 1017.1 |
| 20260906040215 | 71 | 52 | 3.0 | 8.0 | 0.00 | 0.06 | 0.06 | 94 | 1017.1 |
| 20260906040106 | 71 | 57 | 2.0 | 5.0 | 0.00 | 0.06 | 0.06 | 94 | 1017.1 |
| 20260906035928 | 71 | 57 | 3.0 | 5.0 | 0.00 | 0.06 | 0.06 | 94 | 1017.1 |
| 20260906035820 | 71 | 47 | 3.0 | 5.0 | 0.00 | 0.06 | 0.06 | 94 | 1017.1 |
| 20260906035732 | 71 | 41 | 3.0 | 5.0 | 0.00 | 0.06 | 0.06 | 94 | 1017.1 |
| 20260906035649 | 71 | 78 | 3.0 | 5.0 | 0.00 | 0.06 | 0.06 | 94 | 1017.0 |
| 20260906035541 | 71 | 38 | 3.0 | 5.0 | 0.00 | 0.06 | 0.06 | 94 | 1017.0 |
| 20260906035451 | 71 | 40 | 2.0 | 6.0 | 0.00 | 0.06 | 0.06 | 94 | 1017.0 |
| 20260906035403 | 71 | 54 | 2.0 | 6.0 | 0.00 | 0.06 | 0.06 | 94 | 1017.0 |
| 20260906035253 | 71 | 51 | 3.0 | 6.0 | 0.00 | 0.06 | 0.06 | 94 | 1017.1 |
| 20260906035124 | 71 | 69 | 3.0 | 6.0 | 0.00 | 0.06 | 0.06 | 94 | 1017.1 |
| 20260906035037 | 71 | 76 | 3.0 | 6.0 | 0.00 | 0.06 | 0.06 | 94 | 1017.0 |
| 20260906034929 | 71 | 42 | 3.0 | 6.0 | 0.00 | 0.06 | 0.06 | 94 | 1017.1 |
| 20260906034822 | 71 | 36 | 3.0 | 6.0 | 0.00 | 0.06 | 0.06 | 94 | 1017.0 |
| 20260906034735 | 71 | 67 | 3.0 | 6.0 | 0.00 | 0.06 | 0.06 | 94 | 1017.1 |
| 20260906034701 | 71 | 67 | 2.0 | 6.0 | 0.00 | 0.06 | 0.06 | 94 | 1017.1 |
| 20260906034552 | 71 | 78 | 0.0 | 0.0 | 0.00 | 0.06 | 0.06 | 94 | 1017.0 |
| 20260906034442 | 71 | 78 | 0.0 | 0.0 | 0.00 | 0.06 | 0.06 | 94 | 1017.1 |
| 20260906034333 | 71 | 78 | 0.0 | 0.0 | 0.00 | 0.06 | 0.06 | 94 | 1017.1 |
| 20260906034246 | 71 | 78 | 0.0 | 0.0 | 0.00 | 0.06 | 0.06 | 94 | 1017.0 |
| 20260906034159 | 71 | 78 | 0.0 | 0.0 | 0.00 | 0.06 | 0.06 | 94 | 1017.0 |
| 20260906034110 | 71 | 78 | 0.0 | 0.0 | 0.00 | 0.06 | 0.06 | 94 | 1017.0 |
| 20260906034000 | 71 | 78 | 0.0 | 0.0 | 0.00 | 0.06 | 0.06 | 94 | 1017.0 |
| 20260906033850 | 71 | 78 | 0.0 | 0.0 | 0.00 | 0.06 | 0.06 | 94 | 1017.0 |
| 20260906033741 | 71 | 78 | 0.0 | 0.0 | 0.00 | 0.06 | 0.06 | 94 | 1017.0 |
| 20260906033653 | 71 | 78 | 0.0 | 0.0 | 0.00 | 0.06 | 0.06 | 94 | 1017.0 |
| 20260906033604 | 71 | 78 | 0.0 | 0.0 | 0.00 | 0.06 | 0.06 | 94 | 1016.9 |
| 20260906033455 | 71 | 78 | 0.0 | 0.0 | 0.00 | 0.06 | 0.06 | 94 | 1017.1 |
| 20260906033331 | 71 | 78 | 0.0 | 0.0 | 0.00 | 0.06 | 0.06 | 94 | 1017.0 |
| 20260906033222 | 72 | 78 | 0.0 | 0.0 | 0.00 | 0.06 | 0.06 | 94 | 1017.0 |
| 20260906033145 | 72 | 78 | 0.0 | 0.0 | 0.00 | 0.06 | 0.06 | 94 | 1017.0 |
| 20260906033037 | 71 | 78 | 0.0 | 0.0 | 0.00 | 0.06 | 0.06 | 94 | 1017.0 |
| 20260906032930 | 71 | 78 | 0.0 | 0.0 | 0.00 | 0.06 | 0.06 | 94 | 1017.0 |
| 20260906032821 | 72 | 78 | 0.0 | 0.0 | 0.00 | 0.06 | 0.06 | 94 | 1017.0 |
| 20260906032734 | 72 | 78 | 0.0 | 0.0 | 0.00 | 0.06 | 0.06 | 94 | 1017.1 |
| 20260906032646 | 72 | 78 | 0.0 | 0.0 | 0.00 | 0.06 | 0.06 | 94 | 1017.0 |
| 20260906032538 | 72 | 78 | 0.0 | 0.0 | 0.00 | 0.06 | 0.06 | 94 | 1017.0 |
| 20260906032453 | 72 | 78 | 0.0 | 0.0 | 0.00 | 0.06 | 0.06 | 94 | 1017.1 |
| 20260906032325 | 72 | 78 | 0.0 | 0.0 | 0.00 | 0.06 | 0.06 | 94 | 1017.0 |
| 20260906032238 | 72 | 78 | 0.0 | 0.0 | 0.00 | 0.06 | 0.06 | 94 | 1017.1 |
| 20260906032129 | 72 | 78 | 0.0 | 0.0 | 0.00 | 0.06 | 0.06 | 94 | 1017.1 |
| 20260906032040 | 72 | 78 | 0.0 | 0.0 | 0.00 | 0.06 | 0.06 | 94 | 1017.1 |
| 20260906031952 | 72 | 78 | 0.0 | 0.0 | 0.00 | 0.06 | 0.06 | 94 | 1017.1 |
| 20260906031843 | 72 | 78 | 0.0 | 0.0 | 0.00 | 0.06 | 0.06 | 94 | 1017.1 |
| 20260906031756 | 72 | 78 | 0.0 | 0.0 | 0.00 | 0.06 | 0.06 | 94 | 1017.1 |
| 20260906031720 | 72 | 78 | 0.0 | 0.0 | 0.00 | 0.06 | 0.06 | 94 | 1017.0 |
| 20260906031528 | 72 | 78 | 0.0 | 1.0 | 0.00 | 0.06 | 0.06 | 94 | 1017.0 |
| 20260906031444 | 72 | 78 | 0.0 | 2.0 | 0.00 | 0.06 | 0.06 | 93 | 1017.1 |
| 20260906031336 | 72 | 78 | 0.0 | 2.0 | 0.00 | 0.06 | 0.06 | 93 | 1017.1 |
| 20260906031248 | 72 | 78 | 0.0 | 2.0 | 0.00 | 0.06 | 0.06 | 93 | 1017.0 |
| 20260906031200 | 72 | 78 | 0.0 | 2.0 | 0.00 | 0.06 | 0.06 | 93 | 1017.0 |
| 20260906031030 | 72 | 78 | 0.0 | 2.0 | 0.00 | 0.06 | 0.06 | 93 | 1017.1 |
| 20260906030921 | 72 | 78 | 0.0 | 2.0 | 0.00 | 0.06 | 0.06 | 93 | 1017.0 |
| 20260906030833 | 72 | 78 | 0.0 | 2.0 | 0.00 | 0.06 | 0.06 | 93 | 1017.0 |
| 20260906030744 | 72 | 78 | 1.0 | 2.0 | 0.00 | 0.06 | 0.06 | 93 | 1017.0 |
| 20260906030635 | 72 | 78 | 1.0 | 2.0 | 0.00 | 0.06 | 0.06 | 93 | 1017.0 |
| 20260906030527 | 72 | 78 | 1.0 | 2.0 | 0.00 | 0.06 | 0.06 | 93 | 1017.0 |
| 20260906030423 | 72 | 78 | 1.0 | 2.0 | 0.00 | 0.06 | 0.06 | 93 | 1017.0 |
| 20260906030336 | 72 | 78 | 0.0 | 2.0 | 0.00 | 0.06 | 0.06 | 93 | 1017.0 |
| 20260906030226 | 72 | 78 | 0.0 | 2.0 | 0.00 | 0.06 | 0.06 | 93 | 1017.0 |
| 20260906030147 | 72 | 78 | 0.0 | 2.0 | 0.00 | 0.06 | 0.06 | 93 | 1017.0 |
| 20260906030039 | 72 | 78 | 1.0 | 2.0 | 0.00 | 0.06 | 0.06 | 93 | 1017.0 |
| 20260906025930 | 72 | 78 | 1.0 | 2.0 | 0.00 | 0.06 | 0.06 | 93 | 1017.0 |
| 20260906025843 | 72 | 78 | 1.0 | 2.0 | 0.00 | 0.06 | 0.06 | 93 | 1016.9 |
| 20260906025754 | 72 | 78 | 1.0 | 2.0 | 0.00 | 0.06 | 0.06 | 93 | 1016.9 |
| 20260906025646 | 72 | 78 | 1.0 | 2.0 | 0.00 | 0.06 | 0.06 | 93 | 1016.9 |
| 20260906025537 | 72 | 78 | 1.0 | 2.0 | 0.00 | 0.06 | 0.06 | 92 | 1016.8 |
| 20260906025431 | 72 | 78 | 1.0 | 2.0 | 0.00 | 0.06 | 0.06 | 92 | 1016.9 |
| 20260906025343 | 72 | 78 | 1.0 | 2.0 | 0.00 | 0.06 | 0.06 | 92 | 1016.9 |
| 20260906025233 | 72 | 78 | 1.0 | 2.0 | 0.00 | 0.06 | 0.06 | 92 | 1016.9 |
| 20260906025126 | 72 | 78 | 1.0 | 2.0 | 0.00 | 0.06 | 0.06 | 92 | 1016.9 |
| 20260906025038 | 72 | 78 | 0.0 | 1.0 | 0.00 | 0.06 | 0.06 | 92 | 1016.9 |
| 20260906024930 | 72 | 78 | 0.0 | 0.0 | 0.00 | 0.06 | 0.06 | 92 | 1016.8 |
| 20260906024842 | 72 | 78 | 0.0 | 0.0 | 0.00 | 0.06 | 0.06 | 92 | 1016.9 |
| 20260906024754 | 72 | 78 | 0.0 | 0.0 | 0.00 | 0.06 | 0.06 | 92 | 1016.8 |
| 20260906024655 | 72 | 78 | 0.0 | 1.0 | 0.00 | 0.06 | 0.06 | 92 | 1016.8 |
| 20260906024526 | 72 | 78 | 0.0 | 1.0 | 0.00 | 0.06 | 0.06 | 92 | 1016.9 |
| 20260906024421 | 72 | 78 | 0.0 | 1.0 | 0.00 | 0.06 | 0.06 | 92 | 1016.9 |
| 20260906024333 | 72 | 78 | 0.0 | 1.0 | 0.00 | 0.06 | 0.06 | 92 | 1016.9 |
| 20260906024225 | 72 | 78 | 0.0 | 1.0 | 0.00 | 0.06 | 0.06 | 92 | 1016.8 |
| 20260906024137 | 72 | 78 | 0.0 | 1.0 | 0.00 | 0.06 | 0.06 | 92 | 1016.9 |
| 20260906024029 | 72 | 78 | 0.0 | 1.0 | 0.00 | 0.06 | 0.06 | 92 | 1016.8 |
| 20260906023942 | 72 | 78 | 0.0 | 1.0 | 0.00 | 0.06 | 0.06 | 92 | 1016.8 |
| 20260906023855 | 72 | 78 | 0.0 | 1.0 | 0.00 | 0.06 | 0.06 | 92 | 1016.9 |
| 20260906023746 | 72 | 78 | 0.0 | 1.0 | 0.00 | 0.06 | 0.06 | 92 | 1016.9 |
| 20260906023638 | 72 | 78 | 0.0 | 1.0 | 0.00 | 0.06 | 0.06 | 92 | 1016.9 |
| 20260906023535 | 72 | 78 | 0.0 | 1.0 | 0.00 | 0.06 | 0.06 | 92 | 1016.8 |
| 20260906023429 | 72 | 78 | 0.0 | 1.0 | 0.00 | 0.06 | 0.06 | 92 | 1016.9 |
| 20260906023340 | 72 | 78 | 0.0 | 1.0 | 0.00 | 0.06 | 0.06 | 92 | 1016.9 |
| 20260906023250 | 72 | 78 | 0.0 | 3.0 | 0.00 | 0.06 | 0.06 | 92 | 1016.9 |
| 20260906023152 | 72 | 78 | 0.0 | 3.0 | 0.00 | 0.06 | 0.06 | 92 | 1016.9 |
| 20260906023043 | 72 | 78 | 0.0 | 3.0 | 0.00 | 0.06 | 0.06 | 92 | 1016.9 |
| 20260906022955 | 72 | 78 | 0.0 | 3.0 | 0.00 | 0.06 | 0.06 | 92 | 1016.9 |
| 20260906022845 | 72 | 78 | 0.0 | 3.0 | 0.00 | 0.06 | 0.06 | 92 | 1016.8 |
| 20260906022756 | 72 | 78 | 0.0 | 3.0 | 0.00 | 0.06 | 0.06 | 92 | 1016.8 |
| 20260906022628 | 72 | 78 | 0.0 | 3.0 | 0.00 | 0.06 | 0.06 | 92 | 1016.9 |
| 20260906022542 | 72 | 78 | 1.0 | 3.0 | 0.00 | 0.06 | 0.06 | 92 | 1016.8 |
| 20260906022457 | 72 | 78 | 1.0 | 3.0 | 0.00 | 0.06 | 0.06 | 92 | 1016.8 |
| 20260906022409 | 72 | 78 | 1.0 | 3.0 | 0.00 | 0.06 | 0.06 | 92 | 1016.8 |
| 20260906022322 | 72 | 78 | 1.0 | 3.0 | 0.00 | 0.06 | 0.06 | 92 | 1016.9 |
| 20260906022214 | 72 | 78 | 1.0 | 3.0 | 0.00 | 0.06 | 0.06 | 92 | 1016.9 |
| 20260906022104 | 72 | 78 | 2.0 | 3.0 | 0.00 | 0.06 | 0.06 | 92 | 1016.8 |
| 20260906021955 | 72 | 78 | 1.0 | 3.0 | 0.00 | 0.06 | 0.06 | 92 | 1016.8 |
| 20260906021827 | 72 | 78 | 0.0 | 3.0 | 0.00 | 0.06 | 0.06 | 92 | 1016.8 |
| 20260906021720 | 72 | 78 | 0.0 | 4.0 | 0.00 | 0.06 | 0.06 | 92 | 1016.8 |
| 20260906021642 | 72 | 78 | 0.0 | 4.0 | 0.00 | 0.06 | 0.06 | 92 | 1016.9 |
| 20260906021532 | 72 | 78 | 0.0 | 4.0 | 0.00 | 0.06 | 0.06 | 91 | 1016.8 |
| 20260906021429 | 72 | 78 | 0.0 | 4.0 | 0.00 | 0.06 | 0.06 | 91 | 1016.8 |
| 20260906021342 | 72 | 78 | 0.0 | 4.0 | 0.00 | 0.06 | 0.06 | 92 | 1016.9 |
| 20260906021255 | 72 | 78 | 1.0 | 4.0 | 0.00 | 0.06 | 0.06 | 91 | 1016.8 |
| 20260906021037 | 72 | 78 | 1.0 | 4.0 | 0.00 | 0.06 | 0.06 | 92 | 1016.8 |
| 20260906020930 | 72 | 78 | 1.0 | 4.0 | 0.00 | 0.06 | 0.06 | 91 | 1016.8 |
| 20260906020842 | 72 | 78 | 0.0 | 0.0 | 0.00 | 0.06 | 0.06 | 91 | 1016.7 |
| 20260906020752 | 72 | 78 | 0.0 | 0.0 | 0.00 | 0.06 | 0.06 | 92 | 1016.8 |
| 20260906020624 | 72 | 78 | 0.0 | 0.0 | 0.00 | 0.06 | 0.06 | 91 | 1016.7 |
| 20260906020520 | 72 | 78 | 0.0 | 0.0 | 0.00 | 0.06 | 0.06 | 91 | 1016.7 |
| 20260906020432 | 72 | 78 | 0.0 | 0.0 | 0.00 | 0.06 | 0.06 | 91 | 1016.7 |
| 20260906020324 | 72 | 78 | 0.0 | 0.0 | 0.00 | 0.06 | 0.06 | 91 | 1016.7 |
| 20260906020235 | 72 | 78 | 0.0 | 0.0 | 0.00 | 0.06 | 0.06 | 91 | 1016.8 |
| 20260906020157 | 72 | 78 | 0.0 | 0.0 | 0.00 | 0.06 | 0.06 | 91 | 1016.8 |
| 20260906020028 | 72 | 78 | 0.0 | 0.0 | 0.00 | 0.06 | 0.06 | 91 | 1016.7 |
| 20260906015939 | 72 | 78 | 0.0 | 0.0 | 0.00 | 0.06 | 0.06 | 91 | 1016.7 |
| 20260906015831 | 72 | 78 | 0.0 | 0.0 | 0.00 | 0.06 | 0.06 | 91 | 1016.7 |
| 20260906015723 | 72 | 78 | 0.0 | 0.0 | 0.00 | 0.06 | 0.06 | 91 | 1016.7 |
| 20260906015619 | 72 | 78 | 0.0 | 0.0 | 0.00 | 0.06 | 0.06 | 91 | 1016.9 |
| 20260906015532 | 72 | 78 | 0.0 | 0.0 | 0.00 | 0.06 | 0.06 | 91 | 1016.8 |
| 20260906015424 | 72 | 78 | 0.0 | 0.0 | 0.00 | 0.06 | 0.06 | 91 | 1016.7 |
| 20260906015336 | 72 | 78 | 0.0 | 0.0 | 0.00 | 0.06 | 0.06 | 91 | 1016.8 |
| 20260906015229 | 72 | 78 | 0.0 | 0.0 | 0.00 | 0.06 | 0.06 | 91 | 1016.7 |
| 20260906015120 | 72 | 78 | 0.0 | 0.0 | 0.00 | 0.06 | 0.06 | 91 | 1016.8 |
| 20260906015032 | 72 | 78 | 0.0 | 0.0 | 0.00 | 0.06 | 0.06 | 91 | 1016.8 |
| 20260906014944 | 72 | 78 | 0.0 | 0.0 | 0.00 | 0.06 | 0.06 | 91 | 1016.7 |
| 20260906014835 | 72 | 78 | 0.0 | 0.0 | 0.00 | 0.06 | 0.06 | 91 | 1016.7 |
| 20260906014732 | 72 | 78 | 0.0 | 0.0 | 0.00 | 0.06 | 0.06 | 91 | 1016.7 |
| 20260906014653 | 72 | 78 | 0.0 | 0.0 | 0.00 | 0.06 | 0.06 | 91 | 1016.7 |
| 20260906014525 | 72 | 78 | 0.0 | 0.0 | 0.00 | 0.06 | 0.06 | 91 | 1016.7 |
| 20260906014435 | 72 | 78 | 0.0 | 0.0 | 0.00 | 0.06 | 0.06 | 91 | 1016.7 |
| 20260906014328 | 72 | 78 | 0.0 | 0.0 | 0.00 | 0.06 | 0.06 | 90 | 1016.6 |
| 20260906014241 | 72 | 78 | 0.0 | 0.0 | 0.00 | 0.06 | 0.06 | 90 | 1016.6 |
| 20260906014132 | 72 | 78 | 0.0 | 0.0 | 0.00 | 0.06 | 0.06 | 90 | 1016.6 |
| 20260906014023 | 72 | 78 | 0.0 | 0.0 | 0.00 | 0.06 | 0.06 | 90 | 1016.5 |
| 20260906013935 | 72 | 78 | 0.0 | 0.0 | 0.00 | 0.06 | 0.06 | 90 | 1016.6 |
| 20260906013830 | 72 | 78 | 0.0 | 0.0 | 0.00 | 0.06 | 0.06 | 90 | 1016.6 |
| 20260906013743 | 72 | 78 | 0.0 | 0.0 | 0.00 | 0.06 | 0.06 | 90 | 1016.6 |
| 20260906013634 | 72 | 78 | 0.0 | 0.0 | 0.00 | 0.06 | 0.06 | 90 | 1016.6 |
| 20260906013546 | 72 | 78 | 0.0 | 1.0 | 0.00 | 0.06 | 0.06 | 90 | 1016.5 |
| 20260906013458 | 72 | 78 | 0.0 | 3.0 | 0.00 | 0.06 | 0.06 | 90 | 1016.5 |
| 20260906013329 | 72 | 78 | 0.0 | 4.0 | 0.00 | 0.06 | 0.06 | 90 | 1016.5 |
| 20260906013239 | 72 | 78 | 0.0 | 4.0 | 0.00 | 0.06 | 0.06 | 90 | 1016.5 |
| 20260906013202 | 73 | 78 | 0.0 | 4.0 | 0.00 | 0.06 | 0.06 | 90 | 1016.5 |
| 20260906013031 | 73 | 78 | 0.0 | 4.0 | 0.00 | 0.06 | 0.06 | 90 | 1016.5 |
| 20260906012944 | 73 | 78 | 0.0 | 4.0 | 0.00 | 0.06 | 0.06 | 90 | 1016.4 |
| 20260906012856 | 73 | 78 | 1.0 | 5.0 | 0.00 | 0.06 | 0.06 | 90 | 1016.5 |
| 20260906012730 | 73 | 78 | 2.0 | 5.0 | 0.00 | 0.06 | 0.06 | 90 | 1016.4 |
| 20260906012622 | 73 | 78 | 2.0 | 5.0 | 0.00 | 0.06 | 0.06 | 90 | 1016.4 |
| 20260906012534 | 73 | 78 | 2.0 | 5.0 | 0.00 | 0.06 | 0.06 | 90 | 1016.4 |
| 20260906012445 | 73 | 78 | 2.0 | 5.0 | 0.00 | 0.06 | 0.06 | 90 | 1016.3 |
| 20260906012357 | 73 | 78 | 2.0 | 7.0 | 0.00 | 0.06 | 0.06 | 90 | 1016.4 |
| 20260906012228 | 73 | 78 | 2.0 | 7.0 | 0.00 | 0.06 | 0.06 | 90 | 1016.3 |
| 20260906012139 | 73 | 78 | 2.0 | 7.0 | 0.00 | 0.06 | 0.06 | 90 | 1016.4 |
| 20260906012030 | 73 | 78 | 3.0 | 7.0 | 0.00 | 0.06 | 0.06 | 90 | 1016.3 |
| 20260906011943 | 73 | 48 | 3.0 | 7.0 | 0.00 | 0.06 | 0.06 | 90 | 1016.4 |
| 20260906011854 | 73 | 54 | 3.0 | 7.0 | 0.00 | 0.06 | 0.06 | 90 | 1016.4 |
| 20260906011739 | 73 | 54 | 3.0 | 7.0 | 0.00 | 0.06 | 0.06 | 90 | 1016.3 |
| 20260906011641 | 73 | 59 | 4.0 | 9.0 | 0.00 | 0.06 | 0.06 | 90 | 1016.3 |
| 20260906011533 | 73 | 105 | 4.0 | 9.0 | 0.00 | 0.06 | 0.06 | 90 | 1016.4 |
| 20260906011425 | 73 | 71 | 4.0 | 9.0 | 0.00 | 0.06 | 0.06 | 90 | 1016.3 |
| 20260906011337 | 73 | 80 | 4.0 | 9.0 | 0.00 | 0.06 | 0.06 | 90 | 1016.4 |
| 20260906011228 | 73 | 61 | 4.0 | 9.0 | 0.00 | 0.06 | 0.06 | 89 | 1016.3 |
| 20260906011140 | 73 | 76 | 3.0 | 9.0 | 0.00 | 0.06 | 0.06 | 89 | 1016.3 |
| 20260906011053 | 73 | 78 | 4.0 | 9.0 | 0.00 | 0.06 | 0.06 | 89 | 1016.3 |
| 20260906010922 | 73 | 53 | 5.0 | 9.0 | 0.00 | 0.06 | 0.06 | 89 | 1016.2 |
| 20260906010838 | 73 | 65 | 6.0 | 9.0 | 0.00 | 0.06 | 0.06 | 89 | 1016.2 |
| 20260906010730 | 73 | 84 | 5.0 | 8.0 | 0.00 | 0.06 | 0.06 | 89 | 1016.2 |
| 20260906010621 | 73 | 66 | 3.0 | 8.0 | 0.00 | 0.06 | 0.06 | 89 | 1016.2 |
| 20260906010533 | 73 | 61 | 3.0 | 8.0 | 0.00 | 0.06 | 0.06 | 89 | 1016.3 |
| 20260906010444 | 73 | 74 | 3.0 | 10.0 | 0.00 | 0.06 | 0.06 | 89 | 1016.3 |
| 20260906010358 | 73 | 74 | 4.0 | 10.0 | 0.00 | 0.06 | 0.06 | 89 | 1016.3 |
| 20260906010228 | 73 | 64 | 5.0 | 10.0 | 0.00 | 0.06 | 0.06 | 89 | 1016.3 |
| 20260906010151 | 73 | 69 | 5.0 | 10.0 | 0.00 | 0.06 | 0.06 | 89 | 1016.3 |
| 20260906010021 | 73 | 47 | 2.0 | 10.0 | 0.00 | 0.06 | 0.06 | 89 | 1016.2 |
| 20260906005937 | 73 | 68 | 3.0 | 10.0 | 0.00 | 0.06 | 0.06 | 89 | 1016.2 |
| 20260906005827 | 73 | 68 | 4.0 | 10.0 | 0.00 | 0.06 | 0.06 | 89 | 1016.3 |
| 20260906005740 | 73 | 72 | 5.0 | 10.0 | 0.00 | 0.06 | 0.06 | 89 | 1016.3 |
| 20260906005633 | 73 | 65 | 5.0 | 10.0 | 0.00 | 0.06 | 0.06 | 89 | 1016.3 |
| 20260906005544 | 73 | 53 | 4.0 | 9.0 | 0.00 | 0.06 | 0.06 | 89 | 1016.3 |
| 20260906005435 | 73 | 60 | 4.0 | 9.0 | 0.00 | 0.06 | 0.06 | 89 | 1016.3 |
| 20260906005328 | 73 | 57 | 3.0 | 8.0 | 0.00 | 0.06 | 0.06 | 89 | 1016.1 |
| 20260906005221 | 73 | 65 | 3.0 | 8.0 | 0.00 | 0.06 | 0.06 | 89 | 1016.2 |
| 20260906005133 | 73 | 84 | 3.0 | 8.0 | 0.00 | 0.06 | 0.06 | 89 | 1016.2 |
| 20260906005028 | 73 | 51 | 4.0 | 8.0 | 0.00 | 0.06 | 0.06 | 89 | 1016.2 |
| 20260906004921 | 73 | 71 | 4.0 | 8.0 | 0.00 | 0.06 | 0.06 | 89 | 1016.2 |
| 20260906004833 | 73 | 77 | 5.0 | 8.0 | 0.00 | 0.06 | 0.06 | 89 | 1016.2 |
| 20260906004744 | 73 | 76 | 4.0 | 8.0 | 0.00 | 0.06 | 0.06 | 89 | 1016.2 |
| 20260906004706 | 73 | 72 | 4.0 | 8.0 | 0.00 | 0.06 | 0.06 | 89 | 1016.2 |
| 20260906004559 | 73 | 73 | 4.0 | 8.0 | 0.00 | 0.06 | 0.06 | 88 | 1016.2 |
| 20260906004430 | 73 | 49 | 3.0 | 8.0 | 0.00 | 0.06 | 0.06 | 89 | 1016.3 |
| 20260906004322 | 73 | 80 | 4.0 | 8.0 | 0.00 | 0.06 | 0.06 | 88 | 1016.2 |
| 20260906004234 | 73 | 17 | 4.0 | 9.0 | 0.00 | 0.06 | 0.06 | 88 | 1016.3 |
| 20260906004130 | 73 | 82 | 4.0 | 9.0 | 0.00 | 0.06 | 0.06 | 88 | 1016.1 |
| 20260906004043 | 73 | 74 | 3.0 | 10.0 | 0.00 | 0.06 | 0.06 | 88 | 1016.2 |
| 20260906003933 | 73 | 44 | 4.0 | 10.0 | 0.00 | 0.06 | 0.06 | 88 | 1016.2 |
| 20260906003827 | 73 | 63 | 4.0 | 10.0 | 0.00 | 0.06 | 0.06 | 88 | 1016.1 |
| 20260906003738 | 73 | 51 | 4.0 | 10.0 | 0.00 | 0.06 | 0.06 | 88 | 1016.1 |
| 20260906003630 | 73 | 69 | 3.0 | 10.0 | 0.00 | 0.06 | 0.06 | 88 | 1016.0 |
| 20260906003522 | 73 | 78 | 3.0 | 10.0 | 0.00 | 0.06 | 0.06 | 88 | 1016.0 |
| 20260906003433 | 73 | 67 | 5.0 | 10.0 | 0.00 | 0.06 | 0.06 | 88 | 1016.0 |
| 20260906003327 | 73 | 94 | 6.0 | 10.0 | 0.00 | 0.06 | 0.06 | 88 | 1016.0 |
| 20260906003220 | 73 | 67 | 5.0 | 10.0 | 0.00 | 0.06 | 0.06 | 88 | 1016.0 |
| 20260906003144 | 73 | 119 | 5.0 | 10.0 | 0.00 | 0.06 | 0.06 | 88 | 1016.0 |
| 20260906003035 | 73 | 72 | 5.0 | 9.0 | 0.00 | 0.06 | 0.06 | 88 | 1016.0 |
| 20260906002928 | 73 | 80 | 5.0 | 9.0 | 0.00 | 0.06 | 0.06 | 88 | 1016.0 |
| 20260906002821 | 73 | 78 | 4.0 | 9.0 | 0.00 | 0.06 | 0.06 | 88 | 1015.9 |
| 20260906002732 | 73 | 90 | 4.0 | 9.0 | 0.00 | 0.06 | 0.06 | 88 | 1015.9 |
| 20260906002645 | 73 | 87 | 3.0 | 9.0 | 0.00 | 0.06 | 0.06 | 88 | 1015.8 |
| 20260906002535 | 73 | 105 | 3.0 | 9.0 | 0.00 | 0.06 | 0.06 | 88 | 1015.9 |
| 20260906002426 | 73 | 107 | 4.0 | 14.0 | 0.00 | 0.06 | 0.06 | 88 | 1015.8 |
| 20260906002343 | 73 | 77 | 5.0 | 14.0 | 0.00 | 0.06 | 0.06 | 88 | 1015.8 |
| 20260906002254 | 73 | 85 | 5.0 | 14.0 | 0.00 | 0.06 | 0.06 | 88 | 1015.8 |
| 20260906002146 | 73 | 98 | 6.0 | 14.0 | 0.00 | 0.06 | 0.06 | 88 | 1015.9 |
| 20260906002057 | 73 | 93 | 6.0 | 14.0 | 0.00 | 0.06 | 0.06 | 88 | 1015.8 |
| 20260906001927 | 73 | 97 | 6.0 | 14.0 | 0.00 | 0.06 | 0.06 | 88 | 1015.8 |
| 20260906001839 | 73 | 84 | 6.0 | 14.0 | 0.00 | 0.06 | 0.06 | 88 | 1015.8 |
| 20260906001731 | 73 | 69 | 7.0 | 14.0 | 0.00 | 0.06 | 0.06 | 88 | 1015.8 |
| 20260906001652 | 73 | 63 | 9.0 | 14.0 | 0.00 | 0.06 | 0.06 | 88 | 1015.8 |
| 20260906001523 | 73 | 107 | 8.0 | 14.0 | 0.00 | 0.06 | 0.06 | 88 | 1015.8 |
| 20260906001435 | 73 | 93 | 5.0 | 12.0 | 0.00 | 0.06 | 0.06 | 88 | 1015.8 |
| 20260906001332 | 73 | 89 | 5.0 | 12.0 | 0.00 | 0.06 | 0.06 | 88 | 1015.8 |
| 20260906001225 | 73 | 96 | 5.0 | 12.0 | 0.00 | 0.06 | 0.06 | 88 | 1015.7 |
| 20260906001137 | 73 | 87 | 6.0 | 12.0 | 0.00 | 0.06 | 0.06 | 88 | 1015.8 |
| 20260906001029 | 74 | 74 | 8.0 | 12.0 | 0.00 | 0.06 | 0.06 | 88 | 1015.7 |
| 20260906000921 | 74 | 76 | 6.0 | 10.0 | 0.00 | 0.06 | 0.06 | 88 | 1015.8 |
| 20260906000833 | 74 | 24 | 4.0 | 10.0 | 0.00 | 0.06 | 0.06 | 88 | 1015.7 |
| 20260906000726 | 74 | 44 | 5.0 | 10.0 | 0.00 | 0.06 | 0.06 | 88 | 1015.8 |
| 20260906000637 | 74 | 86 | 4.0 | 10.0 | 0.00 | 0.06 | 0.06 | 88 | 1015.7 |
| 20260906000552 | 74 | 55 | 3.0 | 11.0 | 0.00 | 0.06 | 0.06 | 88 | 1015.6 |
| 20260906000423 | 74 | 57 | 4.0 | 11.0 | 0.00 | 0.06 | 0.06 | 88 | 1015.6 |
| 20260906000333 | 74 | 71 | 6.0 | 11.0 | 0.00 | 0.06 | 0.06 | 88 | 1015.6 |
| 20260906000226 | 74 | 92 | 7.0 | 11.0 | 0.00 | 0.06 | 0.06 | 88 | 1015.6 |
| 20260906000146 | 74 | 86 | 6.0 | 11.0 | 0.00 | 0.06 | 0.06 | 88 | 1015.7 |
| 20260906000036 | 74 | 81 | 6.0 | 11.0 | 0.00 | 0.06 | 0.06 | 88 | 1015.6 |
| 20260905235929 | 74 | 54 | 6.0 | 11.0 | 0.00 | 0.06 | 0.06 | 88 | 1015.6 |
| 20260905235822 | 74 | 78 | 6.0 | 11.0 | 0.00 | 0.06 | 0.06 | 88 | 1015.6 |
| 20260905235734 | 74 | 85 | 6.0 | 11.0 | 0.00 | 0.06 | 0.06 | 88 | 1015.7 |
| 20260905235630 | 74 | 58 | 5.0 | 9.0 | 0.00 | 0.06 | 0.06 | 88 | 1015.6 |
| 20260905235542 | 74 | 44 | 4.0 | 9.0 | 0.00 | 0.06 | 0.06 | 88 | 1015.8 |
| 20260905235432 | 74 | 54 | 5.0 | 9.0 | 0.00 | 0.06 | 0.06 | 88 | 1015.6 |
| 20260905235324 | 74 | 75 | 5.0 | 9.0 | 0.00 | 0.06 | 0.06 | 88 | 1015.8 |
| 20260905235235 | 74 | 51 | 4.0 | 12.0 | 0.00 | 0.06 | 0.06 | 88 | 1015.7 |
| 20260905235128 | 74 | 69 | 4.0 | 13.0 | 0.00 | 0.06 | 0.06 | 88 | 1015.6 |
| 20260905235020 | 74 | 63 | 3.0 | 13.0 | 0.00 | 0.06 | 0.06 | 88 | 1015.6 |
| 20260905234933 | 74 | 55 | 4.0 | 13.0 | 0.00 | 0.06 | 0.06 | 88 | 1015.6 |
| 20260905234829 | 74 | 68 | 5.0 | 13.0 | 0.00 | 0.06 | 0.06 | 88 | 1015.6 |
| 20260905234722 | 74 | 82 | 5.0 | 13.0 | 0.00 | 0.06 | 0.06 | 88 | 1015.5 |
| 20260905234644 | 74 | 113 | 5.0 | 13.0 | 0.00 | 0.06 | 0.06 | 88 | 1015.6 |
| 20260905234534 | 74 | 50 | 6.0 | 13.0 | 0.00 | 0.06 | 0.06 | 88 | 1015.5 |
| 20260905234427 | 74 | 109 | 7.0 | 13.0 | 0.00 | 0.06 | 0.06 | 88 | 1015.5 |
| 20260905234339 | 74 | 90 | 7.0 | 13.0 | 0.00 | 0.06 | 0.06 | 88 | 1015.5 |
| 20260905234232 | 74 | 85 | 6.0 | 11.0 | 0.00 | 0.06 | 0.06 | 88 | 1015.5 |
| 20260905234124 | 74 | 74 | 4.0 | 11.0 | 0.00 | 0.06 | 0.06 | 88 | 1015.5 |
| 20260905234020 | 74 | 90 | 5.0 | 11.0 | 0.00 | 0.06 | 0.06 | 88 | 1015.5 |
| 20260905233933 | 74 | 71 | 5.0 | 11.0 | 0.00 | 0.06 | 0.06 | 88 | 1015.6 |
| 20260905233824 | 74 | 72 | 4.0 | 12.0 | 0.00 | 0.06 | 0.06 | 88 | 1015.5 |
| 20260905233736 | 74 | 62 | 5.0 | 12.0 | 0.00 | 0.06 | 0.06 | 88 | 1015.6 |
| 20260905233627 | 74 | 73 | 6.0 | 12.0 | 0.00 | 0.06 | 0.06 | 88 | 1015.5 |
| 20260905233519 | 74 | 72 | 6.0 | 12.0 | 0.00 | 0.06 | 0.06 | 88 | 1015.5 |
| 20260905233431 | 74 | 95 | 6.0 | 12.0 | 0.00 | 0.06 | 0.06 | 88 | 1015.5 |
| 20260905233322 | 74 | 74 | 6.0 | 12.0 | 0.00 | 0.06 | 0.06 | 88 | 1015.6 |
| 20260905233232 | 74 | 101 | 5.0 | 12.0 | 0.00 | 0.06 | 0.06 | 88 | 1015.6 |
| 20260905233159 | 74 | 90 | 5.0 | 12.0 | 0.00 | 0.06 | 0.06 | 88 | 1015.6 |
| 20260905233048 | 74 | 86 | 7.0 | 12.0 | 0.00 | 0.06 | 0.06 | 88 | 1015.5 |
| 20260905232920 | 74 | 75 | 6.0 | 12.0 | 0.00 | 0.06 | 0.06 | 88 | 1015.5 |
| 20260905232832 | 75 | 92 | 6.0 | 12.0 | 0.00 | 0.06 | 0.06 | 88 | 1015.5 |
| 20260905232725 | 75 | 65 | 6.0 | 12.0 | 0.00 | 0.06 | 0.06 | 88 | 1015.6 |
| 20260905232638 | 75 | 66 | 5.0 | 12.0 | 0.00 | 0.06 | 0.06 | 88 | 1015.6 |
| 20260905232530 | 75 | 80 | 6.0 | 12.0 | 0.00 | 0.06 | 0.06 | 88 | 1015.5 |
| 20260905232423 | 75 | 80 | 5.0 | 12.0 | 0.00 | 0.06 | 0.06 | 88 | 1015.5 |
| 20260905232320 | 75 | 34 | 5.0 | 10.0 | 0.00 | 0.06 | 0.06 | 88 | 1015.4 |
| 20260905232233 | 75 | 92 | 5.0 | 10.0 | 0.00 | 0.06 | 0.06 | 88 | 1015.5 |
| 20260905232124 | 75 | 86 | 5.0 | 10.0 | 0.00 | 0.06 | 0.06 | 88 | 1015.5 |
| 20260905232036 | 75 | 76 | 5.0 | 10.0 | 0.00 | 0.06 | 0.06 | 88 | 1015.5 |
| 20260905231928 | 75 | 104 | 5.0 | 10.0 | 0.00 | 0.06 | 0.06 | 88 | 1015.5 |
| 20260905231838 | 75 | 74 | 3.0 | 10.0 | 0.00 | 0.06 | 0.06 | 88 | 1015.5 |
| 20260905231730 | 75 | 67 | 3.0 | 10.0 | 0.00 | 0.06 | 0.06 | 88 | 1015.5 |
| 20260905231653 | 75 | 74 | 4.0 | 10.0 | 0.00 | 0.06 | 0.06 | 88 | 1015.5 |
| 20260905231525 | 75 | 86 | 5.0 | 10.0 | 0.00 | 0.06 | 0.06 | 88 | 1015.6 |
| 20260905231421 | 75 | 59 | 3.0 | 10.0 | 0.00 | 0.06 | 0.06 | 88 | 1015.5 |
| 20260905231333 | 75 | 63 | 3.0 | 12.0 | 0.00 | 0.06 | 0.06 | 88 | 1015.6 |
| 20260905231227 | 75 | 93 | 3.0 | 12.0 | 0.00 | 0.06 | 0.06 | 88 | 1015.5 |
| 20260905231119 | 75 | 75 | 4.0 | 12.0 | 0.00 | 0.06 | 0.06 | 88 | 1015.5 |
| 20260905231031 | 75 | 94 | 5.0 | 12.0 | 0.00 | 0.06 | 0.06 | 88 | 1015.5 |
| 20260905230924 | 75 | 75 | 6.0 | 12.0 | 0.00 | 0.06 | 0.06 | 88 | 1015.5 |
| 20260905230835 | 75 | 96 | 5.0 | 12.0 | 0.00 | 0.06 | 0.06 | 88 | 1015.5 |
| 20260905230727 | 75 | 84 | 5.0 | 12.0 | 0.00 | 0.06 | 0.06 | 88 | 1015.4 |
| 20260905230644 | 75 | 55 | 6.0 | 12.0 | 0.00 | 0.06 | 0.06 | 88 | 1015.4 |
| 20260905230535 | 75 | 78 | 6.0 | 12.0 | 0.00 | 0.06 | 0.06 | 88 | 1015.4 |
| 20260905230426 | 75 | 109 | 6.0 | 12.0 | 0.00 | 0.06 | 0.06 | 88 | 1015.4 |
| 20260905230339 | 75 | 51 | 8.0 | 12.0 | 0.00 | 0.06 | 0.06 | 88 | 1015.3 |
| 20260905230230 | 75 | 61 | 6.0 | 12.0 | 0.00 | 0.06 | 0.06 | 88 | 1015.5 |
| 20260905230151 | 75 | 31 | 5.0 | 12.0 | 0.00 | 0.06 | 0.06 | 88 | 1015.5 |
| 20260905230023 | 75 | 72 | 5.0 | 12.0 | 0.00 | 0.06 | 0.06 | 88 | 1015.4 |
| 20260905225935 | 75 | 32 | 5.0 | 12.0 | 0.00 | 0.06 | 0.06 | 88 | 1015.4 |
| 20260905225827 | 75 | 43 | 5.0 | 12.0 | 0.00 | 0.06 | 0.06 | 88 | 1015.4 |
| 20260905225723 | 75 | 13 | 5.0 | 12.0 | 0.00 | 0.06 | 0.06 | 88 | 1015.4 |
| 20260905225635 | 75 | 78 | 6.0 | 12.0 | 0.00 | 0.06 | 0.06 | 88 | 1015.3 |
| 20260905225528 | 75 | 86 | 6.0 | 12.0 | 0.00 | 0.06 | 0.06 | 88 | 1015.3 |
| 20260905225420 | 75 | 53 | 6.0 | 14.0 | 0.00 | 0.06 | 0.06 | 88 | 1015.3 |
| 20260905225332 | 75 | 65 | 5.0 | 15.0 | 0.00 | 0.06 | 0.06 | 88 | 1015.3 |
| 20260905225223 | 75 | 86 | 7.0 | 15.0 | 0.00 | 0.06 | 0.06 | 88 | 1015.2 |
| 20260905225135 | 75 | 83 | 8.0 | 15.0 | 0.00 | 0.06 | 0.06 | 88 | 1015.3 |
| 20260905225047 | 75 | 87 | 7.0 | 15.0 | 0.00 | 0.06 | 0.06 | 88 | 1015.3 |
| 20260905224959 | 75 | 69 | 6.0 | 15.0 | 0.00 | 0.06 | 0.06 | 88 | 1015.3 |
| 20260905224855 | 75 | 147 | 6.0 | 15.0 | 0.00 | 0.06 | 0.06 | 88 | 1015.2 |
| 20260905224726 | 75 | 109 | 8.0 | 15.0 | 0.00 | 0.06 | 0.06 | 88 | 1015.3 |
| 20260905224648 | 75 | 62 | 8.0 | 15.0 | 0.00 | 0.06 | 0.06 | 88 | 1015.2 |
| 20260905224539 | 75 | 94 | 8.0 | 15.0 | 0.00 | 0.06 | 0.06 | 88 | 1015.3 |
| 20260905224429 | 75 | 77 | 7.0 | 12.0 | 0.00 | 0.06 | 0.06 | 88 | 1015.1 |
| 20260905224341 | 75 | 80 | 6.0 | 12.0 | 0.00 | 0.06 | 0.06 | 88 | 1015.2 |
| 20260905224253 | 75 | 53 | 5.0 | 12.0 | 0.00 | 0.06 | 0.06 | 88 | 1015.2 |
| 20260905224206 | 75 | 92 | 5.0 | 13.0 | 0.00 | 0.06 | 0.06 | 88 | 1015.2 |
| 20260905224057 | 75 | 47 | 5.0 | 13.0 | 0.00 | 0.06 | 0.06 | 88 | 1015.3 |
| 20260905223928 | 75 | 88 | 7.0 | 13.0 | 0.00 | 0.06 | 0.06 | 88 | 1015.2 |
| 20260905223824 | 75 | 82 | 6.0 | 13.0 | 0.00 | 0.06 | 0.06 | 88 | 1015.2 |
| 20260905223736 | 76 | 38 | 5.0 | 13.0 | 0.00 | 0.06 | 0.06 | 88 | 1015.2 |
| 20260905223648 | 75 | 59 | 6.0 | 13.0 | 0.00 | 0.06 | 0.06 | 88 | 1015.3 |
| 20260905223559 | 75 | 61 | 8.0 | 13.0 | 0.00 | 0.06 | 0.06 | 88 | 1015.2 |
| 20260905223450 | 76 | 34 | 7.0 | 13.0 | 0.00 | 0.06 | 0.06 | 88 | 1015.2 |
| 20260905223340 | 76 | 67 | 7.0 | 13.0 | 0.00 | 0.06 | 0.06 | 88 | 1015.3 |
| 20260905223254 | 76 | 344 | 6.0 | 13.0 | 0.00 | 0.06 | 0.06 | 88 | 1015.3 |
| 20260905223214 | 76 | 80 | 6.0 | 13.0 | 0.00 | 0.06 | 0.06 | 88 | 1015.2 |
| 20260905223025 | 76 | 34 | 7.0 | 13.0 | 0.00 | 0.06 | 0.06 | 88 | 1015.2 |
| 20260905222936 | 76 | 49 | 8.0 | 13.0 | 0.00 | 0.06 | 0.06 | 88 | 1015.2 |
| 20260905222833 | 76 | 32 | 6.0 | 13.0 | 0.00 | 0.06 | 0.06 | 88 | 1015.1 |
| 20260905222726 | 76 | 57 | 6.0 | 13.0 | 0.00 | 0.06 | 0.06 | 88 | 1015.2 |
| 20260905222637 | 76 | 12 | 6.0 | 13.0 | 0.00 | 0.06 | 0.06 | 88 | 1015.2 |
| 20260905222529 | 76 | 67 | 6.0 | 13.0 | 0.00 | 0.06 | 0.06 | 88 | 1015.2 |
| 20260905222442 | 76 | 98 | 8.0 | 13.0 | 0.00 | 0.06 | 0.06 | 87 | 1015.2 |
| 20260905222355 | 76 | 34 | 8.0 | 13.0 | 0.00 | 0.06 | 0.06 | 87 | 1015.1 |
| 20260905222246 | 76 | 68 | 8.0 | 13.0 | 0.00 | 0.06 | 0.06 | 87 | 1015.1 |
| 20260905222158 | 76 | 80 | 8.0 | 17.0 | 0.00 | 0.06 | 0.06 | 87 | 1015.2 |
| 20260905222029 | 76 | 24 | 9.0 | 17.0 | 0.00 | 0.06 | 0.06 | 87 | 1015.1 |
| 20260905221925 | 76 | 59 | 9.0 | 17.0 | 0.00 | 0.06 | 0.06 | 87 | 1015.1 |
| 20260905221837 | 77 | 72 | 9.0 | 18.0 | 0.00 | 0.06 | 0.06 | 87 | 1015.0 |
| 20260905221730 | 77 | 87 | 7.0 | 18.0 | 0.00 | 0.06 | 0.06 | 87 | 1015.1 |
| 20260905221651 | 77 | 69 | 5.0 | 18.0 | 0.00 | 0.06 | 0.06 | 87 | 1015.1 |
| 20260905221523 | 77 | 49 | 6.0 | 18.0 | 0.00 | 0.06 | 0.06 | 86 | 1014.9 |
| 20260905221435 | 77 | 58 | 8.0 | 18.0 | 0.00 | 0.06 | 0.06 | 86 | 1014.9 |
| 20260905221327 | 77 | 78 | 8.0 | 18.0 | 0.00 | 0.06 | 0.06 | 86 | 1015.0 |
| 20260905221239 | 77 | 44 | 7.0 | 18.0 | 0.00 | 0.06 | 0.06 | 86 | 1014.9 |
| 20260905221129 | 77 | 70 | 10.0 | 18.0 | 0.00 | 0.06 | 0.06 | 85 | 1014.9 |
| 20260905221025 | 78 | 50 | 9.0 | 18.0 | 0.00 | 0.06 | 0.06 | 85 | 1014.8 |
| 20260905220937 | 78 | 82 | 8.0 | 15.0 | 0.00 | 0.06 | 0.06 | 85 | 1014.8 |
| 20260905220825 | 78 | 73 | 10.0 | 15.0 | 0.00 | 0.06 | 0.06 | 85 | 1014.8 |
| 20260905220738 | 78 | 44 | 11.0 | 15.0 | 0.00 | 0.06 | 0.06 | 85 | 1014.8 |
| 20260905220630 | 78 | 61 | 10.0 | 15.0 | 0.00 | 0.06 | 0.06 | 85 | 1014.9 |
| 20260905220523 | 79 | 73 | 7.0 | 13.0 | 0.00 | 0.06 | 0.06 | 85 | 1014.8 |
| 20260905220433 | 79 | 83 | 7.0 | 13.0 | 0.00 | 0.06 | 0.06 | 85 | 1014.7 |
| 20260905220326 | 79 | 71 | 7.0 | 13.0 | 0.00 | 0.06 | 0.06 | 85 | 1014.7 |
| 20260905220221 | 79 | 62 | 8.0 | 13.0 | 0.00 | 0.06 | 0.06 | 85 | 1014.7 |
| 20260905220142 | 79 | 68 | 8.0 | 13.0 | 0.00 | 0.06 | 0.06 | 85 | 1014.8 |
| 20260905220033 | 79 | 12 | 7.0 | 12.0 | 0.00 | 0.06 | 0.06 | 86 | 1014.8 |
| 20260905215925 | 79 | 35 | 6.0 | 12.0 | 0.00 | 0.06 | 0.06 | 85 | 1014.7 |
| 20260905215838 | 79 | 15 | 5.0 | 11.0 | 0.00 | 0.06 | 0.06 | 85 | 1014.7 |
| 20260905215730 | 79 | 30 | 5.0 | 11.0 | 0.00 | 0.06 | 0.06 | 85 | 1014.7 |
| 20260905215623 | 79 | 22 | 5.0 | 12.0 | 0.00 | 0.06 | 0.06 | 85 | 1014.7 |
| 20260905215535 | 79 | 73 | 6.0 | 12.0 | 0.00 | 0.06 | 0.06 | 85 | 1014.6 |
| 20260905215430 | 79 | 60 | 6.0 | 12.0 | 0.00 | 0.06 | 0.06 | 85 | 1014.6 |
| 20260905215322 | 79 | 56 | 7.0 | 12.0 | 0.00 | 0.06 | 0.06 | 84 | 1014.7 |
| 20260905215233 | 79 | 82 | 8.0 | 12.0 | 0.00 | 0.06 | 0.06 | 84 | 1014.7 |
| 20260905215126 | 79 | 51 | 8.0 | 12.0 | 0.00 | 0.06 | 0.06 | 84 | 1014.6 |
| 20260905215038 | 79 | 62 | 7.0 | 12.0 | 0.00 | 0.06 | 0.06 | 84 | 1014.6 |
| 20260905214930 | 79 | 61 | 8.0 | 12.0 | 0.00 | 0.06 | 0.06 | 84 | 1014.7 |
| 20260905214822 | 79 | 60 | 8.0 | 12.0 | 0.00 | 0.06 | 0.06 | 84 | 1014.6 |
| 20260905214734 | 79 | 76 | 7.0 | 13.0 | 0.00 | 0.06 | 0.06 | 84 | 1014.6 |
| 20260905214656 | 79 | 40 | 7.0 | 13.0 | 0.00 | 0.06 | 0.06 | 84 | 1014.6 |
| 20260905214532 | 79 | 88 | 5.0 | 13.0 | 0.00 | 0.06 | 0.06 | 84 | 1014.5 |
| 20260905214424 | 79 | 88 | 6.0 | 13.0 | 0.00 | 0.06 | 0.06 | 84 | 1014.6 |
| 20260905214336 | 79 | 49 | 6.0 | 13.0 | 0.00 | 0.06 | 0.06 | 84 | 1014.6 |
| 20260905214248 | 80 | 67 | 6.0 | 13.0 | 0.00 | 0.06 | 0.06 | 83 | 1014.5 |
| 20260905214119 | 80 | 80 | 7.0 | 13.0 | 0.00 | 0.06 | 0.06 | 83 | 1014.6 |
| 20260905214032 | 80 | 27 | 8.0 | 13.0 | 0.00 | 0.06 | 0.06 | 83 | 1014.5 |
| 20260905213944 | 80 | 30 | 9.0 | 13.0 | 0.00 | 0.06 | 0.06 | 82 | 1014.7 |
| 20260905213855 | 80 | 61 | 9.0 | 13.0 | 0.00 | 0.06 | 0.06 | 83 | 1014.7 |
| 20260905213808 | 80 | 63 | 8.0 | 13.0 | 0.00 | 0.06 | 0.06 | 83 | 1014.5 |
| 20260905213721 | 80 | 44 | 7.0 | 13.0 | 0.00 | 0.06 | 0.06 | 84 | 1014.6 |
| 20260905213616 | 80 | 35 | 6.0 | 10.0 | 0.00 | 0.06 | 0.06 | 84 | 1014.6 |
| 20260905213508 | 80 | 78 | 5.0 | 10.0 | 0.00 | 0.06 | 0.06 | 84 | 1014.6 |
| 20260905213400 | 80 | 40 | 4.0 | 10.0 | 0.00 | 0.06 | 0.06 | 84 | 1014.5 |
| 20260905213229 | 80 | 67 | 4.0 | 10.0 | 0.00 | 0.06 | 0.06 | 84 | 1014.4 |
| 20260905213151 | 80 | 57 | 4.0 | 13.0 | 0.00 | 0.06 | 0.06 | 84 | 1014.4 |
| 20260905213023 | 80 | 30 | 5.0 | 13.0 | 0.00 | 0.06 | 0.06 | 84 | 1014.4 |
| 20260905212935 | 80 | 92 | 5.0 | 13.0 | 0.00 | 0.06 | 0.06 | 83 | 1014.4 |
| 20260905212825 | 80 | 79 | 7.0 | 13.0 | 0.00 | 0.06 | 0.06 | 83 | 1014.4 |
| 20260905212737 | 80 | 84 | 6.0 | 13.0 | 0.00 | 0.06 | 0.06 | 83 | 1014.4 |
| 20260905212629 | 80 | 63 | 4.0 | 13.0 | 0.00 | 0.06 | 0.06 | 83 | 1014.4 |
| 20260905212526 | 80 | 57 | 5.0 | 13.0 | 0.00 | 0.06 | 0.06 | 82 | 1014.4 |
| 20260905212438 | 80 | 36 | 7.0 | 13.0 | 0.00 | 0.06 | 0.06 | 82 | 1014.5 |
| 20260905212330 | 80 | 73 | 7.0 | 13.0 | 0.00 | 0.06 | 0.06 | 82 | 1014.4 |
| 20260905212243 | 81 | 82 | 5.0 | 13.0 | 0.00 | 0.06 | 0.06 | 83 | 1014.4 |
| 20260905212155 | 81 | 78 | 6.0 | 13.0 | 0.00 | 0.06 | 0.06 | 82 | 1014.3 |
| 20260905212026 | 81 | 42 | 6.0 | 13.0 | 0.00 | 0.06 | 0.06 | 82 | 1014.4 |
| 20260905211939 | 81 | 24 | 7.0 | 13.0 | 0.00 | 0.06 | 0.06 | 82 | 1014.3 |
| 20260905211832 | 81 | 33 | 7.0 | 13.0 | 0.00 | 0.06 | 0.06 | 83 | 1014.3 |
| 20260905211744 | 81 | 43 | 7.0 | 13.0 | 0.00 | 0.06 | 0.06 | 82 | 1014.3 |
| 20260905211720 | 81 | 360 | 7.0 | 13.0 | 0.00 | 0.06 | 0.06 | 82 | 1014.3 |
| 20260905211530 | 81 | 49 | 8.0 | 13.0 | 0.00 | 0.06 | 0.06 | 82 | 1014.4 |
| 20260905211442 | 81 | 62 | 9.0 | 13.0 | 0.00 | 0.06 | 0.06 | 82 | 1014.4 |
| 20260905211334 | 81 | 33 | 8.0 | 13.0 | 0.00 | 0.06 | 0.06 | 82 | 1014.4 |
| 20260905211226 | 81 | 33 | 6.0 | 11.0 | 0.00 | 0.06 | 0.06 | 83 | 1014.4 |
| 20260905211139 | 80 | 41 | 7.0 | 11.0 | 0.00 | 0.06 | 0.06 | 83 | 1014.5 |
| 20260905211031 | 80 | 28 | 6.0 | 10.0 | 0.00 | 0.06 | 0.06 | 83 | 1014.3 |
| 20260905210922 | 80 | 5 | 6.0 | 10.0 | 0.00 | 0.06 | 0.06 | 84 | 1014.5 |
| 20260905210835 | 80 | 333 | 5.0 | 9.0 | 0.00 | 0.06 | 0.06 | 84 | 1014.4 |
| 20260905210731 | 80 | 15 | 3.0 | 8.0 | 0.00 | 0.06 | 0.06 | 84 | 1014.4 |
| 20260905210623 | 80 | 5 | 5.0 | 8.0 | 0.00 | 0.06 | 0.06 | 85 | 1014.4 |
| 20260905210535 | 80 | 22 | 5.0 | 8.0 | 0.00 | 0.06 | 0.06 | 84 | 1014.4 |
| 20260905210426 | 80 | 27 | 5.0 | 7.0 | 0.00 | 0.06 | 0.06 | 84 | 1014.4 |
| 20260905210338 | 80 | 32 | 4.0 | 7.0 | 0.00 | 0.06 | 0.06 | 84 | 1014.4 |
| 20260905210229 | 80 | 47 | 4.0 | 7.0 | 0.00 | 0.06 | 0.06 | 84 | 1014.4 |
| 20260905210151 | 80 | 37 | 5.0 | 7.0 | 0.00 | 0.06 | 0.06 | 84 | 1014.4 |
| 20260905210043 | 80 | 23 | 5.0 | 7.0 | 0.00 | 0.06 | 0.06 | 83 | 1014.4 |
| 20260905205933 | 80 | 13 | 5.0 | 11.0 | 0.00 | 0.06 | 0.06 | 83 | 1014.3 |
| 20260905205829 | 80 | 19 | 5.0 | 11.0 | 0.00 | 0.06 | 0.06 | 83 | 1014.3 |
| 20260905205741 | 80 | 33 | 5.0 | 11.0 | 0.00 | 0.06 | 0.06 | 83 | 1014.3 |
| 20260905205653 | 80 | 52 | 5.0 | 11.0 | 0.00 | 0.06 | 0.06 | 83 | 1014.4 |
| 20260905205544 | 80 | 13 | 4.0 | 11.0 | 0.00 | 0.06 | 0.06 | 83 | 1014.4 |
| 20260905205435 | 80 | 35 | 4.0 | 11.0 | 0.00 | 0.06 | 0.06 | 83 | 1014.4 |
| 20260905205348 | 80 | 5 | 4.0 | 11.0 | 0.00 | 0.06 | 0.06 | 82 | 1014.4 |
| 20260905205300 | 80 | 348 | 5.0 | 11.0 | 0.00 | 0.06 | 0.06 | 82 | 1014.4 |
| 20260905205132 | 80 | 12 | 6.0 | 11.0 | 0.00 | 0.06 | 0.06 | 82 | 1014.3 |
| 20260905205044 | 81 | 40 | 5.0 | 11.0 | 0.00 | 0.06 | 0.06 | 82 | 1014.4 |
| 20260905204958 | 81 | 57 | 5.0 | 11.0 | 0.00 | 0.06 | 0.06 | 82 | 1014.3 |
| 20260905204832 | 81 | 51 | 7.0 | 11.0 | 0.00 | 0.06 | 0.06 | 82 | 1014.4 |
| 20260905204722 | 81 | 30 | 7.0 | 12.0 | 0.00 | 0.06 | 0.06 | 82 | 1014.4 |
| 20260905204644 | 81 | 38 | 7.0 | 12.0 | 0.00 | 0.06 | 0.06 | 82 | 1014.4 |
| 20260905204536 | 81 | 15 | 8.0 | 12.0 | 0.00 | 0.06 | 0.06 | 81 | 1014.4 |
| 20260905204428 | 81 | 48 | 8.0 | 12.0 | 0.00 | 0.06 | 0.06 | 81 | 1014.4 |
| 20260905204340 | 81 | 51 | 8.0 | 12.0 | 0.00 | 0.06 | 0.06 | 81 | 1014.4 |
| 20260905204230 | 81 | 39 | 7.0 | 12.0 | 0.00 | 0.06 | 0.06 | 81 | 1014.4 |
| 20260905204141 | 82 | 10 | 7.0 | 12.0 | 0.00 | 0.06 | 0.06 | 81 | 1014.3 |
| 20260905204053 | 82 | 69 | 8.0 | 12.0 | 0.00 | 0.06 | 0.06 | 80 | 1014.3 |
| 20260905203928 | 82 | 23 | 8.0 | 12.0 | 0.00 | 0.06 | 0.06 | 80 | 1014.2 |
| 20260905203841 | 82 | 42 | 6.0 | 12.0 | 0.00 | 0.06 | 0.06 | 81 | 1014.4 |
| 20260905203753 | 82 | 42 | 5.0 | 9.0 | 0.00 | 0.06 | 0.06 | 82 | 1014.3 |
| 20260905203644 | 81 | 16 | 4.0 | 10.0 | 0.00 | 0.06 | 0.06 | 81 | 1014.4 |
| 20260905203536 | 81 | 56 | 4.0 | 10.0 | 0.00 | 0.06 | 0.06 | 80 | 1014.3 |
| 20260905203428 | 81 | 331 | 5.0 | 10.0 | 0.00 | 0.06 | 0.06 | 80 | 1014.3 |
| 20260905203341 | 81 | 351 | 5.0 | 10.0 | 0.00 | 0.06 | 0.06 | 80 | 1014.3 |
| 20260905203253 | 81 | 342 | 3.0 | 10.0 | 0.00 | 0.06 | 0.06 | 82 | 1014.3 |
| 20260905203214 | 81 | 79 | 3.0 | 10.0 | 0.00 | 0.06 | 0.06 | 81 | 1014.3 |
| 20260905203044 | 81 | 17 | 4.0 | 10.0 | 0.00 | 0.06 | 0.06 | 80 | 1014.4 |
| 20260905202957 | 81 | 64 | 5.0 | 10.0 | 0.00 | 0.06 | 0.06 | 80 | 1014.3 |
| 20260905202833 | 81 | 70 | 5.0 | 10.0 | 0.00 | 0.06 | 0.06 | 80 | 1014.3 |
| 20260905202746 | 81 | 9 | 5.0 | 10.0 | 0.00 | 0.06 | 0.06 | 80 | 1014.4 |
| 20260905202658 | 81 | 61 | 6.0 | 10.0 | 0.00 | 0.06 | 0.06 | 80 | 1014.4 |
| 20260905202549 | 81 | 36 | 7.0 | 10.0 | 0.00 | 0.06 | 0.06 | 80 | 1014.4 |
| 20260905202500 | 81 | 66 | 7.0 | 10.0 | 0.00 | 0.06 | 0.06 | 80 | 1014.5 |
| 20260905202332 | 81 | 22 | 5.0 | 10.0 | 0.00 | 0.06 | 0.06 | 81 | 1014.5 |
| 20260905202244 | 81 | 5 | 5.0 | 9.0 | 0.00 | 0.06 | 0.06 | 81 | 1014.4 |
| 20260905202136 | 81 | 41 | 4.0 | 9.0 | 0.00 | 0.06 | 0.06 | 81 | 1014.4 |
| 20260905202028 | 81 | 32 | 5.0 | 9.0 | 0.00 | 0.06 | 0.06 | 81 | 1014.5 |
| 20260905201920 | 81 | 24 | 4.0 | 10.0 | 0.00 | 0.06 | 0.06 | 81 | 1014.5 |
| 20260905201835 | 81 | 31 | 5.0 | 10.0 | 0.00 | 0.06 | 0.06 | 81 | 1014.5 |
| 20260905201748 | 81 | 26 | 5.0 | 11.0 | 0.00 | 0.06 | 0.06 | 80 | 1014.5 |
| 20260905201649 | 81 | 32 | 4.0 | 11.0 | 0.00 | 0.06 | 0.06 | 80 | 1014.6 |
| 20260905201541 | 81 | 355 | 4.0 | 11.0 | 0.00 | 0.06 | 0.06 | 80 | 1014.5 |
| 20260905201453 | 81 | 38 | 4.0 | 11.0 | 0.00 | 0.06 | 0.06 | 79 | 1014.6 |
| 20260905201323 | 81 | 24 | 5.0 | 11.0 | 0.00 | 0.06 | 0.06 | 79 | 1014.6 |
| 20260905201235 | 81 | 59 | 6.0 | 11.0 | 0.00 | 0.06 | 0.06 | 79 | 1014.6 |
| 20260905201148 | 81 | 30 | 7.0 | 11.0 | 0.00 | 0.06 | 0.06 | 78 | 1014.5 |
| 20260905201059 | 81 | 38 | 7.0 | 11.0 | 0.00 | 0.06 | 0.06 | 79 | 1014.6 |
| 20260905200930 | 81 | 81 | 6.0 | 11.0 | 0.00 | 0.06 | 0.06 | 79 | 1014.6 |
| 20260905200842 | 82 | 36 | 6.0 | 10.0 | 0.00 | 0.06 | 0.06 | 79 | 1014.6 |
| 20260905200737 | 82 | 59 | 5.0 | 10.0 | 0.00 | 0.06 | 0.06 | 80 | 1014.6 |
| 20260905200629 | 82 | 54 | 5.0 | 10.0 | 0.00 | 0.06 | 0.06 | 79 | 1014.6 |
| 20260905200522 | 82 | 67 | 7.0 | 10.0 | 0.00 | 0.06 | 0.06 | 79 | 1014.6 |
| 20260905200433 | 82 | 46 | 7.0 | 10.0 | 0.00 | 0.06 | 0.06 | 79 | 1014.7 |
| 20260905200346 | 82 | 38 | 7.0 | 10.0 | 0.00 | 0.06 | 0.06 | 80 | 1014.8 |
| 20260905200257 | 82 | 66 | 5.0 | 10.0 | 0.00 | 0.06 | 0.06 | 81 | 1014.7 |
| 20260905200159 | 82 | 355 | 4.0 | 10.0 | 0.00 | 0.06 | 0.06 | 81 | 1014.7 |
| 20260905200031 | 82 | 89 | 5.0 | 12.0 | 0.00 | 0.06 | 0.06 | 80 | 1014.8 |
| 20260905195943 | 82 | 45 | 6.0 | 14.0 | 0.00 | 0.06 | 0.06 | 79 | 1014.8 |
| 20260905195855 | 82 | 31 | 6.0 | 14.0 | 0.00 | 0.06 | 0.06 | 80 | 1014.8 |
| 20260905195620 | 82 | 91 | 4.0 | 14.0 | 0.00 | 0.06 | 0.06 | 81 | 1014.8 |
| 20260905195532 | 82 | 85 | 4.0 | 14.0 | 0.00 | 0.06 | 0.06 | 80 | 1014.7 |
| 20260905195423 | 82 | 68 | 6.0 | 14.0 | 0.00 | 0.06 | 0.06 | 81 | 1014.8 |
| 20260905195334 | 82 | 67 | 7.0 | 14.0 | 0.00 | 0.06 | 0.06 | 80 | 1014.7 |
| 20260905195226 | 82 | 65 | 10.0 | 14.0 | 0.00 | 0.06 | 0.06 | 80 | 1014.8 |
| 20260905195137 | 82 | 32 | 9.0 | 14.0 | 0.00 | 0.06 | 0.06 | 80 | 1014.8 |
| 20260905195029 | 82 | 20 | 6.0 | 13.0 | 0.00 | 0.06 | 0.06 | 79 | 1014.7 |
| 20260905194945 | 82 | 49 | 4.0 | 9.0 | 0.00 | 0.06 | 0.06 | 79 | 1014.7 |
| 20260905194837 | 82 | 55 | 4.0 | 9.0 | 0.00 | 0.06 | 0.06 | 79 | 1014.7 |
| 20260905194759 | 82 | 80 | 4.0 | 9.0 | 0.00 | 0.06 | 0.06 | 80 | 1014.7 |
| 20260905194640 | 82 | 35 | 4.0 | 12.0 | 0.00 | 0.06 | 0.06 | 79 | 1014.8 |
| 20260905194531 | 82 | 57 | 5.0 | 13.0 | 0.00 | 0.06 | 0.06 | 79 | 1014.7 |
| 20260905194423 | 82 | 78 | 4.0 | 13.0 | 0.00 | 0.06 | 0.06 | 79 | 1014.7 |
| 20260905194335 | 82 | 42 | 4.0 | 13.0 | 0.00 | 0.06 | 0.06 | 80 | 1014.7 |
| 20260905194228 | 82 | 42 | 5.0 | 13.0 | 0.00 | 0.06 | 0.06 | 80 | 1014.7 |
| 20260905194141 | 82 | 45 | 5.0 | 13.0 | 0.00 | 0.06 | 0.06 | 80 | 1014.7 |
| 20260905194054 | 82 | 61 | 6.0 | 13.0 | 0.00 | 0.06 | 0.06 | 80 | 1014.7 |
| 20260905193929 | 82 | 30 | 7.0 | 13.0 | 0.00 | 0.06 | 0.06 | 79 | 1014.7 |
| 20260905193821 | 82 | 68 | 8.0 | 13.0 | 0.00 | 0.06 | 0.06 | 80 | 1014.7 |
| 20260905193732 | 82 | 9 | 7.0 | 13.0 | 0.00 | 0.06 | 0.06 | 80 | 1014.7 |
| 20260905193625 | 82 | 59 | 4.0 | 9.0 | 0.00 | 0.06 | 0.06 | 80 | 1014.7 |
| 20260905193537 | 82 | 56 | 4.0 | 10.0 | 0.00 | 0.06 | 0.06 | 80 | 1014.7 |
| 20260905193429 | 82 | 65 | 4.0 | 11.0 | 0.00 | 0.06 | 0.06 | 81 | 1014.7 |
| 20260905193340 | 82 | 59 | 4.0 | 11.0 | 0.00 | 0.06 | 0.06 | 81 | 1014.8 |
| 20260905193230 | 82 | 30 | 4.0 | 11.0 | 0.00 | 0.06 | 0.06 | 80 | 1014.7 |
| 20260905193153 | 82 | 22 | 4.0 | 11.0 | 0.00 | 0.06 | 0.06 | 80 | 1014.7 |
| 20260905193028 | 82 | 17 | 6.0 | 11.0 | 0.00 | 0.06 | 0.06 | 79 | 1014.8 |
| 20260905192920 | 82 | 28 | 7.0 | 11.0 | 0.00 | 0.06 | 0.06 | 79 | 1014.7 |
| 20260905192832 | 82 | 5 | 7.0 | 11.0 | 0.00 | 0.06 | 0.06 | 79 | 1014.7 |
| 20260905192725 | 82 | 22 | 8.0 | 11.0 | 0.00 | 0.06 | 0.06 | 80 | 1014.8 |
| 20260905192637 | 82 | 9 | 8.0 | 11.0 | 0.00 | 0.06 | 0.06 | 80 | 1014.7 |
| 20260905192529 | 82 | 61 | 6.0 | 11.0 | 0.00 | 0.06 | 0.06 | 81 | 1014.8 |
| 20260905192421 | 82 | 38 | 3.0 | 10.0 | 0.00 | 0.06 | 0.06 | 81 | 1014.7 |
| 20260905192333 | 82 | 78 | 4.0 | 10.0 | 0.00 | 0.06 | 0.06 | 80 | 1014.8 |
| 20260905192230 | 82 | 63 | 3.0 | 10.0 | 0.00 | 0.06 | 0.06 | 81 | 1014.8 |
| 20260905192142 | 82 | 77 | 4.0 | 10.0 | 0.00 | 0.06 | 0.06 | 80 | 1014.8 |
| 20260905192055 | 82 | 52 | 5.0 | 11.0 | 0.00 | 0.06 | 0.06 | 79 | 1014.8 |
| 20260905191926 | 82 | 28 | 5.0 | 11.0 | 0.00 | 0.06 | 0.06 | 79 | 1014.9 |
| 20260905191838 | 82 | 21 | 6.0 | 11.0 | 0.00 | 0.06 | 0.06 | 78 | 1014.8 |
| 20260905191730 | 83 | 355 | 5.0 | 11.0 | 0.00 | 0.06 | 0.06 | 79 | 1014.9 |
| 20260905191653 | 83 | 16 | 6.0 | 11.0 | 0.00 | 0.06 | 0.06 | 79 | 1014.9 |
| 20260905191524 | 83 | 347 | 5.0 | 11.0 | 0.00 | 0.06 | 0.06 | 79 | 1014.8 |
| 20260905191437 | 83 | 46 | 5.0 | 11.0 | 0.00 | 0.06 | 0.06 | 79 | 1014.7 |
| 20260905191331 | 83 | 42 | 6.0 | 11.0 | 0.00 | 0.06 | 0.06 | 79 | 1014.7 |
| 20260905191221 | 83 | 5 | 6.0 | 11.0 | 0.00 | 0.06 | 0.06 | 79 | 1014.6 |
| 20260905191134 | 83 | 29 | 5.0 | 11.0 | 0.00 | 0.06 | 0.06 | 80 | 1014.6 |
| 20260905191026 | 83 | 120 | 3.0 | 10.0 | 0.00 | 0.06 | 0.06 | 81 | 1014.6 |
| 20260905190938 | 83 | 63 | 3.0 | 11.0 | 0.00 | 0.06 | 0.06 | 81 | 1014.6 |
| 20260905190850 | 82 | 66 | 2.0 | 11.0 | 0.00 | 0.06 | 0.06 | 81 | 1014.6 |
| 20260905190742 | 82 | 40 | 3.0 | 11.0 | 0.00 | 0.06 | 0.06 | 82 | 1014.7 |
| 20260905190653 | 82 | 54 | 4.0 | 11.0 | 0.00 | 0.06 | 0.06 | 81 | 1014.7 |
| 20260905190606 | 82 | 24 | 5.0 | 11.0 | 0.00 | 0.06 | 0.06 | 81 | 1014.7 |
| 20260905190456 | 82 | 25 | 6.0 | 11.0 | 0.00 | 0.06 | 0.06 | 81 | 1014.6 |
| 20260905190333 | 82 | 14 | 7.0 | 11.0 | 0.00 | 0.06 | 0.06 | 80 | 1014.7 |
| 20260905190223 | 82 | 30 | 8.0 | 11.0 | 0.00 | 0.06 | 0.06 | 81 | 1014.7 |
| 20260905190145 | 82 | 15 | 7.0 | 11.0 | 0.00 | 0.06 | 0.06 | 82 | 1014.6 |
| 20260905190037 | 82 | 15 | 5.0 | 10.0 | 0.00 | 0.06 | 0.06 | 82 | 1014.7 |
| 20260905185948 | 82 | 342 | 4.0 | 9.0 | 0.00 | 0.06 | 0.06 | 82 | 1014.8 |
| 20260905185839 | 81 | 351 | 4.0 | 9.0 | 0.00 | 0.06 | 0.06 | 82 | 1014.8 |
| 20260905185731 | 81 | 22 | 4.0 | 9.0 | 0.00 | 0.06 | 0.06 | 81 | 1014.7 |
| 20260905185623 | 81 | 18 | 3.0 | 9.0 | 0.00 | 0.06 | 0.06 | 81 | 1014.8 |
| 20260905185535 | 81 | 5 | 3.0 | 9.0 | 0.00 | 0.06 | 0.06 | 81 | 1014.8 |
| 20260905185430 | 81 | 24 | 3.0 | 9.0 | 0.00 | 0.06 | 0.06 | 81 | 1014.8 |
| 20260905185321 | 81 | 11 | 5.0 | 9.0 | 0.00 | 0.06 | 0.06 | 81 | 1014.8 |
| 20260905185234 | 81 | 46 | 5.0 | 9.0 | 0.00 | 0.06 | 0.06 | 81 | 1014.8 |
| 20260905185127 | 82 | 41 | 5.0 | 10.0 | 0.00 | 0.06 | 0.06 | 80 | 1014.8 |
| 20260905185037 | 82 | 28 | 5.0 | 10.0 | 0.00 | 0.06 | 0.06 | 80 | 1014.8 |
| 20260905184930 | 82 | 59 | 5.0 | 10.0 | 0.00 | 0.06 | 0.06 | 80 | 1014.9 |
| 20260905184821 | 82 | 25 | 5.0 | 10.0 | 0.00 | 0.06 | 0.06 | 81 | 1014.8 |
| 20260905184733 | 82 | 10 | 5.0 | 10.0 | 0.00 | 0.06 | 0.06 | 80 | 1014.9 |
| 20260905184655 | 82 | 355 | 5.0 | 10.0 | 0.00 | 0.06 | 0.06 | 80 | 1014.9 |
| 20260905184530 | 82 | 345 | 5.0 | 10.0 | 0.00 | 0.06 | 0.06 | 80 | 1014.9 |
| 20260905184422 | 82 | 34 | 6.0 | 10.0 | 0.00 | 0.06 | 0.06 | 80 | 1014.9 |
| 20260905184334 | 82 | 5 | 6.0 | 10.0 | 0.00 | 0.06 | 0.06 | 80 | 1014.9 |
| 20260905184226 | 82 | 17 | 6.0 | 10.0 | 0.00 | 0.06 | 0.06 | 80 | 1014.9 |
| 20260905184137 | 82 | 53 | 5.0 | 10.0 | 0.00 | 0.06 | 0.06 | 80 | 1014.9 |
| 20260905184030 | 82 | 47 | 3.0 | 8.0 | 0.00 | 0.06 | 0.06 | 81 | 1014.8 |
| 20260905183923 | 82 | 76 | 3.0 | 9.0 | 0.00 | 0.06 | 0.06 | 81 | 1014.8 |
| 20260905183835 | 82 | 98 | 3.0 | 9.0 | 0.00 | 0.06 | 0.06 | 82 | 1014.8 |
| 20260905183732 | 82 | 81 | 5.0 | 9.0 | 0.00 | 0.06 | 0.06 | 81 | 1014.8 |
| 20260905183623 | 82 | 82 | 5.0 | 9.0 | 0.00 | 0.06 | 0.06 | 80 | 1014.8 |
| 20260905183534 | 82 | 69 | 5.0 | 9.0 | 0.00 | 0.06 | 0.06 | 80 | 1014.8 |
| 20260905183427 | 82 | 96 | 5.0 | 9.0 | 0.00 | 0.06 | 0.06 | 80 | 1014.8 |
| 20260905183340 | 82 | 100 | 5.0 | 9.0 | 0.00 | 0.06 | 0.06 | 81 | 1014.8 |
| 20260905183230 | 82 | 94 | 4.0 | 9.0 | 0.00 | 0.06 | 0.06 | 80 | 1014.8 |
| 20260905183152 | 82 | 49 | 5.0 | 9.0 | 0.00 | 0.06 | 0.06 | 80 | 1014.8 |
| 20260905183023 | 82 | 28 | 5.0 | 9.0 | 0.00 | 0.06 | 0.06 | 80 | 1014.8 |
| 20260905182931 | 82 | 340 | 4.0 | 9.0 | 0.00 | 0.06 | 0.06 | 80 | 1014.9 |
| 20260905182828 | 82 | 57 | 4.0 | 9.0 | 0.00 | 0.06 | 0.06 | 81 | 1014.8 |
| 20260905182741 | 82 | 64 | 6.0 | 9.0 | 0.00 | 0.06 | 0.06 | 81 | 1014.8 |
| 20260905182631 | 82 | 342 | 5.0 | 9.0 | 0.00 | 0.06 | 0.06 | 81 | 1014.8 |
| 20260905182523 | 82 | 355 | 3.0 | 8.0 | 0.00 | 0.06 | 0.06 | 80 | 1014.8 |
| 20260905182435 | 82 | 335 | 2.0 | 6.0 | 0.00 | 0.06 | 0.06 | 79 | 1014.7 |
| 20260905182327 | 82 | 335 | 3.0 | 8.0 | 0.00 | 0.06 | 0.06 | 79 | 1014.8 |
| 20260905182220 | 82 | 344 | 3.0 | 8.0 | 0.00 | 0.06 | 0.06 | 80 | 1014.8 |
| 20260905182133 | 82 | 355 | 3.0 | 8.0 | 0.00 | 0.06 | 0.06 | 80 | 1014.8 |
| 20260905182029 | 82 | 347 | 4.0 | 8.0 | 0.00 | 0.06 | 0.06 | 79 | 1014.8 |
| 20260905181921 | 82 | 342 | 5.0 | 8.0 | 0.00 | 0.06 | 0.06 | 79 | 1014.9 |
| 20260905181834 | 82 | 360 | 4.0 | 8.0 | 0.00 | 0.06 | 0.06 | 79 | 1014.8 |
| 20260905181726 | 82 | 11 | 4.0 | 8.0 | 0.00 | 0.06 | 0.06 | 80 | 1014.8 |
| 20260905181647 | 82 | 59 | 4.0 | 8.0 | 0.00 | 0.06 | 0.06 | 80 | 1014.8 |
| 20260905181539 | 82 | 55 | 5.0 | 8.0 | 0.00 | 0.06 | 0.06 | 80 | 1014.8 |
| 20260905181431 | 82 | 341 | 4.0 | 8.0 | 0.00 | 0.06 | 0.06 | 80 | 1014.8 |
| 20260905181323 | 82 | 28 | 3.0 | 8.0 | 0.00 | 0.06 | 0.06 | 79 | 1014.8 |
| 20260905181235 | 82 | 17 | 4.0 | 8.0 | 0.00 | 0.06 | 0.06 | 79 | 1014.8 |
| 20260905181131 | 82 | 80 | 4.0 | 8.0 | 0.00 | 0.06 | 0.06 | 79 | 1014.8 |
| 20260905181024 | 82 | 57 | 4.0 | 8.0 | 0.00 | 0.06 | 0.06 | 79 | 1014.7 |
| 20260905180937 | 83 | 13 | 4.0 | 8.0 | 0.00 | 0.06 | 0.06 | 79 | 1014.8 |
| 20260905180828 | 82 | 48 | 4.0 | 8.0 | 0.00 | 0.06 | 0.06 | 79 | 1014.8 |
| 20260905180721 | 82 | 69 | 4.0 | 8.0 | 0.00 | 0.06 | 0.06 | 80 | 1014.8 |
| 20260905180632 | 82 | 90 | 4.0 | 8.0 | 0.00 | 0.06 | 0.06 | 79 | 1014.8 |
| 20260905180524 | 82 | 46 | 5.0 | 8.0 | 0.00 | 0.06 | 0.06 | 80 | 1014.9 |
| 20260905180420 | 82 | 22 | 2.0 | 7.0 | 0.00 | 0.06 | 0.06 | 80 | 1014.9 |
| 20260905180333 | 82 | 54 | 1.0 | 6.0 | 0.00 | 0.06 | 0.06 | 81 | 1014.9 |
| 20260905180243 | 82 | 54 | 2.0 | 8.0 | 0.00 | 0.08 | 0.06 | 80 | 1014.8 |
| 20260905180037 | 82 | 54 | 2.0 | 8.0 | 0.00 | 0.08 | 0.06 | 80 | 1014.9 |
| 20260905175928 | 82 | 9 | 2.0 | 8.0 | 0.00 | 0.08 | 0.06 | 79 | 1014.9 |
| 20260905175838 | 82 | 9 | 3.0 | 8.0 | 0.00 | 0.08 | 0.06 | 79 | 1014.9 |
| 20260905175730 | 82 | 348 | 4.0 | 8.0 | 0.00 | 0.08 | 0.06 | 79 | 1014.9 |
| 20260905175622 | 82 | 22 | 5.0 | 8.0 | 0.00 | 0.08 | 0.06 | 79 | 1014.9 |
| 20260905175519 | 82 | 5 | 5.0 | 8.0 | 0.00 | 0.08 | 0.06 | 78 | 1014.9 |
| 20260905175431 | 82 | 11 | 5.0 | 8.0 | 0.00 | 0.08 | 0.06 | 80 | 1014.8 |
| 20260905175322 | 82 | 355 | 5.0 | 8.0 | 0.00 | 0.08 | 0.06 | 79 | 1014.8 |
| 20260905175235 | 82 | 31 | 3.0 | 8.0 | 0.00 | 0.08 | 0.06 | 79 | 1014.8 |
| 20260905175126 | 82 | 360 | 1.0 | 5.0 | 0.00 | 0.08 | 0.06 | 79 | 1014.8 |
| 20260905175019 | 82 | 57 | 3.0 | 5.0 | 0.00 | 0.08 | 0.06 | 79 | 1014.8 |
| 20260905174931 | 82 | 57 | 3.0 | 5.0 | 0.00 | 0.08 | 0.06 | 79 | 1014.8 |
| 20260905174824 | 82 | 360 | 4.0 | 5.0 | 0.00 | 0.08 | 0.06 | 79 | 1014.8 |
| 20260905174735 | 82 | 46 | 3.0 | 5.0 | 0.00 | 0.08 | 0.06 | 79 | 1014.7 |
| 20260905174702 | 82 | 34 | 3.0 | 5.0 | 0.00 | 0.08 | 0.06 | 79 | 1014.8 |
| 20260905174531 | 82 | 5 | 2.0 | 5.0 | 0.00 | 0.08 | 0.06 | 79 | 1014.8 |
| 20260905174424 | 82 | 66 | 3.0 | 5.0 | 0.00 | 0.08 | 0.06 | 78 | 1014.8 |
| 20260905174337 | 82 | 46 | 4.0 | 5.0 | 0.00 | 0.08 | 0.06 | 78 | 1014.8 |
| 20260905174249 | 82 | 88 | 4.0 | 5.0 | 0.00 | 0.08 | 0.06 | 78 | 1014.8 |
| 20260905174138 | 82 | 97 | 3.0 | 6.0 | 0.00 | 0.08 | 0.06 | 80 | 1014.8 |
| 20260905174030 | 82 | 84 | 2.0 | 4.0 | 0.00 | 0.08 | 0.06 | 81 | 1014.8 |
| 20260905173942 | 82 | 65 | 1.0 | 4.0 | 0.00 | 0.08 | 0.06 | 81 | 1014.9 |
| 20260905173854 | 82 | 65 | 2.0 | 9.0 | 0.00 | 0.08 | 0.06 | 80 | 1014.9 |
| 20260905173725 | 82 | 65 | 3.0 | 9.0 | 0.00 | 0.08 | 0.06 | 79 | 1015.0 |
| 20260905173621 | 82 | 36 | 2.0 | 9.0 | 0.00 | 0.08 | 0.06 | 80 | 1014.9 |
| 20260905173533 | 82 | 28 | 2.0 | 9.0 | 0.00 | 0.08 | 0.06 | 80 | 1014.9 |
| 20260905173446 | 82 | 53 | 3.0 | 9.0 | 0.00 | 0.08 | 0.06 | 80 | 1014.9 |
| 20260905173359 | 81 | 56 | 2.0 | 9.0 | 0.00 | 0.08 | 0.06 | 79 | 1015.0 |
| 20260905173228 | 82 | 11 | 2.0 | 9.0 | 0.00 | 0.08 | 0.06 | 79 | 1015.0 |
| 20260905173149 | 82 | 11 | 3.0 | 9.0 | 0.00 | 0.08 | 0.06 | 79 | 1015.0 |
| 20260905173041 | 82 | 40 | 4.0 | 9.0 | 0.00 | 0.08 | 0.06 | 79 | 1015.0 |
| 20260905172954 | 82 | 33 | 4.0 | 9.0 | 0.00 | 0.08 | 0.06 | 79 | 1015.0 |
| 20260905172844 | 82 | 61 | 4.0 | 8.0 | 0.00 | 0.08 | 0.06 | 79 | 1014.9 |
| 20260905172756 | 82 | 70 | 3.0 | 7.0 | 0.00 | 0.08 | 0.06 | 79 | 1014.9 |
| 20260905172631 | 82 | 306 | 3.0 | 6.0 | 0.00 | 0.08 | 0.06 | 79 | 1014.9 |
| 20260905172523 | 82 | 346 | 2.0 | 6.0 | 0.00 | 0.08 | 0.06 | 79 | 1014.9 |
| 20260905172435 | 82 | 360 | 3.0 | 6.0 | 0.00 | 0.08 | 0.06 | 79 | 1015.0 |
| 20260905172347 | 82 | 36 | 2.0 | 6.0 | 0.00 | 0.08 | 0.06 | 80 | 1015.0 |
| 20260905172300 | 82 | 306 | 2.0 | 6.0 | 0.00 | 0.08 | 0.06 | 80 | 1015.0 |
| 20260905172213 | 82 | 92 | 3.0 | 6.0 | 0.00 | 0.08 | 0.06 | 79 | 1015.0 |
| 20260905172101 | 82 | 64 | 3.0 | 6.0 | 0.00 | 0.08 | 0.06 | 80 | 1015.1 |
| 20260905171952 | 82 | 84 | 2.0 | 6.0 | 0.00 | 0.08 | 0.06 | 80 | 1015.1 |
| 20260905171842 | 82 | 54 | 1.0 | 7.0 | 0.00 | 0.08 | 0.06 | 79 | 1015.0 |
| 20260905171732 | 82 | 55 | 1.0 | 7.0 | 0.00 | 0.08 | 0.06 | 80 | 1015.1 |
| 20260905171655 | 82 | 55 | 2.0 | 7.0 | 0.00 | 0.08 | 0.06 | 80 | 1015.1 |
| 20260905171531 | 82 | 55 | 4.0 | 7.0 | 0.00 | 0.08 | 0.06 | 80 | 1015.1 |
| 20260905171423 | 82 | 41 | 4.0 | 7.0 | 0.00 | 0.08 | 0.06 | 80 | 1015.0 |
| 20260905171336 | 82 | 35 | 4.0 | 7.0 | 0.00 | 0.08 | 0.06 | 81 | 1015.0 |
| 20260905171227 | 82 | 83 | 2.0 | 7.0 | 0.00 | 0.08 | 0.06 | 84 | 1015.0 |
| 20260905171119 | 82 | 105 | 2.0 | 7.0 | 0.00 | 0.08 | 0.06 | 83 | 1015.1 |
| 20260905171031 | 81 | 105 | 2.0 | 7.0 | 0.00 | 0.08 | 0.06 | 81 | 1015.0 |
| 20260905170923 | 81 | 67 | 2.0 | 6.0 | 0.00 | 0.08 | 0.06 | 82 | 1015.0 |
| 20260905170834 | 81 | 67 | 2.0 | 6.0 | 0.00 | 0.08 | 0.06 | 82 | 1015.0 |
| 20260905170747 | 81 | 57 | 2.0 | 6.0 | 0.00 | 0.08 | 0.06 | 83 | 1015.0 |
| 20260905170703 | 81 | 119 | 4.0 | 6.0 | 0.00 | 0.08 | 0.06 | 81 | 1015.1 |
| 20260905170554 | 81 | 105 | 4.0 | 7.0 | 0.00 | 0.08 | 0.06 | 82 | 1015.1 |
| 20260905170441 | 81 | 105 | 3.0 | 5.0 | 0.00 | 0.08 | 0.06 | 82 | 1015.1 |
| 20260905170333 | 81 | 96 | 2.0 | 5.0 | 0.00 | 0.08 | 0.06 | 83 | 1015.2 |
| 20260905170222 | 81 | 67 | 2.0 | 5.0 | 0.00 | 0.27 | 0.06 | 83 | 1015.2 |
| 20260905170144 | 81 | 89 | 2.0 | 5.0 | 0.00 | 0.27 | 0.06 | 82 | 1015.2 |
| 20260905170035 | 81 | 69 | 3.0 | 5.0 | 0.00 | 0.27 | 0.06 | 83 | 1015.3 |
| 20260905165948 | 81 | 60 | 3.0 | 5.0 | 0.00 | 0.27 | 0.06 | 83 | 1015.2 |
| 20260905165900 | 81 | 57 | 2.0 | 5.0 | 0.00 | 0.27 | 0.06 | 82 | 1015.2 |
| 20260905165751 | 81 | 344 | 1.0 | 5.0 | 0.00 | 0.27 | 0.06 | 82 | 1015.2 |
| 20260905165642 | 81 | 292 | 2.0 | 5.0 | 0.00 | 0.27 | 0.06 | 82 | 1015.2 |
| 20260905165533 | 80 | 292 | 2.0 | 6.0 | 0.00 | 0.27 | 0.06 | 82 | 1015.3 |
| 20260905165429 | 80 | 292 | 2.0 | 6.0 | 0.00 | 0.27 | 0.06 | 81 | 1015.2 |
| 20260905165321 | 80 | 42 | 1.0 | 6.0 | 0.00 | 0.27 | 0.06 | 82 | 1015.3 |
| 20260905165232 | 80 | 42 | 2.0 | 6.0 | 0.00 | 0.27 | 0.06 | 82 | 1015.3 |
| 20260905165124 | 80 | 42 | 3.0 | 6.0 | 0.00 | 0.27 | 0.06 | 82 | 1015.3 |
| 20260905165036 | 80 | 42 | 4.0 | 6.0 | 0.00 | 0.27 | 0.06 | 83 | 1015.2 |
| 20260905164927 | 80 | 48 | 4.0 | 6.0 | 0.00 | 0.27 | 0.06 | 83 | 1015.3 |
| 20260905164819 | 80 | 37 | 3.0 | 6.0 | 0.00 | 0.27 | 0.06 | 84 | 1015.2 |
| 20260905164731 | 80 | 61 | 2.0 | 6.0 | 0.00 | 0.27 | 0.06 | 85 | 1015.3 |
| 20260905164657 | 80 | 35 | 2.0 | 5.0 | 0.00 | 0.27 | 0.06 | 84 | 1015.3 |
| 20260905164528 | 80 | 302 | 2.0 | 5.0 | 0.00 | 0.27 | 0.06 | 84 | 1015.3 |
| 20260905164441 | 80 | 302 | 2.0 | 5.0 | 0.00 | 0.27 | 0.06 | 84 | 1015.2 |
| 20260905164353 | 79 | 302 | 2.0 | 5.0 | 0.00 | 0.27 | 0.06 | 84 | 1015.2 |
| 20260905164244 | 79 | 337 | 3.0 | 5.0 | 0.00 | 0.27 | 0.06 | 85 | 1015.2 |
| 20260905164136 | 79 | 24 | 3.0 | 5.0 | 0.00 | 0.27 | 0.06 | 85 | 1015.2 |
| 20260905164029 | 79 | 5 | 3.0 | 5.0 | 0.00 | 0.27 | 0.06 | 84 | 1015.2 |
| 20260905163941 | 79 | 340 | 4.0 | 5.0 | 0.00 | 0.27 | 0.06 | 85 | 1015.2 |
| 20260905163832 | 79 | 17 | 2.0 | 5.0 | 0.00 | 0.27 | 0.06 | 85 | 1015.3 |
| 20260905163744 | 79 | 295 | 2.0 | 6.0 | 0.00 | 0.27 | 0.06 | 84 | 1015.3 |
| 20260905163634 | 79 | 295 | 3.0 | 6.0 | 0.00 | 0.27 | 0.06 | 84 | 1015.2 |
| 20260905163530 | 79 | 304 | 3.0 | 6.0 | 0.00 | 0.27 | 0.06 | 84 | 1015.3 |
| 20260905163442 | 79 | 286 | 3.0 | 6.0 | 0.00 | 0.27 | 0.06 | 84 | 1015.2 |
| 20260905163354 | 79 | 324 | 3.0 | 6.0 | 0.00 | 0.27 | 0.06 | 84 | 1015.2 |
| 20260905163306 | 79 | 302 | 3.0 | 6.0 | 0.00 | 0.27 | 0.06 | 84 | 1015.2 |
| 20260905163206 | 79 | 10 | 4.0 | 6.0 | 0.00 | 0.27 | 0.06 | 84 | 1015.2 |
| 20260905163057 | 80 | 333 | 5.0 | 6.0 | 0.00 | 0.27 | 0.06 | 84 | 1015.2 |
| 20260905162948 | 80 | 337 | 5.0 | 6.0 | 0.00 | 0.27 | 0.06 | 84 | 1015.3 |
| 20260905162839 | 80 | 340 | 4.0 | 6.0 | 0.00 | 0.27 | 0.06 | 85 | 1015.3 |
| 20260905162730 | 80 | 50 | 3.0 | 6.0 | 0.00 | 0.27 | 0.06 | 85 | 1015.3 |
| 20260905162622 | 80 | 351 | 3.0 | 6.0 | 0.00 | 0.27 | 0.06 | 85 | 1015.3 |
| 20260905162538 | 79 | 9 | 2.0 | 6.0 | 0.00 | 0.27 | 0.06 | 85 | 1015.2 |
| 20260905162431 | 79 | 117 | 2.0 | 6.0 | 0.00 | 0.27 | 0.06 | 85 | 1015.3 |
| 20260905162342 | 79 | 117 | 1.0 | 6.0 | 0.00 | 0.27 | 0.06 | 85 | 1015.2 |
| 20260905162254 | 79 | 49 | 1.0 | 6.0 | 0.00 | 0.27 | 0.06 | 85 | 1015.3 |
| 20260905162146 | 79 | 55 | 3.0 | 6.0 | 0.00 | 0.27 | 0.06 | 84 | 1015.3 |
| 20260905162038 | 79 | 62 | 4.0 | 6.0 | 0.00 | 0.27 | 0.06 | 84 | 1015.2 |
| 20260905161931 | 79 | 68 | 3.0 | 6.0 | 0.00 | 0.27 | 0.06 | 83 | 1015.3 |
| 20260905161843 | 79 | 92 | 2.0 | 4.0 | 0.00 | 0.27 | 0.06 | 83 | 1015.3 |
| 20260905161754 | 79 | 61 | 2.0 | 4.0 | 0.00 | 0.27 | 0.06 | 84 | 1015.3 |
| 20260905161656 | 79 | 61 | 2.0 | 4.0 | 0.00 | 0.27 | 0.06 | 84 | 1015.3 |
| 20260905161547 | 79 | 360 | 2.0 | 4.0 | 0.00 | 0.27 | 0.06 | 84 | 1015.3 |
| 20260905161421 | 79 | 360 | 2.0 | 5.0 | 0.00 | 0.27 | 0.06 | 83 | 1015.3 |
| 20260905161334 | 79 | 274 | 2.0 | 5.0 | 0.00 | 0.27 | 0.06 | 83 | 1015.2 |
| 20260905161226 | 79 | 274 | 2.0 | 5.0 | 0.00 | 0.27 | 0.06 | 83 | 1015.2 |
| 20260905161138 | 79 | 344 | 2.0 | 5.0 | 0.00 | 0.27 | 0.06 | 83 | 1015.1 |
| 20260905161031 | 79 | 305 | 2.0 | 5.0 | 0.00 | 0.27 | 0.06 | 84 | 1015.1 |
| 20260905160922 | 79 | 325 | 2.0 | 5.0 | 0.00 | 0.27 | 0.06 | 84 | 1015.1 |
| 20260905160833 | 79 | 313 | 2.0 | 5.0 | 0.00 | 0.27 | 0.06 | 84 | 1015.1 |
| 20260905160725 | 79 | 9 | 3.0 | 5.0 | 0.00 | 0.27 | 0.06 | 84 | 1015.2 |
| 20260905160621 | 79 | 5 | 3.0 | 5.0 | 0.00 | 0.27 | 0.06 | 84 | 1015.1 |
| 20260905160532 | 79 | 47 | 3.0 | 5.0 | 0.00 | 0.27 | 0.06 | 85 | 1015.1 |
| 20260905160424 | 79 | 49 | 2.0 | 5.0 | 0.00 | 0.27 | 0.06 | 85 | 1015.1 |
| 20260905160337 | 79 | 67 | 2.0 | 5.0 | 0.00 | 0.27 | 0.06 | 86 | 1015.1 |
| 20260905160227 | 79 | 67 | 3.0 | 5.0 | 0.00 | 0.27 | 0.06 | 86 | 1015.1 |
| 20260905160148 | 79 | 67 | 3.0 | 5.0 | 0.00 | 0.27 | 0.06 | 86 | 1015.1 |
| 20260905160021 | 79 | 42 | 2.0 | 5.0 | 0.00 | 0.27 | 0.06 | 86 | 1015.2 |
| 20260905155933 | 79 | 30 | 1.0 | 5.0 | 0.00 | 0.27 | 0.06 | 86 | 1015.2 |
| 20260905155827 | 79 | 53 | 3.0 | 5.0 | 0.00 | 0.27 | 0.06 | 86 | 1015.2 |
| 20260905155720 | 79 | 53 | 3.0 | 5.0 | 0.00 | 0.27 | 0.06 | 87 | 1015.3 |
| 20260905155632 | 79 | 5 | 1.0 | 5.0 | 0.00 | 0.27 | 0.06 | 87 | 1015.3 |
| 20260905155543 | 79 | 73 | 1.0 | 6.0 | 0.00 | 0.27 | 0.06 | 87 | 1015.3 |
| 20260905155455 | 79 | 80 | 1.0 | 6.0 | 0.00 | 0.27 | 0.06 | 87 | 1015.3 |
| 20260905155346 | 79 | 69 | 1.0 | 6.0 | 0.00 | 0.27 | 0.06 | 88 | 1015.3 |
| 20260905155257 | 78 | 53 | 1.0 | 6.0 | 0.00 | 0.27 | 0.06 | 87 | 1015.3 |
| 20260905155147 | 78 | 53 | 2.0 | 6.0 | 0.00 | 0.27 | 0.06 | 88 | 1015.3 |
| 20260905155019 | 78 | 53 | 4.0 | 6.0 | 0.00 | 0.27 | 0.06 | 88 | 1015.3 |
| 20260905154931 | 78 | 34 | 4.0 | 6.0 | 0.00 | 0.27 | 0.06 | 88 | 1015.2 |
| 20260905154827 | 78 | 34 | 4.0 | 6.0 | 0.00 | 0.27 | 0.06 | 88 | 1015.3 |
| 20260905154738 | 78 | 348 | 3.0 | 6.0 | 0.00 | 0.27 | 0.06 | 88 | 1015.2 |
| 20260905154659 | 78 | 24 | 3.0 | 6.0 | 0.00 | 0.27 | 0.06 | 88 | 1015.2 |
| 20260905154531 | 78 | 12 | 3.0 | 6.0 | 0.00 | 0.27 | 0.06 | 88 | 1015.1 |
| 20260905154444 | 78 | 355 | 2.0 | 6.0 | 0.00 | 0.27 | 0.06 | 88 | 1015.2 |
| 20260905154356 | 78 | 17 | 3.0 | 6.0 | 0.00 | 0.27 | 0.06 | 88 | 1015.2 |
| 20260905154247 | 78 | 17 | 3.0 | 6.0 | 0.00 | 0.27 | 0.06 | 89 | 1015.2 |
| 20260905154137 | 78 | 75 | 3.0 | 6.0 | 0.00 | 0.27 | 0.06 | 89 | 1015.2 |
| 20260905154028 | 78 | 68 | 3.0 | 5.0 | 0.00 | 0.27 | 0.06 | 90 | 1015.2 |
| 20260905153940 | 78 | 83 | 3.0 | 4.0 | 0.00 | 0.27 | 0.06 | 89 | 1015.2 |
| 20260905153853 | 78 | 28 | 2.0 | 4.0 | 0.00 | 0.27 | 0.06 | 89 | 1015.2 |
| 20260905153809 | 78 | 118 | 1.0 | 3.0 | 0.00 | 0.27 | 0.06 | 89 | 1015.3 |
| 20260905153700 | 78 | 118 | 0.0 | 4.0 | 0.00 | 0.27 | 0.06 | 89 | 1015.2 |
| 20260905153531 | 78 | 118 | 0.0 | 6.0 | 0.00 | 0.27 | 0.06 | 89 | 1015.3 |
| 20260905153424 | 78 | 118 | 1.0 | 6.0 | 0.00 | 0.27 | 0.06 | 89 | 1015.3 |
| 20260905153336 | 78 | 118 | 2.0 | 8.0 | 0.00 | 0.27 | 0.06 | 89 | 1015.3 |
| 20260905153246 | 78 | 118 | 2.0 | 8.0 | 0.00 | 0.27 | 0.06 | 89 | 1015.3 |
| 20260905153147 | 78 | 118 | 1.0 | 8.0 | 0.00 | 0.27 | 0.06 | 89 | 1015.2 |
| 20260905153039 | 78 | 118 | 0.0 | 8.0 | 0.00 | 0.27 | 0.06 | 89 | 1015.2 |
| 20260905152952 | 78 | 118 | 2.0 | 8.0 | 0.00 | 0.27 | 0.06 | 89 | 1015.2 |
| 20260905152822 | 78 | 118 | 4.0 | 8.0 | 0.00 | 0.27 | 0.06 | 90 | 1015.2 |
| 20260905152719 | 78 | 98 | 5.0 | 8.0 | 0.00 | 0.27 | 0.06 | 90 | 1015.1 |
| 20260905152630 | 78 | 96 | 5.0 | 8.0 | 0.00 | 0.27 | 0.06 | 90 | 1015.1 |
| 20260905152522 | 78 | 116 | 2.0 | 8.0 | 0.00 | 0.27 | 0.06 | 91 | 1015.1 |
| 20260905152434 | 78 | 5 | 1.0 | 8.0 | 0.00 | 0.27 | 0.06 | 91 | 1015.1 |
| 20260905152326 | 77 | 67 | 1.0 | 8.0 | 0.00 | 0.27 | 0.06 | 91 | 1015.1 |
| 20260905152238 | 77 | 67 | 3.0 | 8.0 | 0.00 | 0.27 | 0.06 | 91 | 1015.1 |
| 20260905152150 | 77 | 73 | 3.0 | 8.0 | 0.00 | 0.27 | 0.06 | 91 | 1015.2 |
| 20260905152022 | 77 | 124 | 2.0 | 6.0 | 0.00 | 0.27 | 0.06 | 92 | 1015.1 |
| 20260905151919 | 77 | 146 | 2.0 | 6.0 | 0.00 | 0.27 | 0.06 | 91 | 1015.1 |
| 20260905151831 | 77 | 146 | 3.0 | 6.0 | 0.00 | 0.27 | 0.06 | 91 | 1015.1 |
| 20260905151742 | 77 | 146 | 3.0 | 6.0 | 0.00 | 0.27 | 0.06 | 92 | 1015.0 |
| 20260905151704 | 77 | 146 | 3.0 | 6.0 | 0.00 | 0.27 | 0.06 | 91 | 1015.0 |
| 20260905151556 | 77 | 92 | 2.0 | 6.0 | 0.00 | 0.27 | 0.06 | 91 | 1015.0 |
| 20260905151447 | 77 | 92 | 3.0 | 6.0 | 0.00 | 0.27 | 0.06 | 92 | 1014.9 |
| 20260905151359 | 77 | 92 | 4.0 | 6.0 | 0.00 | 0.27 | 0.06 | 91 | 1015.0 |
| 20260905151230 | 77 | 89 | 4.0 | 6.0 | 0.00 | 0.27 | 0.06 | 91 | 1014.9 |
| 20260905151123 | 77 | 96 | 4.0 | 6.0 | 0.00 | 0.27 | 0.06 | 92 | 1015.0 |
| 20260905151036 | 77 | 87 | 3.0 | 6.0 | 0.00 | 0.27 | 0.06 | 92 | 1015.0 |
| 20260905150932 | 77 | 70 | 2.0 | 4.0 | 0.00 | 0.27 | 0.06 | 93 | 1015.0 |
| 20260905150845 | 76 | 87 | 2.0 | 4.0 | 0.00 | 0.27 | 0.06 | 93 | 1015.1 |
| 20260905150757 | 76 | 87 | 3.0 | 4.0 | 0.00 | 0.27 | 0.06 | 93 | 1015.1 |
| 20260905150710 | 76 | 97 | 3.0 | 4.0 | 0.00 | 0.27 | 0.06 | 93 | 1015.0 |
| 20260905150600 | 76 | 106 | 2.0 | 4.0 | 0.00 | 0.27 | 0.06 | 94 | 1015.0 |
| 20260905150432 | 76 | 121 | 1.0 | 4.0 | 0.00 | 0.27 | 0.06 | 94 | 1015.0 |
| 20260905150323 | 76 | 121 | 1.0 | 4.0 | 0.00 | 0.27 | 0.06 | 93 | 1015.0 |
| 20260905150234 | 76 | 121 | 2.0 | 8.0 | 0.00 | 0.27 | 0.06 | 93 | 1015.0 |
| 20260905150157 | 75 | 121 | 2.0 | 8.0 | 0.00 | 0.27 | 0.06 | 93 | 1015.0 |
| 20260905150028 | 75 | 121 | 1.0 | 8.0 | 0.00 | 0.27 | 0.06 | 93 | 1015.0 |
| 20260905145925 | 75 | 116 | 0.0 | 8.0 | 0.00 | 0.27 | 0.06 | 93 | 1015.0 |
| 20260905145835 | 75 | 128 | 0.0 | 8.0 | 0.00 | 0.27 | 0.06 | 93 | 1015.0 |
| 20260905145747 | 75 | 113 | 0.0 | 8.0 | 0.00 | 0.27 | 0.06 | 93 | 1015.0 |
| 20260905145637 | 75 | 113 | 0.0 | 8.0 | 0.00 | 0.27 | 0.06 | 92 | 1015.0 |
| 20260905145529 | 75 | 153 | 1.0 | 8.0 | 0.00 | 0.27 | 0.06 | 92 | 1015.0 |
| 20260905145441 | 75 | 153 | 3.0 | 8.0 | 0.00 | 0.27 | 0.06 | 93 | 1015.0 |
| 20260905145332 | 75 | 152 | 4.0 | 8.0 | 0.00 | 0.27 | 0.06 | 93 | 1015.0 |
| 20260905145225 | 75 | 109 | 4.0 | 4.0 | 0.00 | 0.27 | 0.06 | 93 | 1015.1 |
| 20260905145137 | 75 | 109 | 3.0 | 4.0 | 0.00 | 0.27 | 0.06 | 93 | 1015.0 |
| 20260905145033 | 75 | 109 | 2.0 | 4.0 | 0.00 | 0.27 | 0.06 | 93 | 1015.0 |
| 20260905144925 | 75 | 106 | 1.0 | 3.0 | 0.00 | 0.27 | 0.06 | 94 | 1015.0 |
| 20260905144838 | 75 | 139 | 2.0 | 5.0 | 0.00 | 0.27 | 0.06 | 94 | 1015.0 |
| 20260905144730 | 75 | 139 | 2.0 | 5.0 | 0.00 | 0.27 | 0.06 | 94 | 1014.9 |
| 20260905144652 | 75 | 139 | 2.0 | 5.0 | 0.00 | 0.27 | 0.06 | 94 | 1014.9 |
| 20260905144523 | 75 | 139 | 1.0 | 5.0 | 0.00 | 0.27 | 0.06 | 94 | 1014.9 |
| 20260905144435 | 75 | 139 | 1.0 | 5.0 | 0.00 | 0.27 | 0.06 | 94 | 1014.9 |
| 20260905144326 | 75 | 139 | 1.0 | 5.0 | 0.00 | 0.27 | 0.06 | 94 | 1014.9 |
| 20260905144238 | 75 | 139 | 1.0 | 5.0 | 0.00 | 0.27 | 0.06 | 94 | 1014.9 |
| 20260905144153 | 75 | 139 | 3.0 | 5.0 | 0.00 | 0.27 | 0.06 | 94 | 1014.9 |
| 20260905144044 | 75 | 139 | 4.0 | 6.0 | 0.00 | 0.27 | 0.06 | 94 | 1014.9 |
| 20260905143936 | 75 | 119 | 3.0 | 6.0 | 0.00 | 0.27 | 0.06 | 94 | 1015.0 |
| 20260905143829 | 75 | 123 | 3.0 | 5.0 | 0.00 | 0.27 | 0.06 | 94 | 1015.0 |
| 20260905143722 | 75 | 106 | 2.0 | 4.0 | 0.00 | 0.27 | 0.06 | 94 | 1015.0 |
| 20260905143634 | 75 | 106 | 2.0 | 4.0 | 0.00 | 0.27 | 0.06 | 94 | 1015.0 |
| 20260905143526 | 75 | 106 | 3.0 | 4.0 | 0.00 | 0.27 | 0.06 | 94 | 1015.0 |
| 20260905143438 | 75 | 106 | 3.0 | 4.0 | 0.00 | 0.27 | 0.06 | 94 | 1015.1 |
| 20260905143330 | 75 | 106 | 2.0 | 4.0 | 0.00 | 0.27 | 0.06 | 94 | 1015.1 |
| 20260905143223 | 74 | 106 | 2.0 | 4.0 | 0.00 | 0.27 | 0.06 | 94 | 1015.1 |
| 20260905143145 | 74 | 106 | 2.0 | 7.0 | 0.00 | 0.27 | 0.06 | 94 | 1015.1 |
| 20260905143037 | 74 | 106 | 3.0 | 7.0 | 0.00 | 0.27 | 0.06 | 94 | 1015.0 |
| 20260905142946 | 74 | 106 | 2.0 | 7.0 | 0.00 | 0.27 | 0.06 | 95 | 1014.9 |
| 20260905142858 | 74 | 146 | 2.0 | 7.0 | 0.00 | 0.27 | 0.06 | 95 | 1015.0 |
| 20260905142729 | 74 | 146 | 2.0 | 7.0 | 0.00 | 0.27 | 0.06 | 95 | 1015.0 |
| 20260905142621 | 74 | 146 | 3.0 | 7.0 | 0.00 | 0.27 | 0.06 | 95 | 1015.0 |
| 20260905142534 | 74 | 146 | 3.0 | 7.0 | 0.00 | 0.27 | 0.06 | 95 | 1015.0 |
| 20260905142425 | 74 | 138 | 4.0 | 7.0 | 0.00 | 0.27 | 0.06 | 95 | 1015.0 |
| 20260905142336 | 74 | 138 | 4.0 | 7.0 | 0.00 | 0.27 | 0.06 | 95 | 1015.1 |
| 20260905142248 | 74 | 138 | 3.0 | 7.0 | 0.00 | 0.27 | 0.06 | 95 | 1015.1 |
| 20260905142143 | 74 | 125 | 4.0 | 7.0 | 0.00 | 0.27 | 0.06 | 95 | 1015.1 |
| 20260905142034 | 74 | 125 | 4.0 | 7.0 | 0.00 | 0.27 | 0.06 | 95 | 1015.1 |
| 20260905141927 | 74 | 125 | 4.0 | 7.0 | 0.00 | 0.27 | 0.06 | 95 | 1015.1 |
| 20260905141839 | 74 | 119 | 4.0 | 7.0 | 0.00 | 0.27 | 0.06 | 95 | 1015.1 |
| 20260905141740 | 74 | 100 | 3.0 | 7.0 | 0.00 | 0.27 | 0.06 | 95 | 1015.1 |
| 20260905141642 | 74 | 100 | 4.0 | 7.0 | 0.00 | 0.27 | 0.06 | 95 | 1015.0 |
| 20260905141534 | 74 | 100 | 4.0 | 7.0 | 0.00 | 0.27 | 0.06 | 96 | 1015.0 |
| 20260905141426 | 74 | 130 | 4.0 | 7.0 | 0.00 | 0.27 | 0.06 | 96 | 1015.0 |
| 20260905141339 | 74 | 109 | 4.0 | 7.0 | 0.00 | 0.27 | 0.06 | 96 | 1015.1 |
| 20260905141235 | 74 | 133 | 4.0 | 7.0 | 0.00 | 0.27 | 0.06 | 95 | 1015.0 |
| 20260905141127 | 74 | 124 | 1.0 | 6.0 | 0.00 | 0.27 | 0.06 | 97 | 1015.1 |
| 20260905141020 | 74 | 83 | 0.0 | 3.0 | 0.00 | 0.27 | 0.06 | 97 | 1015.0 |
| 20260905140932 | 74 | 83 | 0.0 | 3.0 | 0.00 | 0.27 | 0.06 | 97 | 1015.1 |
| 20260905140824 | 74 | 83 | 0.0 | 3.0 | 0.00 | 0.27 | 0.06 | 97 | 1015.1 |
| 20260905140737 | 74 | 83 | 0.0 | 3.0 | 0.00 | 0.27 | 0.06 | 97 | 1015.1 |
| 20260905140648 | 74 | 83 | 0.0 | 3.0 | 0.00 | 0.27 | 0.06 | 97 | 1015.1 |
| 20260905140520 | 73 | 83 | 0.0 | 4.0 | 0.00 | 0.27 | 0.06 | 96 | 1015.1 |
| 20260905140431 | 73 | 83 | 0.0 | 4.0 | 0.00 | 0.27 | 0.06 | 96 | 1015.1 |
| 20260905140348 | 73 | 83 | 1.0 | 4.0 | 0.00 | 0.27 | 0.06 | 96 | 1015.0 |
| 20260905140237 | 73 | 83 | 2.0 | 4.0 | 0.00 | 0.27 | 0.06 | 96 | 1015.0 |
| 20260905140159 | 73 | 83 | 2.0 | 4.0 | 0.00 | 0.27 | 0.06 | 96 | 1015.0 |
| 20260905140031 | 73 | 83 | 3.0 | 4.0 | 0.00 | 0.27 | 0.06 | 96 | 1015.1 |
| 20260905135923 | 73 | 83 | 2.0 | 4.0 | 0.00 | 0.27 | 0.06 | 96 | 1015.1 |
| 20260905135836 | 73 | 83 | 2.0 | 4.0 | 0.00 | 0.27 | 0.06 | 96 | 1015.1 |
| 20260905135729 | 73 | 83 | 2.0 | 4.0 | 0.00 | 0.27 | 0.06 | 96 | 1015.0 |
| 20260905135620 | 73 | 83 | 2.0 | 6.0 | 0.00 | 0.27 | 0.06 | 97 | 1015.1 |
| 20260905135531 | 73 | 53 | 1.0 | 7.0 | 0.00 | 0.27 | 0.06 | 97 | 1015.0 |
| 20260905135447 | 73 | 74 | 1.0 | 7.0 | 0.00 | 0.27 | 0.06 | 97 | 1015.0 |
| 20260905135359 | 73 | 74 | 2.0 | 7.0 | 0.00 | 0.27 | 0.06 | 97 | 1015.0 |
| 20260905135251 | 73 | 68 | 3.0 | 7.0 | 0.00 | 0.27 | 0.06 | 96 | 1015.0 |
| 20260905135122 | 73 | 104 | 3.0 | 7.0 | 0.00 | 0.27 | 0.06 | 96 | 1015.0 |
| 20260905135034 | 73 | 92 | 3.0 | 7.0 | 0.00 | 0.27 | 0.06 | 96 | 1015.0 |
| 20260905134946 | 73 | 67 | 4.0 | 7.0 | 0.00 | 0.27 | 0.06 | 96 | 1015.0 |
| 20260905134838 | 73 | 97 | 4.0 | 7.0 | 0.00 | 0.27 | 0.06 | 96 | 1014.9 |
| 20260905134750 | 73 | 92 | 4.0 | 7.0 | 0.00 | 0.27 | 0.06 | 96 | 1014.9 |
| 20260905134712 | 74 | 101 | 3.0 | 6.0 | 0.00 | 0.27 | 0.06 | 97 | 1014.9 |
| 20260905134544 | 74 | 65 | 3.0 | 5.0 | 0.00 | 0.27 | 0.06 | 97 | 1014.9 |
| 20260905134435 | 74 | 89 | 3.0 | 5.0 | 0.00 | 0.27 | 0.06 | 97 | 1014.9 |
| 20260905134347 | 74 | 87 | 3.0 | 5.0 | 0.00 | 0.27 | 0.06 | 97 | 1014.9 |
| 20260905134242 | 74 | 80 | 3.0 | 5.0 | 0.00 | 0.27 | 0.06 | 97 | 1014.9 |
| 20260905134133 | 74 | 76 | 3.0 | 5.0 | 0.00 | 0.27 | 0.06 | 97 | 1015.0 |
| 20260905134045 | 74 | 71 | 3.0 | 5.0 | 0.00 | 0.27 | 0.06 | 97 | 1014.9 |
| 20260905133957 | 74 | 86 | 4.0 | 5.0 | 0.00 | 0.27 | 0.06 | 97 | 1014.9 |
| 20260905133848 | 74 | 83 | 3.0 | 5.0 | 0.00 | 0.27 | 0.06 | 97 | 1014.9 |
| 20260905133800 | 74 | 67 | 3.0 | 5.0 | 0.00 | 0.27 | 0.06 | 97 | 1015.0 |
| 20260905133632 | 74 | 67 | 3.0 | 6.0 | 0.00 | 0.27 | 0.06 | 97 | 1015.0 |
| 20260905133545 | 74 | 84 | 3.0 | 6.0 | 0.00 | 0.27 | 0.06 | 97 | 1014.9 |
| 20260905133458 | 74 | 71 | 3.0 | 6.0 | 0.00 | 0.27 | 0.06 | 97 | 1014.9 |
| 20260905133411 | 73 | 69 | 3.0 | 5.0 | 0.00 | 0.27 | 0.06 | 97 | 1014.9 |
| 20260905133301 | 73 | 82 | 3.0 | 4.0 | 0.00 | 0.27 | 0.06 | 97 | 1014.9 |
| 20260905133140 | 74 | 105 | 3.0 | 4.0 | 0.00 | 0.27 | 0.06 | 97 | 1015.0 |
| 20260905133035 | 73 | 61 | 2.0 | 4.0 | 0.00 | 0.27 | 0.06 | 97 | 1015.0 |
| 20260905132927 | 73 | 65 | 2.0 | 4.0 | 0.00 | 0.27 | 0.06 | 97 | 1015.0 |
| 20260905132838 | 73 | 97 | 2.0 | 4.0 | 0.00 | 0.27 | 0.06 | 97 | 1014.9 |
| 20260905132730 | 73 | 97 | 3.0 | 4.0 | 0.00 | 0.27 | 0.06 | 97 | 1015.0 |
| 20260905132623 | 73 | 91 | 3.0 | 4.0 | 0.00 | 0.27 | 0.06 | 97 | 1014.9 |
| 20260905132535 | 73 | 74 | 2.0 | 4.0 | 0.00 | 0.27 | 0.06 | 98 | 1015.0 |
| 20260905132447 | 73 | 60 | 2.0 | 4.0 | 0.00 | 0.27 | 0.06 | 98 | 1014.9 |
| 20260905132338 | 73 | 93 | 2.0 | 5.0 | 0.00 | 0.27 | 0.06 | 98 | 1014.9 |
| 20260905132230 | 73 | 131 | 2.0 | 5.0 | 0.00 | 0.27 | 0.06 | 98 | 1015.0 |
| 20260905132126 | 73 | 131 | 2.0 | 5.0 | 0.00 | 0.27 | 0.06 | 98 | 1014.9 |
| 20260905132038 | 73 | 131 | 2.0 | 5.0 | 0.00 | 0.27 | 0.06 | 98 | 1014.9 |
| 20260905131930 | 73 | 131 | 3.0 | 5.0 | 0.00 | 0.27 | 0.06 | 98 | 1014.8 |
| 20260905131821 | 73 | 131 | 3.0 | 5.0 | 0.00 | 0.27 | 0.06 | 98 | 1014.8 |
| 20260905131734 | 73 | 131 | 3.0 | 5.0 | 0.00 | 0.27 | 0.06 | 98 | 1014.7 |
| 20260905131657 | 73 | 131 | 3.0 | 5.0 | 0.00 | 0.27 | 0.06 | 98 | 1014.7 |
| 20260905131528 | 73 | 131 | 3.0 | 5.0 | 0.00 | 0.27 | 0.06 | 98 | 1014.7 |
| 20260905131439 | 73 | 131 | 2.0 | 5.0 | 0.00 | 0.27 | 0.06 | 98 | 1014.7 |
| 20260905131332 | 73 | 131 | 2.0 | 5.0 | 0.00 | 0.27 | 0.06 | 98 | 1014.7 |
| 20260905131229 | 73 | 131 | 3.0 | 5.0 | 0.00 | 0.27 | 0.06 | 98 | 1014.8 |
| 20260905131141 | 73 | 131 | 2.0 | 5.0 | 0.00 | 0.27 | 0.06 | 99 | 1014.8 |
| 20260905131033 | 73 | 108 | 2.0 | 4.0 | 0.00 | 0.27 | 0.06 | 99 | 1014.8 |
| 20260905130924 | 73 | 108 | 2.0 | 4.0 | 0.00 | 0.27 | 0.06 | 99 | 1014.8 |
| 20260905130835 | 73 | 108 | 2.0 | 4.0 | 0.00 | 0.27 | 0.06 | 98 | 1014.8 |
| 20260905130727 | 73 | 91 | 3.0 | 4.0 | 0.00 | 0.27 | 0.06 | 98 | 1014.8 |
| 20260905130619 | 73 | 113 | 3.0 | 4.0 | 0.00 | 0.27 | 0.06 | 98 | 1014.7 |
| 20260905130532 | 73 | 113 | 3.0 | 4.0 | 0.00 | 0.27 | 0.06 | 98 | 1014.7 |
| 20260905130426 | 73 | 99 | 3.0 | 3.0 | 0.00 | 0.27 | 0.06 | 99 | 1014.7 |
| 20260905130340 | 73 | 119 | 2.0 | 3.0 | 0.00 | 0.27 | 0.06 | 99 | 1014.7 |
| 20260905130230 | 73 | 122 | 2.0 | 4.0 | 0.00 | 0.27 | 0.06 | 99 | 1014.7 |
| 20260905130151 | 73 | 122 | 2.0 | 4.0 | 0.00 | 0.27 | 0.06 | 99 | 1014.7 |
| 20260905130022 | 73 | 122 | 1.0 | 4.0 | 0.00 | 0.27 | 0.06 | 99 | 1014.6 |
| 20260905125934 | 72 | 122 | 0.0 | 4.0 | 0.00 | 0.27 | 0.06 | 98 | 1014.8 |
| 20260905125826 | 72 | 122 | 0.0 | 4.0 | 0.00 | 0.27 | 0.06 | 98 | 1014.7 |
| 20260905125739 | 72 | 122 | 0.0 | 4.0 | 0.00 | 0.27 | 0.06 | 98 | 1014.8 |
| 20260905125631 | 72 | 122 | 0.0 | 4.0 | 0.00 | 0.27 | 0.06 | 98 | 1014.7 |
| 20260905125527 | 72 | 122 | 2.0 | 4.0 | 0.00 | 0.27 | 0.06 | 98 | 1014.8 |
| 20260905125419 | 72 | 122 | 2.0 | 4.0 | 0.00 | 0.27 | 0.06 | 98 | 1014.7 |
| 20260905125332 | 72 | 100 | 2.0 | 4.0 | 0.00 | 0.27 | 0.06 | 98 | 1014.7 |
| 20260905125224 | 72 | 100 | 1.0 | 4.0 | 0.00 | 0.27 | 0.06 | 98 | 1014.8 |
| 20260905125138 | 72 | 100 | 0.0 | 4.0 | 0.00 | 0.27 | 0.06 | 98 | 1014.8 |
| 20260905125030 | 72 | 68 | 0.0 | 4.0 | 0.00 | 0.27 | 0.06 | 98 | 1014.8 |
| 20260905124921 | 72 | 57 | 0.0 | 4.0 | 0.00 | 0.27 | 0.06 | 98 | 1014.7 |
| 20260905124834 | 72 | 70 | 0.0 | 4.0 | 0.00 | 0.27 | 0.06 | 98 | 1014.7 |
| 20260905124727 | 72 | 48 | 0.0 | 5.0 | 0.00 | 0.27 | 0.06 | 98 | 1014.8 |
| 20260905124649 | 72 | 48 | 1.0 | 5.0 | 0.00 | 0.27 | 0.06 | 98 | 1014.8 |
| 20260905124520 | 72 | 49 | 2.0 | 5.0 | 0.00 | 0.27 | 0.06 | 98 | 1014.8 |
| 20260905124433 | 72 | 57 | 2.0 | 5.0 | 0.00 | 0.27 | 0.06 | 98 | 1014.9 |
| 20260905124346 | 72 | 51 | 1.0 | 5.0 | 0.00 | 0.27 | 0.06 | 98 | 1014.9 |
| 20260905124257 | 72 | 55 | 2.0 | 5.0 | 0.00 | 0.27 | 0.06 | 98 | 1014.8 |
| 20260905124128 | 72 | 57 | 3.0 | 5.0 | 0.00 | 0.27 | 0.06 | 98 | 1014.9 |
| 20260905124039 | 72 | 81 | 2.0 | 5.0 | 0.00 | 0.27 | 0.06 | 98 | 1014.9 |
| 20260905123951 | 72 | 71 | 1.0 | 5.0 | 0.00 | 0.27 | 0.06 | 98 | 1014.9 |
| 20260905123843 | 72 | 71 | 2.0 | 5.0 | 0.00 | 0.27 | 0.06 | 98 | 1014.9 |
| 20260905123756 | 72 | 71 | 3.0 | 5.0 | 0.00 | 0.27 | 0.06 | 98 | 1014.9 |
| 20260905123651 | 72 | 61 | 2.0 | 4.0 | 0.00 | 0.27 | 0.06 | 98 | 1014.9 |
| 20260905123603 | 72 | 88 | 2.0 | 7.0 | 0.00 | 0.27 | 0.06 | 98 | 1014.8 |
| 20260905123516 | 72 | 62 | 2.0 | 7.0 | 0.00 | 0.27 | 0.06 | 98 | 1014.9 |
| 20260905123428 | 72 | 76 | 2.0 | 7.0 | 0.00 | 0.27 | 0.06 | 98 | 1014.8 |
| 20260905123319 | 72 | 92 | 3.0 | 7.0 | 0.00 | 0.27 | 0.06 | 98 | 1014.8 |
| 20260905123158 | 72 | 96 | 2.0 | 7.0 | 0.00 | 0.27 | 0.06 | 98 | 1014.7 |
| 20260905123030 | 72 | 102 | 2.0 | 7.0 | 0.00 | 0.27 | 0.06 | 98 | 1014.7 |
| 20260905122923 | 72 | 105 | 4.0 | 7.0 | 0.00 | 0.27 | 0.06 | 98 | 1014.7 |
| 20260905122836 | 72 | 97 | 4.0 | 7.0 | 0.00 | 0.27 | 0.06 | 98 | 1014.8 |
| 20260905122729 | 72 | 101 | 3.0 | 6.0 | 0.00 | 0.27 | 0.06 | 98 | 1014.7 |
| 20260905122624 | 72 | 98 | 4.0 | 6.0 | 0.00 | 0.27 | 0.06 | 98 | 1014.7 |
| 20260905122536 | 72 | 91 | 3.0 | 6.0 | 0.00 | 0.27 | 0.06 | 98 | 1014.6 |
| 20260905122429 | 72 | 94 | 3.0 | 6.0 | 0.00 | 0.27 | 0.06 | 98 | 1014.6 |
| 20260905122320 | 72 | 114 | 4.0 | 6.0 | 0.00 | 0.27 | 0.06 | 98 | 1014.6 |
| 20260905122232 | 72 | 100 | 4.0 | 6.0 | 0.00 | 0.27 | 0.06 | 98 | 1014.5 |
| 20260905122125 | 72 | 95 | 3.0 | 6.0 | 0.00 | 0.27 | 0.06 | 98 | 1014.5 |
| 20260905122036 | 72 | 123 | 3.0 | 4.0 | 0.00 | 0.27 | 0.06 | 98 | 1014.5 |
| 20260905121929 | 72 | 122 | 2.0 | 4.0 | 0.00 | 0.27 | 0.06 | 98 | 1014.6 |
| 20260905121845 | 72 | 116 | 2.0 | 4.0 | 0.00 | 0.27 | 0.06 | 98 | 1014.4 |
| 20260905121757 | 72 | 96 | 3.0 | 4.0 | 0.00 | 0.27 | 0.06 | 98 | 1014.4 |
| 20260905121659 | 72 | 96 | 2.0 | 4.0 | 0.00 | 0.27 | 0.06 | 98 | 1014.4 |
| 20260905121530 | 72 | 88 | 1.0 | 4.0 | 0.00 | 0.27 | 0.06 | 98 | 1014.4 |
| 20260905121422 | 72 | 88 | 1.0 | 4.0 | 0.00 | 0.27 | 0.06 | 98 | 1014.3 |
| 20260905121335 | 72 | 88 | 2.0 | 4.0 | 0.00 | 0.27 | 0.06 | 98 | 1014.3 |
| 20260905121227 | 72 | 101 | 2.0 | 4.0 | 0.00 | 0.27 | 0.06 | 98 | 1014.3 |
| 20260905121139 | 72 | 80 | 3.0 | 4.0 | 0.00 | 0.27 | 0.06 | 98 | 1014.4 |
| 20260905121031 | 72 | 109 | 3.0 | 4.0 | 0.00 | 0.27 | 0.06 | 98 | 1014.4 |
| 20260905120928 | 72 | 90 | 3.0 | 4.0 | 0.00 | 0.27 | 0.06 | 98 | 1014.2 |
| 20260905120840 | 72 | 119 | 3.0 | 4.0 | 0.00 | 0.27 | 0.06 | 98 | 1014.3 |
| 20260905120753 | 72 | 88 | 1.0 | 4.0 | 0.00 | 0.27 | 0.06 | 98 | 1014.3 |
| 20260905120624 | 72 | 87 | 0.0 | 0.0 | 0.00 | 0.27 | 0.06 | 98 | 1014.3 |
| 20260905120535 | 72 | 87 | 0.0 | 0.0 | 0.00 | 0.27 | 0.06 | 98 | 1014.3 |
| 20260905120448 | 72 | 87 | 0.0 | 0.0 | 0.00 | 0.27 | 0.06 | 98 | 1014.3 |
| 20260905120400 | 72 | 87 | 0.0 | 0.0 | 0.00 | 0.27 | 0.06 | 98 | 1014.3 |
| 20260905120231 | 72 | 87 | 0.0 | 0.0 | 0.00 | 0.27 | 0.06 | 98 | 1014.3 |
| 20260905120153 | 72 | 87 | 0.0 | 0.0 | 0.00 | 0.27 | 0.06 | 98 | 1014.3 |
| 20260905120044 | 72 | 87 | 0.0 | 0.0 | 0.00 | 0.27 | 0.06 | 98 | 1014.2 |
| 20260905115938 | 72 | 87 | 0.0 | 0.0 | 0.00 | 0.27 | 0.06 | 98 | 1014.2 |
| 20260905115849 | 72 | 87 | 0.0 | 0.0 | 0.00 | 0.27 | 0.06 | 98 | 1014.2 |
| 20260905115741 | 72 | 87 | 0.0 | 0.0 | 0.00 | 0.27 | 0.06 | 98 | 1014.2 |
| 20260905115653 | 72 | 61 | 0.0 | 0.0 | 0.00 | 0.27 | 0.06 | 98 | 1014.2 |
| 20260905115606 | 72 | 86 | 0.0 | 1.0 | 0.00 | 0.27 | 0.06 | 98 | 1014.1 |
| 20260905115456 | 72 | 72 | 0.0 | 3.0 | 0.00 | 0.27 | 0.06 | 98 | 1014.1 |
| 20260905115328 | 72 | 72 | 0.0 | 3.0 | 0.00 | 0.27 | 0.06 | 98 | 1014.1 |
| 20260905115220 | 72 | 72 | 0.0 | 3.0 | 0.00 | 0.27 | 0.06 | 98 | 1014.0 |
| 20260905115133 | 72 | 72 | 0.0 | 3.0 | 0.00 | 0.27 | 0.06 | 98 | 1014.0 |
| 20260905115045 | 72 | 72 | 0.0 | 4.0 | 0.00 | 0.27 | 0.06 | 98 | 1014.0 |
| 20260905114935 | 72 | 95 | 0.0 | 4.0 | 0.00 | 0.27 | 0.06 | 98 | 1013.9 |
| 20260905114830 | 72 | 95 | 1.0 | 4.0 | 0.00 | 0.27 | 0.06 | 98 | 1013.9 |
| 20260905114741 | 72 | 63 | 2.0 | 4.0 | 0.00 | 0.27 | 0.06 | 98 | 1013.9 |
| 20260905114641 | 72 | 63 | 1.0 | 4.0 | 0.00 | 0.27 | 0.06 | 98 | 1013.8 |
| 20260905114533 | 72 | 63 | 0.0 | 4.0 | 0.00 | 0.27 | 0.06 | 98 | 1013.9 |
| 20260905114425 | 72 | 86 | 1.0 | 4.0 | 0.00 | 0.27 | 0.06 | 98 | 1013.8 |
| 20260905114337 | 72 | 86 | 2.0 | 4.0 | 0.00 | 0.27 | 0.06 | 98 | 1013.9 |
| 20260905114229 | 72 | 84 | 3.0 | 4.0 | 0.00 | 0.27 | 0.06 | 98 | 1013.9 |
| 20260905114120 | 72 | 89 | 1.0 | 4.0 | 0.00 | 0.27 | 0.06 | 98 | 1013.8 |
| 20260905114032 | 72 | 90 | 0.0 | 4.0 | 0.00 | 0.27 | 0.06 | 98 | 1013.9 |
| 20260905113928 | 72 | 75 | 0.0 | 0.0 | 0.00 | 0.27 | 0.06 | 98 | 1013.9 |
| 20260905113820 | 72 | 75 | 0.0 | 0.0 | 0.00 | 0.27 | 0.06 | 98 | 1013.9 |
| 20260905113732 | 72 | 76 | 0.0 | 0.0 | 0.00 | 0.27 | 0.06 | 98 | 1013.9 |
| 20260905113624 | 72 | 76 | 0.0 | 0.0 | 0.00 | 0.27 | 0.06 | 98 | 1013.9 |
| 20260905113536 | 72 | 76 | 0.0 | 0.0 | 0.00 | 0.27 | 0.06 | 98 | 1013.9 |
| 20260905113428 | 72 | 76 | 0.0 | 0.0 | 0.00 | 0.27 | 0.06 | 98 | 1013.9 |
| 20260905113341 | 72 | 76 | 0.0 | 0.0 | 0.00 | 0.27 | 0.06 | 98 | 1013.9 |
| 20260905113230 | 72 | 63 | 0.0 | 0.0 | 0.00 | 0.27 | 0.06 | 98 | 1013.9 |
| 20260905113153 | 72 | 31 | 0.0 | 0.0 | 0.00 | 0.27 | 0.06 | 98 | 1013.9 |
| 20260905113029 | 72 | 31 | 0.0 | 0.0 | 0.00 | 0.27 | 0.06 | 98 | 1013.8 |
| 20260905112921 | 72 | 31 | 0.0 | 0.0 | 0.00 | 0.27 | 0.06 | 98 | 1013.8 |
| 20260905112832 | 72 | 31 | 0.0 | 0.0 | 0.00 | 0.27 | 0.06 | 98 | 1013.8 |
| 20260905112725 | 72 | 31 | 0.0 | 0.0 | 0.00 | 0.27 | 0.06 | 97 | 1013.7 |
| 20260905112638 | 72 | 31 | 0.0 | 0.0 | 0.00 | 0.27 | 0.06 | 97 | 1013.7 |
| 20260905112530 | 72 | 31 | 0.0 | 0.0 | 0.00 | 0.27 | 0.06 | 97 | 1013.7 |
| 20260905112443 | 72 | 31 | 0.0 | 0.0 | 0.00 | 0.27 | 0.06 | 97 | 1013.8 |
| 20260905112355 | 72 | 31 | 0.0 | 0.0 | 0.00 | 0.27 | 0.06 | 97 | 1013.8 |
| 20260905112231 | 72 | 31 | 0.0 | 0.0 | 0.00 | 0.27 | 0.06 | 97 | 1013.8 |
| 20260905112143 | 72 | 31 | 0.0 | 0.0 | 0.00 | 0.27 | 0.06 | 98 | 1013.8 |
| 20260905112056 | 72 | 31 | 0.0 | 0.0 | 0.00 | 0.27 | 0.06 | 98 | 1013.7 |
| 20260905111949 | 72 | 31 | 0.0 | 0.0 | 0.00 | 0.27 | 0.06 | 98 | 1013.7 |
| 20260905111901 | 72 | 31 | 0.0 | 0.0 | 0.00 | 0.27 | 0.06 | 98 | 1013.7 |
| 20260905111813 | 72 | 31 | 0.0 | 0.0 | 0.00 | 0.27 | 0.06 | 98 | 1013.7 |
| 20260905111713 | 72 | 31 | 0.0 | 0.0 | 0.00 | 0.27 | 0.06 | 98 | 1013.6 |
| 20260905111524 | 72 | 31 | 0.0 | 0.0 | 0.00 | 0.27 | 0.06 | 98 | 1013.5 |
| 20260905111437 | 72 | 31 | 0.0 | 0.0 | 0.00 | 0.27 | 0.06 | 98 | 1013.5 |
| 20260905111348 | 72 | 31 | 0.0 | 0.0 | 0.00 | 0.27 | 0.06 | 98 | 1013.4 |
| 20260905111300 | 72 | 31 | 0.0 | 0.0 | 0.00 | 0.27 | 0.06 | 98 | 1013.5 |
| 20260905111135 | 72 | 31 | 0.0 | 0.0 | 0.00 | 0.27 | 0.06 | 98 | 1013.5 |
| 20260905111026 | 72 | 31 | 0.0 | 0.0 | 0.00 | 0.27 | 0.06 | 98 | 1013.4 |
| 20260905110938 | 72 | 31 | 0.0 | 0.0 | 0.00 | 0.27 | 0.06 | 98 | 1013.5 |
| 20260905110829 | 72 | 31 | 0.0 | 4.0 | 0.00 | 0.27 | 0.06 | 98 | 1013.5 |
| 20260905110722 | 72 | 31 | 0.0 | 4.0 | 0.00 | 0.27 | 0.06 | 98 | 1013.5 |
| 20260905110634 | 72 | 31 | 0.0 | 5.0 | 0.00 | 0.27 | 0.06 | 98 | 1013.5 |
| 20260905110547 | 72 | 31 | 0.0 | 5.0 | 0.00 | 0.27 | 0.06 | 98 | 1013.5 |
| 20260905110438 | 72 | 31 | 0.0 | 5.0 | 0.00 | 0.27 | 0.06 | 98 | 1013.5 |
| 20260905110351 | 72 | 31 | 0.0 | 5.0 | 0.00 | 0.27 | 0.06 | 98 | 1013.4 |
| 20260905110225 | 72 | 31 | 0.0 | 5.0 | 0.00 | 0.27 | 0.06 | 98 | 1013.4 |
| 20260905110147 | 72 | 31 | 1.0 | 5.0 | 0.00 | 0.27 | 0.06 | 98 | 1013.4 |
| 20260905110039 | 72 | 31 | 2.0 | 5.0 | 0.01 | 0.27 | 0.06 | 98 | 1013.4 |
| 20260905105931 | 72 | 25 | 3.0 | 5.0 | 0.01 | 0.27 | 0.06 | 98 | 1013.5 |
| 20260905105823 | 72 | 57 | 3.0 | 5.0 | 0.01 | 0.27 | 0.06 | 98 | 1013.5 |
| 20260905105735 | 72 | 45 | 2.0 | 5.0 | 0.01 | 0.27 | 0.06 | 98 | 1013.5 |
| 20260905105648 | 72 | 37 | 1.0 | 5.0 | 0.01 | 0.27 | 0.06 | 98 | 1013.4 |
| 20260905105558 | 72 | 67 | 0.0 | 0.0 | 0.01 | 0.27 | 0.06 | 98 | 1013.4 |
| 20260905105449 | 72 | 74 | 0.0 | 0.0 | 0.01 | 0.27 | 0.06 | 98 | 1013.4 |
| 20260905105402 | 72 | 68 | 0.0 | 0.0 | 0.01 | 0.27 | 0.06 | 98 | 1013.3 |
| 20260905105253 | 72 | 68 | 0.0 | 0.0 | 0.01 | 0.27 | 0.06 | 98 | 1013.4 |
| 20260905105128 | 72 | 68 | 0.0 | 0.0 | 0.01 | 0.27 | 0.06 | 98 | 1013.4 |
| 20260905105040 | 72 | 68 | 0.0 | 0.0 | 0.01 | 0.27 | 0.06 | 98 | 1013.3 |
| 20260905104953 | 72 | 68 | 0.0 | 2.0 | 0.01 | 0.27 | 0.06 | 98 | 1013.4 |
| 20260905104825 | 72 | 68 | 0.0 | 4.0 | 0.01 | 0.27 | 0.06 | 98 | 1013.5 |
| 20260905104737 | 72 | 68 | 0.0 | 4.0 | 0.01 | 0.27 | 0.06 | 98 | 1013.5 |
| 20260905104659 | 72 | 68 | 0.0 | 4.0 | 0.01 | 0.27 | 0.06 | 98 | 1013.5 |
| 20260905104529 | 72 | 68 | 0.0 | 5.0 | 0.01 | 0.27 | 0.06 | 98 | 1013.5 |
| 20260905104421 | 72 | 68 | 0.0 | 5.0 | 0.01 | 0.27 | 0.06 | 98 | 1013.5 |
| 20260905104332 | 72 | 68 | 0.0 | 5.0 | 0.01 | 0.27 | 0.06 | 98 | 1013.4 |
| 20260905104247 | 72 | 68 | 0.0 | 5.0 | 0.01 | 0.27 | 0.06 | 98 | 1013.5 |
| 20260905104159 | 72 | 51 | 2.0 | 5.0 | 0.01 | 0.27 | 0.06 | 98 | 1013.5 |
| 20260905104030 | 72 | 75 | 2.0 | 5.0 | 0.01 | 0.27 | 0.06 | 98 | 1013.4 |
| 20260905103941 | 72 | 65 | 3.0 | 5.0 | 0.01 | 0.27 | 0.06 | 97 | 1013.5 |
| 20260905103854 | 72 | 28 | 3.0 | 5.0 | 0.01 | 0.27 | 0.06 | 97 | 1013.5 |
| 20260905103724 | 72 | 29 | 3.0 | 5.0 | 0.01 | 0.27 | 0.06 | 97 | 1013.5 |
| 20260905103637 | 72 | 48 | 3.0 | 5.0 | 0.01 | 0.27 | 0.06 | 97 | 1013.5 |
| 20260905103549 | 72 | 40 | 3.0 | 5.0 | 0.01 | 0.27 | 0.06 | 97 | 1013.5 |
| 20260905103420 | 72 | 28 | 3.0 | 4.0 | 0.01 | 0.27 | 0.06 | 97 | 1013.4 |
| 20260905103333 | 72 | 20 | 1.0 | 4.0 | 0.01 | 0.27 | 0.06 | 97 | 1013.5 |
| 20260905103247 | 72 | 28 | 0.0 | 1.0 | 0.01 | 0.27 | 0.06 | 97 | 1013.3 |
| 20260905103207 | 72 | 32 | 0.0 | 0.0 | 0.01 | 0.27 | 0.06 | 97 | 1013.3 |
| 20260905103037 | 72 | 186 | 0.0 | 0.0 | 0.01 | 0.27 | 0.06 | 97 | 1013.2 |
| 20260905102950 | 72 | 186 | 0.0 | 0.0 | 0.01 | 0.27 | 0.06 | 97 | 1013.2 |
| 20260905102901 | 72 | 186 | 0.0 | 0.0 | 0.01 | 0.27 | 0.06 | 97 | 1013.2 |
| 20260905102752 | 72 | 186 | 0.0 | 0.0 | 0.01 | 0.27 | 0.06 | 97 | 1013.2 |
| 20260905102704 | 72 | 186 | 0.0 | 0.0 | 0.01 | 0.27 | 0.06 | 97 | 1013.1 |
| 20260905102617 | 72 | 186 | 0.0 | 0.0 | 0.01 | 0.27 | 0.06 | 97 | 1013.1 |
| 20260905102528 | 72 | 186 | 0.0 | 0.0 | 0.01 | 0.27 | 0.06 | 97 | 1013.2 |
| 20260905102419 | 72 | 186 | 0.0 | 0.0 | 0.01 | 0.27 | 0.06 | 97 | 1013.1 |
| 20260905102310 | 72 | 186 | 0.0 | 0.0 | 0.01 | 0.27 | 0.06 | 97 | 1013.2 |
| 20260905102201 | 72 | 186 | 0.0 | 0.0 | 0.01 | 0.27 | 0.06 | 97 | 1013.2 |
| 20260905102052 | 72 | 186 | 0.0 | 0.0 | 0.01 | 0.27 | 0.06 | 97 | 1013.3 |
| 20260905101926 | 72 | 186 | 0.0 | 0.0 | 0.01 | 0.27 | 0.06 | 97 | 1013.2 |
| 20260905101839 | 72 | 186 | 0.0 | 0.0 | 0.01 | 0.27 | 0.06 | 97 | 1013.2 |
| 20260905101731 | 72 | 186 | 0.0 | 0.0 | 0.01 | 0.27 | 0.06 | 97 | 1013.1 |
| 20260905101653 | 72 | 186 | 0.0 | 0.0 | 0.01 | 0.27 | 0.06 | 97 | 1013.1 |
| 20260905101525 | 72 | 186 | 0.0 | 0.0 | 0.01 | 0.27 | 0.06 | 97 | 1013.1 |
| 20260905101438 | 72 | 186 | 0.0 | 0.0 | 0.01 | 0.27 | 0.06 | 97 | 1013.0 |
| 20260905101329 | 72 | 186 | 0.0 | 0.0 | 0.01 | 0.27 | 0.06 | 97 | 1013.1 |
| 20260905101222 | 72 | 186 | 0.0 | 0.0 | 0.01 | 0.27 | 0.06 | 97 | 1013.0 |
| 20260905101137 | 72 | 186 | 0.0 | 0.0 | 0.01 | 0.27 | 0.06 | 97 | 1013.0 |
| 20260905101049 | 72 | 186 | 0.0 | 0.0 | 0.01 | 0.27 | 0.06 | 97 | 1013.0 |
| 20260905100920 | 72 | 186 | 0.0 | 0.0 | 0.01 | 0.27 | 0.06 | 97 | 1013.0 |
| 20260905100832 | 72 | 186 | 0.0 | 0.0 | 0.01 | 0.27 | 0.06 | 97 | 1013.1 |
| 20260905100743 | 72 | 186 | 0.0 | 0.0 | 0.01 | 0.27 | 0.06 | 97 | 1013.0 |
| 20260905100655 | 72 | 186 | 0.0 | 0.0 | 0.01 | 0.27 | 0.06 | 97 | 1013.0 |
| 20260905100547 | 72 | 186 | 0.0 | 0.0 | 0.01 | 0.27 | 0.06 | 97 | 1013.1 |
| 20260905100439 | 72 | 186 | 0.0 | 0.0 | 0.01 | 0.27 | 0.06 | 97 | 1013.2 |
| 20260905100331 | 72 | 186 | 0.0 | 0.0 | 0.01 | 0.27 | 0.06 | 97 | 1013.1 |
| 20260905100221 | 72 | 186 | 0.0 | 0.0 | 0.01 | 0.27 | 0.06 | 97 | 1013.1 |
| 20260905100147 | 72 | 186 | 0.0 | 0.0 | 0.01 | 0.27 | 0.06 | 97 | 1013.1 |
| 20260905100039 | 72 | 186 | 0.0 | 0.0 | 0.00 | 0.26 | 0.05 | 97 | 1013.1 |
| 20260905095931 | 72 | 186 | 0.0 | 0.0 | 0.00 | 0.26 | 0.05 | 97 | 1013.1 |
| 20260905095842 | 72 | 186 | 0.0 | 0.0 | 0.00 | 0.26 | 0.05 | 97 | 1013.1 |
| 20260905095755 | 72 | 186 | 0.0 | 0.0 | 0.00 | 0.26 | 0.05 | 97 | 1013.2 |
| 20260905095628 | 72 | 186 | 0.0 | 0.0 | 0.00 | 0.26 | 0.05 | 97 | 1013.1 |
| 20260905095538 | 72 | 186 | 0.0 | 0.0 | 0.00 | 0.26 | 0.05 | 97 | 1013.2 |
| 20260905095428 | 72 | 186 | 0.0 | 0.0 | 0.00 | 0.26 | 0.05 | 97 | 1013.2 |
| 20260905095340 | 72 | 186 | 0.0 | 0.0 | 0.00 | 0.26 | 0.05 | 97 | 1013.1 |
| 20260905095253 | 72 | 186 | 0.0 | 0.0 | 0.00 | 0.26 | 0.05 | 97 | 1013.3 |
| 20260905095147 | 72 | 186 | 0.0 | 0.0 | 0.00 | 0.26 | 0.05 | 97 | 1013.3 |
| 20260905095038 | 72 | 186 | 0.0 | 0.0 | 0.00 | 0.26 | 0.05 | 97 | 1013.3 |
| 20260905094929 | 73 | 186 | 0.0 | 0.0 | 0.00 | 0.26 | 0.05 | 97 | 1013.3 |
| 20260905094821 | 73 | 186 | 0.0 | 0.0 | 0.00 | 0.26 | 0.05 | 97 | 1013.1 |
| 20260905094733 | 73 | 186 | 0.0 | 0.0 | 0.00 | 0.26 | 0.05 | 97 | 1013.2 |
| 20260905094656 | 73 | 186 | 0.0 | 0.0 | 0.00 | 0.26 | 0.05 | 97 | 1013.2 |
| 20260905094547 | 73 | 186 | 0.0 | 0.0 | 0.00 | 0.26 | 0.05 | 97 | 1013.2 |
| 20260905094438 | 73 | 186 | 0.0 | 0.0 | 0.00 | 0.26 | 0.05 | 97 | 1013.2 |
| 20260905094330 | 73 | 186 | 0.0 | 0.0 | 0.00 | 0.26 | 0.05 | 97 | 1013.2 |
| 20260905094242 | 73 | 186 | 0.0 | 0.0 | 0.00 | 0.26 | 0.05 | 97 | 1013.3 |
| 20260905094137 | 73 | 186 | 0.0 | 0.0 | 0.00 | 0.26 | 0.05 | 97 | 1013.3 |
| 20260905094030 | 73 | 186 | 0.0 | 0.0 | 0.00 | 0.26 | 0.05 | 97 | 1013.2 |
| 20260905093941 | 73 | 186 | 0.0 | 0.0 | 0.00 | 0.26 | 0.05 | 97 | 1013.2 |
| 20260905093853 | 73 | 186 | 0.0 | 0.0 | 0.00 | 0.26 | 0.05 | 97 | 1013.1 |
| 20260905093724 | 73 | 186 | 0.0 | 0.0 | 0.00 | 0.26 | 0.05 | 97 | 1013.2 |
| 20260905093636 | 73 | 186 | 0.0 | 0.0 | 0.00 | 0.26 | 0.05 | 97 | 1013.1 |
| 20260905093529 | 73 | 186 | 0.0 | 0.0 | 0.00 | 0.26 | 0.05 | 97 | 1013.3 |
| 20260905093442 | 73 | 186 | 0.0 | 0.0 | 0.00 | 0.26 | 0.05 | 97 | 1013.3 |
| 20260905093355 | 73 | 186 | 0.0 | 0.0 | 0.00 | 0.26 | 0.05 | 97 | 1013.3 |
| 20260905093246 | 73 | 186 | 0.0 | 0.0 | 0.00 | 0.26 | 0.05 | 97 | 1013.3 |
| 20260905093211 | 73 | 186 | 0.0 | 0.0 | 0.00 | 0.26 | 0.05 | 97 | 1013.3 |
| 20260905093102 | 73 | 186 | 0.0 | 0.0 | 0.00 | 0.26 | 0.05 | 97 | 1013.2 |
| 20260905093014 | 73 | 186 | 0.0 | 0.0 | 0.00 | 0.26 | 0.05 | 97 | 1013.3 |
| 20260905092904 | 73 | 186 | 0.0 | 0.0 | 0.00 | 0.26 | 0.05 | 97 | 1013.3 |
| 20260905092733 | 73 | 186 | 0.0 | 0.0 | 0.00 | 0.26 | 0.05 | 97 | 1013.3 |
| 20260905092626 | 73 | 186 | 0.0 | 0.0 | 0.00 | 0.26 | 0.05 | 97 | 1013.3 |
| 20260905092538 | 73 | 186 | 0.0 | 0.0 | 0.00 | 0.26 | 0.05 | 97 | 1013.3 |
| 20260905092429 | 73 | 186 | 0.0 | 0.0 | 0.00 | 0.26 | 0.05 | 97 | 1013.4 |
| 20260905092341 | 73 | 186 | 0.0 | 0.0 | 0.00 | 0.26 | 0.05 | 97 | 1013.4 |
| 20260905092252 | 73 | 186 | 0.0 | 0.0 | 0.00 | 0.26 | 0.05 | 97 | 1013.3 |
| 20260905092128 | 73 | 186 | 0.0 | 0.0 | 0.00 | 0.26 | 0.05 | 97 | 1013.3 |
| 20260905092020 | 73 | 186 | 0.0 | 0.0 | 0.00 | 0.26 | 0.05 | 97 | 1013.3 |
| 20260905091931 | 73 | 186 | 0.0 | 0.0 | 0.00 | 0.26 | 0.05 | 97 | 1013.3 |
| 20260905091823 | 73 | 186 | 0.0 | 0.0 | 0.00 | 0.26 | 0.05 | 97 | 1013.3 |
| 20260905091735 | 73 | 186 | 0.0 | 0.0 | 0.00 | 0.26 | 0.05 | 97 | 1013.3 |
| 20260905091657 | 73 | 186 | 0.0 | 0.0 | 0.00 | 0.26 | 0.05 | 97 | 1013.3 |
| 20260905091549 | 73 | 186 | 0.0 | 0.0 | 0.00 | 0.26 | 0.05 | 97 | 1013.3 |
| 20260905091439 | 73 | 186 | 0.0 | 0.0 | 0.00 | 0.26 | 0.05 | 97 | 1013.4 |
| 20260905091353 | 73 | 186 | 0.0 | 0.0 | 0.00 | 0.26 | 0.05 | 97 | 1013.3 |
| 20260905091244 | 73 | 137 | 0.0 | 1.0 | 0.00 | 0.26 | 0.05 | 97 | 1013.4 |
| 20260905091155 | 73 | 137 | 0.0 | 3.0 | 0.00 | 0.26 | 0.05 | 97 | 1013.5 |
| 20260905091050 | 73 | 137 | 0.0 | 3.0 | 0.00 | 0.26 | 0.05 | 97 | 1013.5 |
| 20260905090942 | 73 | 137 | 0.0 | 3.0 | 0.00 | 0.26 | 0.05 | 97 | 1013.4 |
| 20260905090854 | 73 | 137 | 0.0 | 3.0 | 0.00 | 0.26 | 0.05 | 97 | 1013.4 |
| 20260905090726 | 73 | 137 | 0.0 | 3.0 | 0.00 | 0.26 | 0.05 | 97 | 1013.5 |
| 20260905090638 | 73 | 137 | 0.0 | 3.0 | 0.00 | 0.26 | 0.05 | 97 | 1013.5 |
| 20260905090550 | 73 | 137 | 0.0 | 3.0 | 0.00 | 0.26 | 0.05 | 97 | 1013.5 |
| 20260905090439 | 73 | 137 | 1.0 | 3.0 | 0.00 | 0.26 | 0.05 | 97 | 1013.5 |
| 20260905090332 | 73 | 137 | 2.0 | 3.0 | 0.00 | 0.26 | 0.05 | 97 | 1013.6 |
| 20260905090241 | 73 | 137 | 2.0 | 3.0 | 0.00 | 0.26 | 0.05 | 97 | 1013.5 |
| 20260905090142 | 73 | 137 | 2.0 | 3.0 | 0.00 | 0.26 | 0.05 | 97 | 1013.5 |
| 20260905090032 | 73 | 137 | 2.0 | 3.0 | 0.00 | 0.26 | 0.05 | 97 | 1013.5 |
| 20260905085928 | 73 | 137 | 1.0 | 3.0 | 0.00 | 0.26 | 0.05 | 97 | 1013.4 |
| 20260905085821 | 73 | 137 | 0.0 | 3.0 | 0.00 | 0.26 | 0.05 | 97 | 1013.4 |
| 20260905085733 | 73 | 202 | 0.0 | 1.0 | 0.00 | 0.26 | 0.05 | 97 | 1013.4 |
| 20260905085626 | 73 | 202 | 0.0 | 1.0 | 0.00 | 0.26 | 0.05 | 97 | 1013.4 |
| 20260905085538 | 73 | 202 | 0.0 | 1.0 | 0.00 | 0.26 | 0.05 | 97 | 1013.4 |
| 20260905085429 | 73 | 202 | 0.0 | 1.0 | 0.00 | 0.26 | 0.05 | 97 | 1013.4 |
| 20260905085321 | 73 | 202 | 0.0 | 0.0 | 0.00 | 0.26 | 0.05 | 97 | 1013.4 |
| 20260905085233 | 73 | 202 | 0.0 | 0.0 | 0.00 | 0.26 | 0.05 | 97 | 1013.4 |
| 20260905085129 | 73 | 202 | 0.0 | 0.0 | 0.00 | 0.26 | 0.05 | 97 | 1013.4 |
| 20260905085042 | 73 | 202 | 0.0 | 0.0 | 0.00 | 0.26 | 0.05 | 97 | 1013.4 |
| 20260905084932 | 73 | 202 | 0.0 | 0.0 | 0.00 | 0.26 | 0.05 | 97 | 1013.4 |
| 20260905084844 | 73 | 202 | 0.0 | 0.0 | 0.00 | 0.26 | 0.05 | 97 | 1013.5 |
| 20260905084756 | 73 | 202 | 0.0 | 0.0 | 0.00 | 0.26 | 0.05 | 97 | 1013.5 |
| 20260905084717 | 73 | 202 | 0.0 | 0.0 | 0.00 | 0.26 | 0.05 | 97 | 1013.4 |
| 20260905084528 | 73 | 202 | 0.0 | 2.0 | 0.00 | 0.26 | 0.05 | 97 | 1013.4 |
| 20260905084439 | 73 | 202 | 0.0 | 2.0 | 0.00 | 0.26 | 0.05 | 97 | 1013.4 |
| 20260905084330 | 73 | 202 | 0.0 | 2.0 | 0.00 | 0.26 | 0.05 | 97 | 1013.4 |
| 20260905084226 | 73 | 202 | 0.0 | 2.0 | 0.00 | 0.26 | 0.05 | 97 | 1013.4 |
| 20260905084138 | 73 | 202 | 0.0 | 2.0 | 0.00 | 0.26 | 0.05 | 97 | 1013.3 |
| 20260905084030 | 73 | 202 | 0.0 | 2.0 | 0.00 | 0.26 | 0.05 | 97 | 1013.3 |
| 20260905083941 | 73 | 202 | 0.0 | 2.0 | 0.00 | 0.26 | 0.05 | 97 | 1013.3 |
| 20260905083832 | 73 | 202 | 0.0 | 2.0 | 0.00 | 0.26 | 0.05 | 97 | 1013.3 |
| 20260905083725 | 73 | 202 | 0.0 | 2.0 | 0.00 | 0.26 | 0.05 | 97 | 1013.3 |
| 20260905083638 | 73 | 202 | 0.0 | 2.0 | 0.00 | 0.26 | 0.05 | 97 | 1013.3 |
| 20260905083551 | 73 | 202 | 0.0 | 2.0 | 0.00 | 0.26 | 0.05 | 97 | 1013.2 |
| 20260905083442 | 73 | 186 | 1.0 | 2.0 | 0.00 | 0.26 | 0.05 | 97 | 1013.3 |
| 20260905083335 | 73 | 186 | 1.0 | 2.0 | 0.00 | 0.26 | 0.05 | 97 | 1013.3 |
| 20260905083230 | 73 | 168 | 0.0 | 3.0 | 0.00 | 0.26 | 0.05 | 97 | 1013.2 |
| 20260905083152 | 73 | 163 | 0.0 | 3.0 | 0.00 | 0.26 | 0.05 | 97 | 1013.2 |
| 20260905083042 | 73 | 170 | 0.0 | 3.0 | 0.00 | 0.26 | 0.05 | 97 | 1013.3 |
| 20260905082934 | 73 | 165 | 0.0 | 3.0 | 0.00 | 0.26 | 0.05 | 97 | 1013.1 |
| 20260905082845 | 73 | 165 | 0.0 | 3.0 | 0.00 | 0.26 | 0.05 | 97 | 1013.2 |
| 20260905082758 | 73 | 165 | 0.0 | 3.0 | 0.00 | 0.26 | 0.05 | 97 | 1013.2 |
| 20260905082711 | 73 | 174 | 1.0 | 3.0 | 0.00 | 0.26 | 0.05 | 97 | 1013.2 |
| 20260905082600 | 73 | 205 | 1.0 | 3.0 | 0.00 | 0.26 | 0.05 | 97 | 1013.2 |
| 20260905082432 | 73 | 205 | 2.0 | 3.0 | 0.00 | 0.26 | 0.05 | 97 | 1013.2 |
| 20260905082324 | 73 | 229 | 2.0 | 3.0 | 0.00 | 0.26 | 0.05 | 97 | 1013.2 |
| 20260905082220 | 73 | 219 | 2.0 | 3.0 | 0.00 | 0.26 | 0.05 | 97 | 1013.2 |
| 20260905082133 | 73 | 225 | 1.0 | 3.0 | 0.00 | 0.26 | 0.05 | 97 | 1013.2 |
| 20260905082025 | 73 | 106 | 0.0 | 1.0 | 0.00 | 0.26 | 0.05 | 97 | 1013.3 |
| 20260905081937 | 73 | 106 | 0.0 | 1.0 | 0.00 | 0.26 | 0.05 | 97 | 1013.3 |
| 20260905081848 | 73 | 106 | 0.0 | 1.0 | 0.00 | 0.26 | 0.05 | 97 | 1013.3 |
| 20260905081738 | 73 | 106 | 0.0 | 1.0 | 0.00 | 0.26 | 0.05 | 97 | 1013.3 |
| 20260905081700 | 73 | 106 | 0.0 | 1.0 | 0.00 | 0.26 | 0.05 | 97 | 1013.3 |
| 20260905081531 | 73 | 106 | 0.0 | 1.0 | 0.00 | 0.26 | 0.05 | 97 | 1013.2 |
| 20260905081442 | 73 | 106 | 0.0 | 1.0 | 0.00 | 0.26 | 0.05 | 97 | 1013.2 |
| 20260905081350 | 73 | 106 | 0.0 | 0.0 | 0.00 | 0.26 | 0.05 | 96 | 1013.3 |
| 20260905081241 | 73 | 106 | 0.0 | 0.0 | 0.00 | 0.26 | 0.05 | 96 | 1013.2 |
| 20260905081158 | 73 | 106 | 0.0 | 0.0 | 0.00 | 0.26 | 0.05 | 96 | 1013.3 |
| 20260905081050 | 73 | 106 | 0.0 | 0.0 | 0.00 | 0.26 | 0.05 | 96 | 1013.3 |
| 20260905080920 | 73 | 106 | 0.0 | 0.0 | 0.00 | 0.26 | 0.05 | 96 | 1013.3 |
| 20260905080831 | 73 | 106 | 0.0 | 0.0 | 0.00 | 0.26 | 0.05 | 96 | 1013.3 |
| 20260905080744 | 73 | 106 | 0.0 | 0.0 | 0.00 | 0.26 | 0.05 | 96 | 1013.4 |
| 20260905080657 | 73 | 106 | 0.0 | 0.0 | 0.00 | 0.26 | 0.05 | 96 | 1013.2 |
| 20260905080529 | 73 | 106 | 0.0 | 0.0 | 0.00 | 0.26 | 0.05 | 96 | 1013.3 |
| 20260905080442 | 73 | 106 | 0.0 | 0.0 | 0.00 | 0.26 | 0.05 | 96 | 1013.3 |
| 20260905080333 | 73 | 106 | 0.0 | 0.0 | 0.00 | 0.26 | 0.05 | 96 | 1013.2 |
| 20260905080243 | 73 | 106 | 0.0 | 0.0 | 0.00 | 0.26 | 0.05 | 96 | 1013.3 |
| 20260905080205 | 73 | 106 | 0.0 | 0.0 | 0.00 | 0.26 | 0.05 | 96 | 1013.3 |
| 20260905080020 | 73 | 106 | 0.0 | 0.0 | 0.00 | 0.26 | 0.05 | 96 | 1013.3 |
| 20260905075933 | 73 | 106 | 0.0 | 0.0 | 0.00 | 0.26 | 0.05 | 96 | 1013.2 |
| 20260905075846 | 73 | 106 | 0.0 | 0.0 | 0.00 | 0.26 | 0.05 | 96 | 1013.2 |
| 20260905075736 | 73 | 106 | 0.0 | 1.0 | 0.00 | 0.26 | 0.05 | 96 | 1013.2 |
| 20260905075627 | 73 | 106 | 0.0 | 1.0 | 0.00 | 0.26 | 0.05 | 96 | 1013.2 |
| 20260905075540 | 73 | 106 | 0.0 | 1.0 | 0.01 | 0.26 | 0.05 | 96 | 1013.2 |
| 20260905075452 | 73 | 106 | 0.0 | 1.0 | 0.02 | 0.26 | 0.05 | 96 | 1013.3 |
| 20260905075323 | 73 | 106 | 0.0 | 1.0 | 0.03 | 0.26 | 0.05 | 96 | 1013.2 |
| 20260905075235 | 73 | 106 | 0.0 | 1.0 | 0.03 | 0.26 | 0.05 | 96 | 1013.2 |
| 20260905075130 | 73 | 106 | 0.0 | 1.0 | 0.03 | 0.26 | 0.05 | 96 | 1013.1 |
| 20260905075041 | 73 | 106 | 0.0 | 1.0 | 0.03 | 0.26 | 0.05 | 96 | 1013.1 |
| 20260905074932 | 73 | 106 | 0.0 | 1.0 | 0.03 | 0.26 | 0.05 | 96 | 1013.1 |
| 20260905074823 | 73 | 106 | 0.0 | 1.0 | 0.03 | 0.26 | 0.05 | 96 | 1013.1 |
| 20260905074735 | 73 | 106 | 0.0 | 2.0 | 0.03 | 0.26 | 0.05 | 96 | 1013.1 |
| 20260905074659 | 73 | 106 | 0.0 | 2.0 | 0.03 | 0.26 | 0.05 | 96 | 1013.1 |
| 20260905074529 | 73 | 106 | 0.0 | 3.0 | 0.03 | 0.26 | 0.05 | 96 | 1013.1 |
| 20260905074421 | 73 | 106 | 0.0 | 3.0 | 0.03 | 0.26 | 0.05 | 96 | 1013.1 |
| 20260905074333 | 73 | 106 | 0.0 | 3.0 | 0.03 | 0.26 | 0.05 | 96 | 1013.1 |
| 20260905074224 | 73 | 106 | 0.0 | 3.0 | 0.03 | 0.26 | 0.05 | 96 | 1013.1 |
| 20260905074120 | 73 | 106 | 0.0 | 3.0 | 0.03 | 0.26 | 0.05 | 96 | 1012.9 |
| 20260905074032 | 73 | 106 | 0.0 | 3.0 | 0.03 | 0.26 | 0.05 | 96 | 1013.1 |
| 20260905073923 | 73 | 106 | 1.0 | 3.0 | 0.03 | 0.26 | 0.05 | 96 | 1013.1 |
| 20260905073836 | 73 | 106 | 2.0 | 3.0 | 0.03 | 0.26 | 0.05 | 96 | 1013.2 |
| 20260905073729 | 73 | 106 | 1.0 | 3.0 | 0.03 | 0.26 | 0.05 | 96 | 1013.2 |
| 20260905073620 | 73 | 106 | 0.0 | 4.0 | 0.03 | 0.26 | 0.05 | 96 | 1013.2 |
| 20260905073531 | 73 | 106 | 0.0 | 4.0 | 0.03 | 0.26 | 0.05 | 96 | 1013.2 |
| 20260905073422 | 73 | 106 | 0.0 | 4.0 | 0.03 | 0.26 | 0.05 | 96 | 1013.2 |
| 20260905073338 | 73 | 106 | 1.0 | 4.0 | 0.03 | 0.26 | 0.05 | 96 | 1013.3 |
| 20260905073229 | 73 | 106 | 1.0 | 4.0 | 0.03 | 0.26 | 0.05 | 96 | 1013.2 |
| 20260905073151 | 73 | 106 | 2.0 | 4.0 | 0.03 | 0.26 | 0.05 | 96 | 1013.2 |
| 20260905073022 | 73 | 106 | 3.0 | 4.0 | 0.03 | 0.26 | 0.05 | 96 | 1013.2 |
| 20260905072932 | 73 | 106 | 3.0 | 4.0 | 0.03 | 0.26 | 0.05 | 96 | 1013.1 |
| 20260905072824 | 73 | 106 | 3.0 | 4.0 | 0.03 | 0.26 | 0.05 | 96 | 1013.2 |
| 20260905072736 | 73 | 106 | 2.0 | 3.0 | 0.03 | 0.26 | 0.05 | 96 | 1013.2 |
| 20260905072628 | 73 | 106 | 2.0 | 4.0 | 0.03 | 0.26 | 0.05 | 96 | 1013.3 |
| 20260905072524 | 73 | 106 | 2.0 | 4.0 | 0.03 | 0.26 | 0.05 | 96 | 1013.3 |
| 20260905072435 | 73 | 106 | 2.0 | 4.0 | 0.03 | 0.26 | 0.05 | 96 | 1013.3 |
| 20260905072326 | 73 | 106 | 2.0 | 4.0 | 0.03 | 0.26 | 0.05 | 96 | 1013.2 |
| 20260905072238 | 73 | 106 | 2.0 | 4.0 | 0.03 | 0.26 | 0.05 | 96 | 1013.2 |
| 20260905072151 | 73 | 106 | 1.0 | 4.0 | 0.03 | 0.26 | 0.05 | 96 | 1013.2 |
| 20260905072042 | 73 | 106 | 1.0 | 4.0 | 0.03 | 0.26 | 0.05 | 96 | 1013.1 |
| 20260905071932 | 73 | 106 | 1.0 | 4.0 | 0.03 | 0.26 | 0.05 | 96 | 1013.2 |
| 20260905071823 | 73 | 106 | 1.0 | 4.0 | 0.03 | 0.26 | 0.05 | 96 | 1013.2 |
| 20260905071734 | 73 | 106 | 0.0 | 4.0 | 0.03 | 0.26 | 0.05 | 96 | 1013.2 |
| 20260905071656 | 73 | 106 | 1.0 | 4.0 | 0.03 | 0.26 | 0.05 | 96 | 1013.2 |
| 20260905071531 | 73 | 106 | 1.0 | 4.0 | 0.03 | 0.26 | 0.05 | 96 | 1013.4 |
| 20260905071424 | 73 | 106 | 0.0 | 4.0 | 0.03 | 0.26 | 0.05 | 96 | 1013.3 |
| 20260905071336 | 73 | 106 | 0.0 | 6.0 | 0.03 | 0.26 | 0.05 | 96 | 1013.3 |
| 20260905071229 | 73 | 106 | 0.0 | 6.0 | 0.03 | 0.26 | 0.05 | 96 | 1013.3 |
| 20260905071121 | 73 | 106 | 1.0 | 8.0 | 0.03 | 0.26 | 0.05 | 96 | 1013.4 |
| 20260905071033 | 73 | 106 | 2.0 | 8.0 | 0.03 | 0.26 | 0.05 | 96 | 1013.4 |
| 20260905070926 | 73 | 106 | 2.0 | 8.0 | 0.03 | 0.26 | 0.05 | 96 | 1013.3 |
| 20260905070838 | 73 | 106 | 2.0 | 8.0 | 0.03 | 0.26 | 0.05 | 96 | 1013.2 |
| 20260905070734 | 73 | 106 | 2.0 | 8.0 | 0.03 | 0.26 | 0.05 | 96 | 1013.2 |
| 20260905070626 | 73 | 106 | 3.0 | 12.0 | 0.03 | 0.26 | 0.05 | 96 | 1013.2 |
| 20260905070538 | 73 | 106 | 4.0 | 12.0 | 0.03 | 0.26 | 0.05 | 96 | 1013.3 |
| 20260905070431 | 73 | 95 | 4.0 | 12.0 | 0.04 | 0.26 | 0.05 | 96 | 1013.3 |
| 20260905070322 | 73 | 96 | 4.0 | 12.0 | 0.04 | 0.26 | 0.05 | 96 | 1013.3 |
| 20260905070234 | 73 | 76 | 2.0 | 12.0 | 0.04 | 0.26 | 0.05 | 95 | 1013.3 |
| 20260905070156 | 73 | 76 | 2.0 | 12.0 | 0.04 | 0.26 | 0.05 | 95 | 1013.3 |
| 20260905070027 | 73 | 158 | 3.0 | 12.0 | 0.04 | 0.26 | 0.05 | 95 | 1013.3 |
| 20260905065924 | 73 | 158 | 6.0 | 12.0 | 0.04 | 0.26 | 0.05 | 95 | 1013.2 |
| 20260905065837 | 73 | 152 | 7.0 | 12.0 | 0.04 | 0.26 | 0.05 | 95 | 1013.1 |
| 20260905065729 | 73 | 131 | 8.0 | 12.0 | 0.04 | 0.26 | 0.05 | 95 | 1013.1 |
| 20260905065620 | 73 | 109 | 6.0 | 12.0 | 0.03 | 0.25 | 0.04 | 95 | 1013.1 |
| 20260905065532 | 73 | 74 | 4.0 | 9.0 | 0.03 | 0.25 | 0.04 | 95 | 1013.2 |
| 20260905065422 | 73 | 79 | 3.0 | 9.0 | 0.02 | 0.24 | 0.03 | 95 | 1013.3 |
| 20260905065335 | 73 | 80 | 3.0 | 9.0 | 0.01 | 0.23 | 0.02 | 95 | 1013.2 |
| 20260905065248 | 73 | 91 | 4.0 | 9.0 | 0.01 | 0.23 | 0.02 | 95 | 1013.1 |
| 20260905065139 | 73 | 140 | 6.0 | 9.0 | 0.01 | 0.23 | 0.02 | 95 | 1013.0 |
| 20260905065051 | 73 | 142 | 5.0 | 9.0 | 0.01 | 0.23 | 0.02 | 95 | 1013.0 |
| 20260905064946 | 73 | 138 | 6.0 | 9.0 | 0.01 | 0.23 | 0.02 | 95 | 1012.9 |
| 20260905064836 | 73 | 135 | 6.0 | 9.0 | 0.01 | 0.23 | 0.02 | 95 | 1013.0 |
| 20260905064728 | 74 | 117 | 6.0 | 9.0 | 0.01 | 0.23 | 0.02 | 95 | 1012.9 |
| 20260905064651 | 74 | 136 | 5.0 | 9.0 | 0.01 | 0.23 | 0.02 | 95 | 1012.9 |
| 20260905064522 | 74 | 98 | 5.0 | 9.0 | 0.01 | 0.23 | 0.02 | 95 | 1013.2 |
| 20260905064435 | 74 | 84 | 5.0 | 9.0 | 0.01 | 0.23 | 0.02 | 95 | 1013.2 |
| 20260905064326 | 74 | 74 | 4.0 | 7.0 | 0.01 | 0.23 | 0.02 | 95 | 1013.3 |
| 20260905064238 | 74 | 53 | 4.0 | 7.0 | 0.01 | 0.23 | 0.02 | 95 | 1013.4 |
| 20260905064130 | 74 | 59 | 4.0 | 6.0 | 0.01 | 0.23 | 0.02 | 95 | 1013.3 |
| 20260905064026 | 74 | 22 | 3.0 | 6.0 | 0.01 | 0.23 | 0.02 | 95 | 1013.3 |
| 20260905063938 | 74 | 54 | 3.0 | 6.0 | 0.01 | 0.23 | 0.02 | 95 | 1013.3 |
| 20260905063829 | 74 | 78 | 3.0 | 6.0 | 0.01 | 0.23 | 0.02 | 95 | 1013.3 |
| 20260905063722 | 74 | 63 | 4.0 | 6.0 | 0.01 | 0.23 | 0.02 | 95 | 1013.4 |
| 20260905063635 | 74 | 63 | 3.0 | 9.0 | 0.01 | 0.23 | 0.02 | 95 | 1013.4 |
| 20260905063528 | 74 | 31 | 2.0 | 9.0 | 0.01 | 0.23 | 0.02 | 95 | 1013.3 |
| 20260905063420 | 74 | 71 | 2.0 | 9.0 | 0.01 | 0.23 | 0.02 | 95 | 1013.4 |
| 20260905063331 | 74 | 71 | 3.0 | 9.0 | 0.01 | 0.23 | 0.02 | 95 | 1013.4 |
| 20260905063247 | 74 | 61 | 3.0 | 9.0 | 0.01 | 0.23 | 0.02 | 95 | 1013.4 |
| 20260905063149 | 74 | 63 | 4.0 | 9.0 | 0.01 | 0.23 | 0.02 | 95 | 1013.4 |
| 20260905063020 | 74 | 67 | 4.0 | 10.0 | 0.02 | 0.23 | 0.02 | 95 | 1013.4 |
| 20260905062932 | 74 | 107 | 5.0 | 10.0 | 0.02 | 0.23 | 0.02 | 95 | 1013.5 |
| 20260905062824 | 74 | 76 | 5.0 | 10.0 | 0.02 | 0.23 | 0.02 | 95 | 1013.5 |
| 20260905062737 | 74 | 86 | 5.0 | 10.0 | 0.02 | 0.23 | 0.02 | 95 | 1013.5 |
| 20260905062629 | 74 | 112 | 7.0 | 10.0 | 0.02 | 0.23 | 0.02 | 95 | 1013.5 |
| 20260905062540 | 74 | 103 | 7.0 | 10.0 | 0.02 | 0.23 | 0.02 | 95 | 1013.5 |
| 20260905062452 | 74 | 94 | 6.0 | 10.0 | 0.02 | 0.23 | 0.02 | 95 | 1013.5 |
| 20260905062405 | 74 | 63 | 5.0 | 10.0 | 0.02 | 0.23 | 0.02 | 95 | 1013.6 |
| 20260905062300 | 74 | 93 | 6.0 | 10.0 | 0.02 | 0.23 | 0.02 | 95 | 1013.5 |
| 20260905062132 | 74 | 95 | 6.0 | 10.0 | 0.02 | 0.23 | 0.02 | 95 | 1013.5 |
| 20260905062024 | 74 | 96 | 5.0 | 9.0 | 0.02 | 0.23 | 0.02 | 95 | 1013.6 |
| 20260905061936 | 74 | 103 | 5.0 | 9.0 | 0.02 | 0.23 | 0.02 | 95 | 1013.5 |
| 20260905061848 | 74 | 123 | 6.0 | 9.0 | 0.02 | 0.23 | 0.02 | 95 | 1013.5 |
| 20260905061739 | 74 | 103 | 7.0 | 9.0 | 0.02 | 0.23 | 0.02 | 95 | 1013.4 |
| 20260905061701 | 74 | 123 | 6.0 | 9.0 | 0.02 | 0.23 | 0.02 | 95 | 1013.4 |
| 20260905061552 | 74 | 113 | 6.0 | 9.0 | 0.02 | 0.23 | 0.02 | 95 | 1013.3 |
| 20260905061422 | 74 | 118 | 5.0 | 9.0 | 0.02 | 0.23 | 0.02 | 95 | 1013.2 |
| 20260905061334 | 74 | 141 | 5.0 | 9.0 | 0.02 | 0.23 | 0.02 | 95 | 1013.2 |
| 20260905061249 | 74 | 134 | 5.0 | 9.0 | 0.02 | 0.23 | 0.02 | 95 | 1013.2 |
| 20260905061139 | 74 | 125 | 5.0 | 9.0 | 0.02 | 0.23 | 0.02 | 95 | 1013.1 |
| 20260905061031 | 74 | 128 | 4.0 | 7.0 | 0.02 | 0.23 | 0.02 | 94 | 1013.2 |
| 20260905060923 | 74 | 135 | 4.0 | 7.0 | 0.02 | 0.23 | 0.02 | 94 | 1013.3 |
| 20260905060834 | 74 | 136 | 4.0 | 9.0 | 0.02 | 0.23 | 0.02 | 94 | 1013.3 |
| 20260905060746 | 74 | 111 | 2.0 | 9.0 | 0.02 | 0.23 | 0.02 | 94 | 1013.3 |
| 20260905060638 | 74 | 73 | 2.0 | 9.0 | 0.02 | 0.23 | 0.02 | 94 | 1013.4 |
| 20260905060550 | 74 | 73 | 2.0 | 9.0 | 0.02 | 0.23 | 0.02 | 94 | 1013.4 |
| 20260905060501 | 74 | 73 | 3.0 | 9.0 | 0.01 | 0.22 | 0.01 | 94 | 1013.5 |
| 20260905060354 | 74 | 75 | 4.0 | 9.0 | 0.01 | 0.22 | 0.01 | 94 | 1013.4 |
| 20260905060225 | 74 | 44 | 5.0 | 9.0 | 0.01 | 0.22 | 0.01 | 94 | 1013.3 |
| 20260905060147 | 74 | 96 | 6.0 | 9.0 | 0.01 | 0.22 | 0.01 | 94 | 1013.3 |
| 20260905060038 | 74 | 105 | 6.0 | 9.0 | 0.01 | 0.22 | 0.01 | 94 | 1013.4 |
| 20260905055930 | 74 | 99 | 7.0 | 9.0 | 0.01 | 0.22 | 0.01 | 94 | 1013.4 |
| 20260905055842 | 74 | 100 | 6.0 | 10.0 | 0.01 | 0.22 | 0.01 | 94 | 1013.5 |
| 20260905055753 | 74 | 90 | 4.0 | 10.0 | 0.01 | 0.22 | 0.01 | 94 | 1013.5 |
| 20260905055625 | 74 | 89 | 3.0 | 10.0 | 0.01 | 0.22 | 0.01 | 94 | 1013.6 |
| 20260905055537 | 74 | 46 | 4.0 | 10.0 | 0.01 | 0.22 | 0.01 | 94 | 1013.7 |
| 20260905055429 | 74 | 68 | 5.0 | 10.0 | 0.01 | 0.22 | 0.01 | 94 | 1013.6 |
| 20260905055325 | 74 | 67 | 5.0 | 10.0 | 0.01 | 0.22 | 0.01 | 94 | 1013.5 |
| 20260905055237 | 74 | 84 | 5.0 | 10.0 | 0.01 | 0.22 | 0.01 | 94 | 1013.6 |
| 20260905055149 | 74 | 58 | 6.0 | 10.0 | 0.01 | 0.22 | 0.01 | 94 | 1013.6 |
| 20260905055102 | 74 | 68 | 6.0 | 10.0 | 0.01 | 0.22 | 0.01 | 94 | 1013.8 |
| 20260905054953 | 74 | 44 | 7.0 | 10.0 | 0.01 | 0.22 | 0.01 | 94 | 1013.8 |
| 20260905054843 | 74 | 51 | 6.0 | 10.0 | 0.01 | 0.22 | 0.01 | 94 | 1013.7 |
| 20260905054755 | 74 | 98 | 5.0 | 10.0 | 0.01 | 0.22 | 0.01 | 94 | 1013.7 |
| 20260905054718 | 74 | 91 | 3.0 | 10.0 | 0.01 | 0.22 | 0.01 | 94 | 1013.8 |
| 20260905054548 | 74 | 60 | 3.0 | 10.0 | 0.01 | 0.22 | 0.01 | 94 | 1014.0 |
| 20260905054438 | 74 | 325 | 5.0 | 10.0 | 0.01 | 0.22 | 0.01 | 94 | 1014.2 |
| 20260905054331 | 75 | 281 | 6.0 | 10.0 | 0.01 | 0.22 | 0.01 | 93 | 1014.3 |
| 20260905054241 | 75 | 327 | 5.0 | 8.0 | 0.01 | 0.22 | 0.01 | 93 | 1014.3 |
| 20260905054136 | 75 | 311 | 5.0 | 8.0 | 0.01 | 0.22 | 0.01 | 93 | 1014.3 |
| 20260905054029 | 75 | 299 | 4.0 | 8.0 | 0.01 | 0.22 | 0.01 | 93 | 1014.2 |
| 20260905053920 | 75 | 360 | 4.0 | 8.0 | 0.01 | 0.22 | 0.01 | 93 | 1014.1 |
| 20260905053833 | 75 | 34 | 4.0 | 8.0 | 0.01 | 0.22 | 0.01 | 93 | 1014.1 |
| 20260905053724 | 75 | 31 | 3.0 | 8.0 | 0.01 | 0.22 | 0.01 | 93 | 1014.2 |
| 20260905053636 | 75 | 336 | 2.0 | 8.0 | 0.01 | 0.22 | 0.01 | 93 | 1014.3 |
| 20260905053527 | 75 | 327 | 3.0 | 8.0 | 0.01 | 0.22 | 0.01 | 93 | 1014.3 |
| 20260905053439 | 75 | 323 | 4.0 | 8.0 | 0.01 | 0.22 | 0.01 | 93 | 1014.3 |
| 20260905053336 | 75 | 290 | 5.0 | 8.0 | 0.01 | 0.22 | 0.01 | 93 | 1014.1 |
| 20260905053226 | 75 | 355 | 5.0 | 8.0 | 0.01 | 0.22 | 0.01 | 92 | 1014.0 |
| 20260905053148 | 75 | 344 | 5.0 | 8.0 | 0.00 | 0.21 | 0.00 | 92 | 1014.0 |
| 20260905053039 | 75 | 29 | 3.0 | 8.0 | 0.00 | 0.21 | 0.00 | 92 | 1013.8 |
| 20260905052950 | 75 | 349 | 2.0 | 6.0 | 0.00 | 0.21 | 0.00 | 92 | 1013.8 |
| 20260905052903 | 75 | 88 | 2.0 | 6.0 | 0.00 | 0.21 | 0.00 | 92 | 1013.4 |
| 20260905052754 | 75 | 88 | 2.0 | 6.0 | 0.00 | 0.21 | 0.00 | 92 | 1013.3 |
| 20260905052644 | 75 | 88 | 2.0 | 6.0 | 0.00 | 0.21 | 0.00 | 92 | 1013.3 |
| 20260905052554 | 75 | 88 | 2.0 | 6.0 | 0.00 | 0.21 | 0.00 | 92 | 1013.3 |
| 20260905052446 | 75 | 88 | 3.0 | 6.0 | 0.00 | 0.21 | 0.00 | 92 | 1013.4 |
| 20260905052358 | 75 | 88 | 3.0 | 7.0 | 0.00 | 0.21 | 0.00 | 92 | 1013.5 |
| 20260905052232 | 75 | 102 | 3.0 | 7.0 | 0.00 | 0.21 | 0.00 | 92 | 1013.5 |
| 20260905052145 | 75 | 116 | 3.0 | 7.0 | 0.00 | 0.21 | 0.00 | 92 | 1013.5 |
| 20260905052056 | 75 | 101 | 2.0 | 7.0 | 0.00 | 0.21 | 0.00 | 92 | 1013.5 |
| 20260905051927 | 75 | 81 | 2.0 | 7.0 | 0.00 | 0.21 | 0.00 | 92 | 1013.4 |
| 20260905051838 | 75 | 81 | 2.0 | 7.0 | 0.00 | 0.21 | 0.00 | 92 | 1013.3 |
| 20260905051729 | 75 | 112 | 3.0 | 7.0 | 0.00 | 0.21 | 0.00 | 92 | 1013.3 |
| 20260905051652 | 75 | 112 | 4.0 | 7.0 | 0.00 | 0.21 | 0.00 | 92 | 1013.3 |
| 20260905051543 | 75 | 91 | 4.0 | 6.0 | 0.00 | 0.21 | 0.00 | 92 | 1013.2 |
| 20260905051435 | 75 | 109 | 4.0 | 6.0 | 0.00 | 0.21 | 0.00 | 92 | 1013.2 |
| 20260905051328 | 75 | 104 | 3.0 | 7.0 | 0.00 | 0.21 | 0.00 | 92 | 1013.3 |
| 20260905051224 | 75 | 74 | 2.0 | 6.0 | 0.00 | 0.21 | 0.00 | 92 | 1013.3 |
| 20260905051136 | 75 | 67 | 2.0 | 6.0 | 0.00 | 0.21 | 0.00 | 92 | 1013.3 |
| 20260905051027 | 75 | 81 | 2.0 | 6.0 | 0.00 | 0.21 | 0.00 | 92 | 1013.3 |
| 20260905050920 | 75 | 89 | 2.0 | 5.0 | 0.00 | 0.21 | 0.00 | 92 | 1013.4 |
| 20260905050832 | 75 | 89 | 2.0 | 5.0 | 0.00 | 0.21 | 0.00 | 92 | 1013.5 |
| 20260905050744 | 75 | 93 | 2.0 | 7.0 | 0.00 | 0.21 | 0.00 | 92 | 1013.6 |
| 20260905050634 | 75 | 51 | 2.0 | 7.0 | 0.00 | 0.21 | 0.00 | 92 | 1013.6 |
| 20260905050546 | 75 | 80 | 2.0 | 8.0 | 0.00 | 0.21 | 0.00 | 92 | 1013.7 |
| 20260905050458 | 76 | 80 | 2.0 | 8.0 | 0.00 | 0.21 | 0.00 | 92 | 1013.7 |
| 20260905050328 | 76 | 102 | 3.0 | 8.0 | 0.00 | 0.21 | 0.00 | 92 | 1013.7 |
| 20260905050222 | 76 | 71 | 3.0 | 8.0 | 0.00 | 0.21 | 0.00 | 92 | 1013.6 |
| 20260905050144 | 76 | 94 | 3.0 | 8.0 | 0.00 | 0.21 | 0.00 | 92 | 1013.5 |
| 20260905050036 | 76 | 71 | 5.0 | 8.0 | 0.00 | 0.21 | 0.00 | 92 | 1013.6 |
| 20260905045927 | 76 | 103 | 5.0 | 8.0 | 0.00 | 0.21 | 0.00 | 92 | 1013.5 |
| 20260905045820 | 76 | 92 | 5.0 | 8.0 | 0.00 | 0.21 | 0.00 | 92 | 1013.6 |
| 20260905045731 | 76 | 101 | 4.0 | 8.0 | 0.00 | 0.21 | 0.00 | 92 | 1013.6 |
| 20260905045623 | 76 | 94 | 4.0 | 7.0 | 0.00 | 0.21 | 0.00 | 92 | 1013.7 |
| 20260905045535 | 76 | 84 | 3.0 | 6.0 | 0.00 | 0.21 | 0.00 | 92 | 1013.8 |
| 20260905045447 | 76 | 113 | 3.0 | 6.0 | 0.00 | 0.21 | 0.00 | 92 | 1013.8 |
| 20260905045340 | 76 | 88 | 4.0 | 6.0 | 0.00 | 0.21 | 0.00 | 92 | 1013.9 |
| 20260905045256 | 76 | 103 | 4.0 | 6.0 | 0.00 | 0.21 | 0.00 | 92 | 1013.8 |
| 20260905045148 | 76 | 92 | 3.0 | 6.0 | 0.00 | 0.21 | 0.00 | 92 | 1013.8 |
| 20260905045100 | 76 | 90 | 4.0 | 6.0 | 0.00 | 0.21 | 0.00 | 92 | 1013.8 |
| 20260905044932 | 76 | 106 | 4.0 | 6.0 | 0.00 | 0.21 | 0.00 | 92 | 1013.7 |
| 20260905044824 | 76 | 116 | 4.0 | 6.0 | 0.00 | 0.21 | 0.00 | 92 | 1013.7 |
| 20260905044736 | 76 | 114 | 4.0 | 6.0 | 0.00 | 0.21 | 0.00 | 92 | 1013.7 |
| 20260905044659 | 76 | 123 | 4.0 | 5.0 | 0.00 | 0.21 | 0.00 | 92 | 1013.7 |